[[{"header":{"parameterUnit":"m.s-1","parameterCategory":1,"la1":31.0,"la2":29.5877,"lo1":-88.7671,"lo2":-86.6584,"dy":0.0162,"dx":0.0185,"nx":115,"ny":88,"refTime":"2023-11-19T18:00:00:Z","depth":0,"parameterNumber":2,"parameterNumberName":"U-component_of_WINDS"},"data":[0.0,0.0,0.0,0.0,0.0,0.0,0.0,0.0,0.0,0.0,0.0,0.0,0.0,0.0,0.0,0.0,0.0,0.0,0.0,0.0,0.0,0.0,0.0,0.0,0.0,0.0,0.0,0.0,0.0,0.0,0.0,0.0,0.0,0.0,0.0,0.0,0.0,0.0,0.0,0.0,0.0,0.0,0.0,0.0,0.0,0.0,0.0,0.0,0.0,0.0,0.0,0.0,0.0,0.0,0.0,0.0,0.0,0.0,0.0,0.0,0.0,0.0,0.0,0.0,0.0,0.0,0.0,0.0,0.0,0.0,0.0,0.0,0.0,0.0,0.0,0.0,0.0,0.0,0.0,0.0,0.0,0.0,0.0,0.0,0.0,0.0,0.0,0.0,0.0,0.0,0.0,0.0,0.0,0.0,0.0,0.0,0.0,0.0,0.0,0.0,0.0,0.0,0.0,0.0,0.0,0.0,0.0,0.0,0.0,0.0,0.0,0.0,0.0,0.0,0.0,0.0,0.0,0.0,0.0,0.0,0.0,0.0,0.0,0.0,0.0,0.0,0.0,0.0,0.0,0.0,0.0,0.0,0.0,0.0,0.0,0.0,0.0,0.0,0.0,0.0,0.0,0.0,0.0,0.0,0.0,0.0,0.0,0.0,0.0,0.0,0.0,0.0,0.0,0.0,0.0,0.0,0.0,0.0,0.0,0.0,0.0,0.0,0.0,0.0,0.0,0.0,0.0,0.0,0.0,0.0,0.0,0.0,0.0,0.0,0.0,0.0,0.0,0.0,0.0,0.0,0.0,0.0,0.0,0.0,0.0,0.0,0.0,0.0,0.0,0.0,0.0,0.0,0.0,0.0,0.0,0.0,0.0,0.0,0.0,0.0,0.0,0.0,0.0,0.0,0.0,0.0,0.0,0.0,0.0,0.0,0.0,0.0,0.0,0.0,0.0,0.0,0.0,0.0,0.0,0.0,0.0,0.0,0.0,0.0,0.0,0.0,0.0,0.0,0.0,0.0,0.0,0.0,0.0,0.0,0.0,0.0,0.0,0.0,0.0,0.0,0.0,0.0,0.0,0.0,0.0,0.0,0.0,0.0,0.0,0.0,0.0,0.0,0.0,0.0,0.0,0.0,0.0,0.0,0.0,0.0,0.0,0.0,0.0,0.0,0.0,0.0,0.0,0.0,0.0,0.0,0.0,0.0,0.0,0.0,0.0,0.0,0.0,0.0,0.0,0.0,0.0,0.0,0.0,0.0,0.0,0.0,0.0,0.0,0.0,0.0,0.0,0.0,0.0,0.0,0.0,0.0,0.0,0.0,0.0,0.0,0.0,0.0,0.0,0.0,0.0,0.0,0.0,0.0,0.0,0.0,0.0,0.0,0.0,0.0,0.0,0.0,0.0,0.0,0.0,0.0,0.0,0.0,0.0,0.0,0.0,0.0,0.0,0.0,0.0,0.0,0.0,0.0,0.0,0.0,0.0,0.0,0.0,0.0,0.0,0.0,0.0,0.0,0.0,0.0,0.0,0.0,0.0,0.0,0.0,0.0,0.0,0.0,0.0,0.0,0.0,0.0,0.0,0.0,0.0,0.0,0.0,0.0,0.0,0.0,0.0,0.0,0.0,0.0,0.0,0.0,0.0,0.0,0.0,0.0,0.0,0.0,0.0,0.0,0.0,0.0,0.0,0.0,0.0,0.0,0.0,0.0,0.0,0.0,0.0,0.0,0.0,0.0,0.0,0.0,0.0,0.0,0.0,0.0,0.0,0.0,0.0,0.0,0.0,0.0,0.0,0.0,0.0,0.0,0.0,0.0,0.0,0.0,0.0,0.0,0.0,0.0,0.0,0.0,0.0,0.0,0.0,0.0,0.0,0.0,0.0,0.0,0.0,0.0,0.0,0.0,0.0,0.0,0.0,0.0,0.0,0.0,0.0,0.0,0.0,0.0,0.0,0.0,0.0,0.0,0.0,0.0,0.0,0.0,0.0,0.0,0.0,0.0,0.0,0.0,0.0,0.0,0.0,0.0,0.0,0.0,0.0,0.0,0.0,0.0,0.0,0.0,0.0,0.0,0.0,0.0,0.0,0.0,0.0,0.0,0.0,0.0,0.0,0.0,0.0,0.0,0.0,0.0,0.0,0.0,0.0,0.0,0.0,0.0,0.0,0.0,0.0,0.0,0.0,0.0,0.0,0.0,0.0,0.0,0.0,0.0,0.0,0.0,0.0,0.0,0.0,0.0,0.0,0.0,0.0,0.0,0.0,0.0,0.0,0.0,0.0,0.0,0.0,0.0,0.0,0.0,0.0,0.0,0.0,0.0,0.0,0.0,0.0,0.0,0.0,0.0,0.0,0.0,0.0,0.0,0.0,0.0,0.0,0.0,0.0,0.0,0.0,0.0,0.0,0.0,0.0,0.0,0.0,0.0,0.0,0.0,0.0,0.0,0.0,0.0,0.0,0.0,0.0,0.0,0.0,0.0,0.0,0.0,0.0,0.0,0.0,0.0,0.0,0.0,0.0,0.0,0.0,0.0,0.0,0.0,0.0,0.0,0.0,0.0,0.0,0.0,0.0,0.0,0.0,0.0,0.0,0.0,0.0,0.0,0.0,0.0,0.0,0.0,0.0,0.0,0.0,0.0,0.0,0.0,0.0,0.0,0.0,0.0,0.0,0.0,0.0,0.0,0.0,0.0,0.0,0.0,0.0,0.0,0.0,0.0,0.0,0.0,0.0,0.0,0.0,0.0,0.0,0.0,0.0,0.0,0.0,0.0,0.0,0.0,0.0,0.0,0.0,0.0,0.0,0.0,0.0,0.0,0.0,0.0,0.0,0.0,0.0,0.0,0.0,0.0,0.0,0.0,0.0,0.0,0.0,0.0,0.0,0.0,0.0,0.0,0.0,0.0,0.0,0.0,0.0,0.0,0.0,0.0,0.0,0.0,0.0,0.0,0.0,0.0,0.0,0.0,0.0,0.0,0.0,0.0,0.0,0.0,0.0,0.0,0.0,0.0,0.0,0.0,0.0,0.0,0.0,0.0,0.0,0.0,0.0,0.0,0.0,0.0,0.0,0.0,0.0,0.0,0.0,0.0,0.0,0.0,0.0,0.0,0.0,0.0,0.0,0.0,0.0,0.0,0.0,0.0,0.0,0.0,0.0,0.0,0.0,0.0,0.0,0.0,0.0,0.0,0.0,0.0,0.0,0.0,0.0,0.0,0.0,0.0,0.0,0.0,0.0,0.0,0.0,0.0,0.0,0.0,0.0,0.0,0.0,0.0,0.0,0.0,0.0,0.0,0.0,0.0,0.0,0.0,0.0,0.0,0.0,0.0,0.0,0.0,0.0,0.0,0.0,0.0,0.0,0.0,0.0,0.0,0.0,0.0,0.0,0.0,0.0,0.0,0.0,0.0,0.0,0.0,0.0,0.0,0.0,0.0,0.0,0.0,0.0,0.0,0.0,0.0,0.0,0.0,0.0,0.0,0.0,0.0,0.0,0.0,0.0,0.0,0.0,0.0,0.0,0.0,0.0,0.0,0.0,0.0,0.0,0.0,0.0,0.0,0.0,0.0,0.0,0.0,0.0,0.0,0.0,0.0,0.0,0.0,0.0,0.0,0.0,0.0,0.0,0.0,0.0,0.0,0.0,0.0,0.0,0.0,0.0,0.0,0.0,0.0,0.0,0.0,0.0,0.0,0.0,0.0,0.0,0.0,0.0,0.0,0.0,0.0,0.0,0.0,0.0,0.0,0.0,0.0,0.0,0.0,0.0,0.0,0.0,0.0,0.0,0.0,0.0,0.0,0.0,0.0,0.0,0.0,0.0,0.0,0.0,0.0,0.0,0.0,0.0,0.0,0.0,0.0,0.0,0.0,0.0,0.0,0.0,0.0,0.0,0.0,0.0,0.0,0.0,0.0,0.0,0.0,0.0,0.0,0.0,0.0,0.0,0.0,0.0,0.0,0.0,0.0,0.0,0.0,0.0,0.0,0.0,0.0,0.0,0.0,0.0,0.0,0.0,0.0,0.0,0.0,0.0,0.0,0.0,0.0,0.0,0.0,0.0,0.0,0.0,0.0,0.0,0.0,0.0,0.0,0.0,0.0,0.0,0.0,0.0,0.0,0.0,0.0,0.0,0.0,0.0,0.0,0.0,0.0,0.0,0.0,0.0,0.0,0.0,0.0,0.0,0.0,0.0,0.0,0.0,0.0,0.0,0.0,0.0,0.0,0.0,0.0,0.0,0.0,0.0,0.0,0.0,0.0,0.0,0.0,0.0,0.0,-5.4126,0.0,0.0,0.0,0.0,0.0,0.0,0.0,0.0,0.0,0.0,0.0,0.0,0.0,0.0,0.0,0.0,0.0,0.0,0.0,0.0,0.0,0.0,0.0,0.0,0.0,0.0,0.0,0.0,0.0,0.0,0.0,0.0,0.0,0.0,0.0,0.0,0.0,0.0,0.0,0.0,0.0,0.0,0.0,0.0,0.0,0.0,0.0,0.0,0.0,0.0,0.0,0.0,0.0,0.0,0.0,0.0,0.0,0.0,0.0,0.0,0.0,0.0,0.0,0.0,0.0,0.0,0.0,0.0,0.0,0.0,0.0,0.0,0.0,0.0,0.0,0.0,0.0,0.0,0.0,0.0,0.0,0.0,0.0,0.0,0.0,0.0,0.0,0.0,0.0,0.0,0.0,0.0,0.0,0.0,0.0,0.0,0.0,0.0,0.0,0.0,0.0,0.0,0.0,0.0,0.0,0.0,0.0,0.0,0.0,0.0,-5.2691,-5.3949,-5.3114,-5.3417,-5.5075,0.0,0.0,0.0,0.0,0.0,0.0,0.0,0.0,0.0,0.0,0.0,0.0,0.0,0.0,0.0,0.0,0.0,0.0,0.0,0.0,0.0,0.0,0.0,0.0,0.0,0.0,0.0,0.0,0.0,0.0,0.0,0.0,0.0,0.0,0.0,0.0,0.0,0.0,0.0,0.0,0.0,0.0,0.0,0.0,0.0,0.0,0.0,0.0,0.0,0.0,0.0,0.0,0.0,0.0,0.0,0.0,0.0,0.0,0.0,0.0,0.0,0.0,0.0,0.0,0.0,0.0,0.0,0.0,0.0,0.0,0.0,0.0,0.0,0.0,0.0,0.0,0.0,0.0,0.0,0.0,0.0,0.0,0.0,0.0,0.0,0.0,0.0,0.0,0.0,0.0,0.0,0.0,0.0,0.0,0.0,0.0,0.0,0.0,0.0,0.0,0.0,0.0,0.0,0.0,0.0,0.0,0.0,0.0,0.0,0.0,0.0,0.0,-5.4019,-5.4304,-5.5805,0.0,0.0,0.0,0.0,0.0,0.0,0.0,0.0,0.0,0.0,0.0,0.0,0.0,0.0,0.0,0.0,0.0,0.0,0.0,0.0,0.0,0.0,0.0,0.0,0.0,0.0,0.0,0.0,0.0,0.0,0.0,0.0,0.0,0.0,0.0,0.0,0.0,0.0,0.0,0.0,0.0,0.0,0.0,0.0,0.0,0.0,0.0,0.0,0.0,0.0,0.0,0.0,0.0,0.0,0.0,0.0,0.0,0.0,0.0,0.0,0.0,0.0,0.0,0.0,0.0,0.0,0.0,0.0,0.0,0.0,0.0,0.0,0.0,0.0,0.0,0.0,0.0,0.0,0.0,0.0,0.0,0.0,0.0,0.0,0.0,0.0,0.0,0.0,0.0,0.0,0.0,0.0,0.0,0.0,0.0,0.0,0.0,0.0,0.0,0.0,0.0,0.0,0.0,0.0,0.0,0.0,0.0,0.0,0.0,0.0,-5.367,-5.3922,-5.4181,0.0,-5.6039,0.0,0.0,0.0,0.0,0.0,0.0,0.0,0.0,0.0,0.0,0.0,0.0,0.0,0.0,0.0,0.0,0.0,0.0,0.0,0.0,0.0,0.0,0.0,0.0,0.0,0.0,0.0,0.0,0.0,0.0,0.0,0.0,0.0,0.0,0.0,0.0,0.0,0.0,0.0,0.0,0.0,0.0,0.0,0.0,0.0,0.0,0.0,0.0,0.0,0.0,0.0,0.0,0.0,0.0,0.0,0.0,0.0,0.0,0.0,0.0,0.0,0.0,0.0,0.0,0.0,0.0,0.0,0.0,0.0,0.0,0.0,0.0,0.0,0.0,0.0,0.0,0.0,0.0,0.0,0.0,0.0,0.0,0.0,0.0,0.0,0.0,0.0,0.0,0.0,0.0,0.0,0.0,0.0,0.0,0.0,0.0,0.0,0.0,0.0,0.0,0.0,0.0,0.0,0.0,0.0,0.0,0.0,0.0,0.0,0.0,-5.4504,-5.4558,-5.5088,-5.5896,0.0,0.0,0.0,0.0,0.0,0.0,0.0,0.0,0.0,0.0,0.0,0.0,0.0,0.0,0.0,0.0,0.0,0.0,0.0,0.0,0.0,0.0,0.0,0.0,0.0,0.0,0.0,0.0,0.0,0.0,0.0,0.0,0.0,0.0,0.0,0.0,0.0,0.0,0.0,0.0,0.0,0.0,0.0,0.0,0.0,0.0,0.0,0.0,0.0,0.0,0.0,0.0,0.0,0.0,0.0,0.0,0.0,0.0,0.0,0.0,0.0,0.0,0.0,0.0,0.0,0.0,0.0,0.0,0.0,0.0,0.0,0.0,0.0,0.0,0.0,0.0,0.0,0.0,0.0,0.0,0.0,0.0,0.0,0.0,0.0,0.0,0.0,0.0,0.0,0.0,0.0,0.0,0.0,0.0,0.0,0.0,0.0,0.0,0.0,0.0,0.0,0.0,0.0,0.0,0.0,0.0,0.0,0.0,0.0,0.0,-5.4322,-5.5053,-5.5237,-5.5981,-5.672,-5.7395,0.0,0.0,0.0,0.0,0.0,0.0,0.0,0.0,0.0,0.0,0.0,0.0,0.0,0.0,0.0,0.0,0.0,0.0,0.0,0.0,0.0,0.0,0.0,0.0,0.0,0.0,0.0,0.0,0.0,0.0,0.0,0.0,0.0,0.0,0.0,0.0,0.0,0.0,0.0,0.0,0.0,0.0,0.0,0.0,0.0,0.0,0.0,0.0,0.0,0.0,0.0,0.0,0.0,0.0,0.0,0.0,0.0,0.0,0.0,0.0,0.0,0.0,0.0,0.0,0.0,0.0,0.0,0.0,0.0,0.0,0.0,0.0,0.0,0.0,0.0,0.0,0.0,0.0,0.0,0.0,0.0,0.0,0.0,0.0,0.0,0.0,0.0,0.0,0.0,0.0,0.0,0.0,0.0,0.0,0.0,0.0,0.0,0.0,0.0,0.0,0.0,0.0,0.0,0.0,0.0,0.0,0.0,0.0,-5.3434,-5.4276,-5.4981,-5.5554,-5.6618,-5.7232,0.0,0.0,0.0,0.0,0.0,0.0,0.0,0.0,0.0,0.0,0.0,0.0,0.0,0.0,0.0,0.0,0.0,0.0,0.0,0.0,0.0,0.0,0.0,0.0,0.0,0.0,0.0,0.0,0.0,0.0,0.0,0.0,0.0,0.0,0.0,0.0,0.0,0.0,0.0,0.0,0.0,0.0,0.0,0.0,0.0,0.0,0.0,0.0,0.0,0.0,0.0,0.0,0.0,0.0,0.0,0.0,0.0,0.0,0.0,0.0,0.0,0.0,0.0,0.0,0.0,0.0,0.0,0.0,0.0,0.0,0.0,0.0,0.0,0.0,0.0,0.0,0.0,0.0,0.0,0.0,0.0,0.0,0.0,0.0,0.0,0.0,0.0,0.0,0.0,0.0,0.0,0.0,0.0,0.0,0.0,0.0,0.0,0.0,0.0,0.0,0.0,0.0,0.0,0.0,0.0,0.0,0.0,0.0,0.0,-5.4182,-5.4722,-5.5262,-5.5724,-5.6115,-5.6656,0.0,0.0,0.0,0.0,0.0,0.0,0.0,0.0,0.0,0.0,0.0,0.0,0.0,0.0,0.0,0.0,0.0,0.0,0.0,0.0,0.0,0.0,0.0,0.0,0.0,0.0,0.0,0.0,0.0,0.0,0.0,0.0,0.0,0.0,0.0,0.0,0.0,0.0,0.0,0.0,0.0,0.0,0.0,0.0,0.0,0.0,0.0,0.0,0.0,0.0,0.0,0.0,0.0,0.0,0.0,0.0,0.0,0.0,0.0,0.0,0.0,0.0,0.0,0.0,0.0,0.0,0.0,0.0,0.0,0.0,0.0,0.0,0.0,0.0,0.0,0.0,0.0,0.0,0.0,0.0,0.0,0.0,0.0,0.0,0.0,0.0,0.0,0.0,0.0,0.0,0.0,0.0,0.0,0.0,0.0,0.0,0.0,0.0,0.0,0.0,0.0,0.0,0.0,0.0,0.0,0.0,0.0,0.0,0.0,-5.4629,0.0,-5.5517,-5.6088,-5.6169,-5.6676,0.0,0.0,0.0,0.0,0.0,0.0,0.0,0.0,0.0,0.0,0.0,0.0,0.0,0.0,0.0,0.0,0.0,0.0,0.0,0.0,0.0,0.0,0.0,0.0,0.0,0.0,0.0,0.0,0.0,0.0,0.0,0.0,0.0,0.0,0.0,0.0,0.0,0.0,0.0,0.0,0.0,0.0,0.0,0.0,0.0,0.0,0.0,0.0,0.0,0.0,0.0,0.0,0.0,0.0,0.0,0.0,0.0,0.0,0.0,0.0,0.0,0.0,0.0,0.0,0.0,0.0,0.0,0.0,0.0,0.0,0.0,0.0,0.0,0.0,0.0,0.0,0.0,0.0,0.0,0.0,0.0,0.0,0.0,0.0,0.0,0.0,0.0,0.0,0.0,0.0,0.0,0.0,0.0,0.0,0.0,0.0,0.0,0.0,0.0,0.0,0.0,0.0,0.0,0.0,0.0,0.0,0.0,0.0,-5.4337,-5.4723,-5.5085,-5.5708,-5.675,-5.6928,-5.7505,0.0,0.0,0.0,0.0,0.0,0.0,0.0,0.0,0.0,0.0,0.0,0.0,0.0,0.0,0.0,0.0,0.0,0.0,0.0,0.0,0.0,0.0,0.0,0.0,0.0,0.0,0.0,0.0,0.0,0.0,0.0,0.0,0.0,0.0,0.0,0.0,0.0,0.0,0.0,0.0,0.0,0.0,0.0,0.0,0.0,0.0,0.0,0.0,0.0,0.0,0.0,0.0,0.0,0.0,0.0,0.0,0.0,0.0,0.0,0.0,0.0,0.0,0.0,0.0,0.0,0.0,0.0,0.0,0.0,0.0,0.0,0.0,0.0,0.0,0.0,0.0,0.0,0.0,0.0,0.0,0.0,0.0,0.0,0.0,0.0,0.0,0.0,0.0,0.0,0.0,0.0,0.0,0.0,0.0,0.0,0.0,0.0,0.0,0.0,0.0,0.0,0.0,0.0,0.0,0.0,0.0,0.0,0.0,0.0,-5.5922,-5.6016,-5.632,-5.6906,-5.7482,-5.773,0.0,0.0,0.0,0.0,0.0,0.0,0.0,0.0,0.0,0.0,0.0,0.0,0.0,0.0,0.0,0.0,0.0,0.0,0.0,0.0,0.0,0.0,0.0,0.0,0.0,0.0,0.0,0.0,0.0,0.0,0.0,0.0,0.0,0.0,0.0,0.0,0.0,0.0,0.0,0.0,0.0,0.0,0.0,0.0,0.0,0.0,0.0,0.0,0.0,0.0,0.0,0.0,0.0,0.0,0.0,0.0,0.0,0.0,0.0,0.0,0.0,0.0,0.0,0.0,0.0,0.0,0.0,0.0,0.0,0.0,0.0,0.0,0.0,0.0,0.0,0.0,0.0,0.0,0.0,0.0,0.0,0.0,0.0,0.0,0.0,0.0,0.0,0.0,0.0,0.0,0.0,0.0,0.0,0.0,0.0,0.0,0.0,0.0,0.0,0.0,0.0,0.0,0.0,0.0,0.0,0.0,0.0,0.0,0.0,-5.8106,-5.7566,-5.7672,-5.854,-5.8796,-5.8696,-5.8201,0.0,0.0,0.0,0.0,0.0,0.0,0.0,0.0,0.0,0.0,0.0,0.0,0.0,0.0,0.0,0.0,0.0,0.0,0.0,0.0,0.0,0.0,0.0,0.0,0.0,0.0,0.0,0.0,0.0,0.0,0.0,0.0,0.0,0.0,0.0,0.0,0.0,0.0,0.0,0.0,0.0,0.0,0.0,0.0,0.0,0.0,0.0,0.0,0.0,0.0,0.0,0.0,0.0,0.0,0.0,0.0,0.0,0.0,0.0,0.0,0.0,0.0,0.0,0.0,0.0,0.0,0.0,0.0,0.0,0.0,0.0,0.0,0.0,0.0,0.0,0.0,0.0,0.0,0.0,0.0,0.0,0.0,0.0,0.0,0.0,0.0,0.0,0.0,0.0,0.0,0.0,0.0,0.0,0.0,0.0,0.0,0.0,0.0,0.0,0.0,0.0,0.0,0.0,0.0,0.0,0.0,0.0,0.0,-6.1231,-5.9928,-5.9944,-6.1362,-6.0915,-6.0405,0.0,0.0,0.0,0.0,0.0,0.0,0.0,0.0,0.0,0.0,0.0,0.0,0.0,0.0,0.0,0.0,0.0,0.0,0.0,0.0,0.0,0.0,0.0,0.0,0.0,0.0,0.0,0.0,0.0,0.0,0.0,0.0,0.0,0.0,0.0,0.0,0.0,0.0,0.0,0.0,0.0,0.0,0.0,0.0,0.0,0.0,0.0,0.0,0.0,0.0,0.0,0.0,0.0,0.0,0.0,0.0,0.0,0.0,0.0,0.0,0.0,0.0,0.0,0.0,0.0,0.0,0.0,0.0,0.0,0.0,0.0,0.0,0.0,0.0,0.0,0.0,0.0,0.0,0.0,0.0,0.0,0.0,0.0,0.0,0.0,0.0,0.0,0.0,0.0,0.0,0.0,0.0,0.0,0.0,0.0,0.0,0.0,0.0,0.0,0.0,0.0,0.0,0.0,0.0,0.0,0.0,0.0,0.0,0.0,-6.4056,-6.4963,-6.4973,-6.3968,-6.3473,-6.2643,0.0,0.0,0.0,0.0,0.0,0.0,0.0,0.0,0.0,0.0,0.0,0.0,0.0,0.0,0.0,0.0,0.0,0.0,0.0,0.0,0.0,0.0,0.0,0.0,0.0,0.0,0.0,0.0,0.0,0.0,0.0,0.0,0.0,0.0,0.0,0.0,0.0,0.0,0.0,0.0,0.0,0.0,0.0,0.0,0.0,0.0,0.0,0.0,0.0,0.0,0.0,0.0,0.0,0.0,0.0,0.0,0.0,0.0,0.0,0.0,0.0,0.0,0.0,0.0,0.0,0.0,0.0,0.0,0.0,0.0,0.0,0.0,0.0,0.0,0.0,0.0,0.0,0.0,0.0,0.0,0.0,0.0,0.0,0.0,0.0,0.0,0.0,0.0,0.0,0.0,0.0,0.0,0.0,0.0,0.0,0.0,0.0,0.0,0.0,0.0,0.0,0.0,0.0,0.0,0.0,0.0,0.0,0.0,-6.3416,-6.524,-6.8189,-6.9184,-6.8019,-6.6083,-6.4346,0.0,0.0,0.0,0.0,0.0,0.0,0.0,0.0,0.0,0.0,0.0,0.0,0.0,0.0,0.0,0.0,0.0,0.0,0.0,0.0,0.0,0.0,0.0,0.0,0.0,0.0,0.0,0.0,0.0,0.0,0.0,0.0,0.0,0.0,0.0,0.0,0.0,0.0,0.0,0.0,0.0,0.0,0.0,0.0,0.0,0.0,0.0,0.0,0.0,0.0,0.0,0.0,0.0,0.0,0.0,0.0,0.0,0.0,0.0,0.0,0.0,0.0,0.0,0.0,0.0,0.0,0.0,0.0,0.0,0.0,0.0,0.0,0.0,0.0,0.0,0.0,0.0,0.0,0.0,0.0,0.0,0.0,0.0,0.0,0.0,0.0,0.0,0.0,0.0,0.0,0.0,0.0,0.0,0.0,0.0,0.0,0.0,0.0,0.0,0.0,0.0,0.0,0.0,0.0,0.0,0.0,0.0,0.0,-6.5216,-6.5565,-7.0134,-7.2497,-7.2274,-6.8488,-6.5741,0.0,0.0,0.0,0.0,0.0,0.0,0.0,0.0,0.0,0.0,0.0,0.0,0.0,0.0,0.0,0.0,0.0,0.0,0.0,0.0,0.0,0.0,0.0,0.0,0.0,0.0,0.0,0.0,0.0,0.0,0.0,0.0,0.0,0.0,0.0,0.0,0.0,0.0,0.0,0.0,0.0,0.0,0.0,0.0,0.0,0.0,0.0,0.0,0.0,0.0,0.0,0.0,0.0,0.0,0.0,0.0,0.0,0.0,0.0,0.0,0.0,0.0,0.0,0.0,0.0,0.0,0.0,0.0,0.0,0.0,0.0,0.0,0.0,0.0,0.0,0.0,0.0,0.0,0.0,0.0,0.0,0.0,0.0,0.0,0.0,0.0,0.0,0.0,0.0,0.0,0.0,0.0,0.0,0.0,0.0,0.0,0.0,0.0,0.0,0.0,0.0,0.0,0.0,0.0,0.0,0.0,0.0,0.0,-6.5803,-6.7736,-7.1305,-7.3164,-7.3127,-6.9277,-6.6821,0.0,0.0,0.0,0.0,0.0,0.0,0.0,0.0,0.0,0.0,0.0,0.0,0.0,0.0,0.0,0.0,0.0,0.0,0.0,0.0,0.0,0.0,0.0,0.0,0.0,0.0,0.0,0.0,0.0,0.0,0.0,0.0,0.0,0.0,0.0,0.0,0.0,0.0,0.0,0.0,0.0,0.0,0.0,0.0,0.0,0.0,0.0,0.0,-7.1093,0.0,0.0,0.0,0.0,0.0,0.0,0.0,0.0,0.0,0.0,0.0,0.0,0.0,0.0,0.0,0.0,0.0,0.0,0.0,0.0,0.0,0.0,0.0,0.0,0.0,0.0,0.0,0.0,0.0,0.0,0.0,0.0,0.0,0.0,0.0,0.0,0.0,0.0,0.0,0.0,0.0,0.0,0.0,0.0,0.0,0.0,0.0,0.0,0.0,0.0,0.0,0.0,0.0,0.0,0.0,0.0,0.0,0.0,0.0,-6.6621,-6.8927,-7.1784,-7.3305,-7.3209,-7.0417,-6.822,0.0,0.0,0.0,0.0,0.0,0.0,0.0,0.0,0.0,0.0,0.0,0.0,0.0,0.0,0.0,0.0,0.0,0.0,0.0,0.0,0.0,0.0,0.0,0.0,0.0,0.0,0.0,0.0,0.0,0.0,0.0,0.0,0.0,0.0,0.0,0.0,0.0,0.0,0.0,0.0,0.0,0.0,0.0,0.0,0.0,0.0,0.0,0.0,0.0,0.0,0.0,0.0,0.0,0.0,0.0,0.0,0.0,0.0,0.0,0.0,0.0,0.0,0.0,0.0,0.0,0.0,0.0,0.0,0.0,0.0,0.0,0.0,0.0,0.0,0.0,0.0,0.0,0.0,0.0,0.0,0.0,0.0,0.0,0.0,0.0,0.0,0.0,0.0,0.0,0.0,0.0,0.0,0.0,0.0,0.0,0.0,0.0,0.0,0.0,0.0,0.0,0.0,0.0,0.0,0.0,0.0,0.0,-6.4694,-6.731,-6.9841,-7.205,-7.3199,-7.3215,-7.149,-6.9699,-6.7865,0.0,0.0,0.0,0.0,0.0,0.0,0.0,0.0,0.0,0.0,0.0,0.0,0.0,0.0,0.0,0.0,0.0,0.0,0.0,0.0,0.0,0.0,0.0,0.0,0.0,0.0,0.0,0.0,0.0,0.0,0.0,0.0,0.0,0.0,0.0,0.0,0.0,0.0,-7.4014,-7.4392,0.0,0.0,0.0,0.0,0.0,0.0,0.0,0.0,-7.2929,0.0,0.0,0.0,0.0,0.0,0.0,0.0,0.0,0.0,0.0,0.0,0.0,0.0,0.0,0.0,0.0,0.0,0.0,0.0,0.0,0.0,0.0,0.0,0.0,0.0,0.0,0.0,0.0,0.0,0.0,0.0,0.0,0.0,0.0,0.0,0.0,0.0,0.0,0.0,0.0,0.0,0.0,0.0,0.0,0.0,0.0,0.0,0.0,0.0,0.0,0.0,0.0,0.0,0.0,0.0,0.0,-6.4085,-6.477,-6.7035,-7.1102,-7.2462,-7.3215,-7.3335,-7.2334,-7.0839,-6.8762,0.0,0.0,0.0,0.0,0.0,0.0,0.0,0.0,0.0,0.0,0.0,0.0,0.0,0.0,0.0,0.0,0.0,0.0,0.0,0.0,0.0,0.0,0.0,0.0,0.0,0.0,0.0,0.0,0.0,0.0,0.0,0.0,0.0,0.0,0.0,0.0,0.0,0.0,0.0,-7.5793,-7.5664,0.0,0.0,0.0,0.0,0.0,0.0,0.0,0.0,-7.5229,0.0,0.0,0.0,0.0,0.0,0.0,0.0,0.0,0.0,0.0,0.0,0.0,0.0,0.0,0.0,0.0,0.0,0.0,0.0,0.0,0.0,0.0,0.0,0.0,0.0,0.0,0.0,0.0,0.0,0.0,0.0,0.0,0.0,0.0,0.0,0.0,0.0,0.0,0.0,0.0,0.0,0.0,0.0,0.0,0.0,0.0,0.0,0.0,0.0,0.0,0.0,0.0,0.0,0.0,0.0,-6.5179,-6.6192,-6.8356,-7.195,-7.2724,-7.3108,-7.3268,-7.2395,-7.0915,0.0,0.0,0.0,0.0,0.0,0.0,0.0,0.0,0.0,0.0,0.0,0.0,0.0,0.0,0.0,0.0,0.0,0.0,0.0,0.0,0.0,0.0,0.0,0.0,0.0,0.0,0.0,0.0,0.0,0.0,0.0,0.0,0.0,0.0,0.0,0.0,0.0,0.0,0.0,0.0,-7.7214,-7.7525,-7.7368,0.0,0.0,0.0,0.0,0.0,0.0,-7.582,-7.5736,0.0,0.0,0.0,0.0,0.0,0.0,0.0,0.0,0.0,0.0,0.0,0.0,0.0,0.0,0.0,0.0,0.0,0.0,0.0,0.0,0.0,0.0,0.0,0.0,0.0,0.0,0.0,0.0,0.0,0.0,0.0,0.0,0.0,0.0,0.0,0.0,0.0,0.0,0.0,0.0,0.0,0.0,0.0,0.0,0.0,0.0,0.0,0.0,0.0,0.0,0.0,0.0,0.0,0.0,0.0,-6.6015,-6.7469,-6.9569,-7.2539,-7.2927,-7.3037,-7.3162,-7.2019,-7.0611,0.0,0.0,0.0,0.0,0.0,0.0,0.0,0.0,0.0,0.0,0.0,0.0,0.0,0.0,0.0,0.0,0.0,0.0,0.0,0.0,0.0,0.0,0.0,0.0,0.0,0.0,0.0,0.0,0.0,0.0,0.0,0.0,0.0,0.0,0.0,0.0,0.0,0.0,0.0,0.0,0.0,-7.9346,-7.8768,-7.8552,0.0,0.0,0.0,0.0,-7.6363,-7.7027,0.0,0.0,0.0,0.0,0.0,0.0,0.0,0.0,0.0,0.0,0.0,0.0,0.0,0.0,0.0,0.0,0.0,0.0,0.0,0.0,0.0,0.0,0.0,0.0,0.0,0.0,0.0,0.0,0.0,0.0,0.0,0.0,0.0,0.0,0.0,0.0,0.0,0.0,0.0,0.0,0.0,0.0,0.0,0.0,0.0,0.0,0.0,0.0,0.0,0.0,0.0,0.0,0.0,0.0,0.0,0.0,-6.5961,-6.7247,-6.9389,-7.2539,-7.2927,-7.3037,-7.3162,-7.1247,-7.0119,0.0,0.0,0.0,0.0,0.0,0.0,0.0,0.0,0.0,0.0,0.0,0.0,0.0,0.0,0.0,0.0,0.0,0.0,0.0,0.0,0.0,0.0,0.0,0.0,0.0,0.0,0.0,0.0,0.0,0.0,0.0,0.0,0.0,0.0,0.0,0.0,0.0,0.0,0.0,0.0,0.0,-8.059,-8.1193,-8.0631,-7.9926,0.0,0.0,-8.0533,-7.9036,-8.1912,0.0,0.0,0.0,0.0,0.0,0.0,0.0,0.0,0.0,0.0,0.0,0.0,0.0,0.0,0.0,0.0,0.0,0.0,0.0,0.0,0.0,0.0,0.0,0.0,0.0,0.0,0.0,0.0,0.0,0.0,0.0,0.0,0.0,0.0,0.0,0.0,0.0,0.0,0.0,0.0,0.0,0.0,0.0,0.0,0.0,0.0,0.0,0.0,0.0,0.0,0.0,0.0,0.0,0.0,0.0,-6.216,-6.5001,-6.75,-6.9778,-7.1725,-7.2558,-7.3037,-7.3199,-7.11,-7.0018,0.0,0.0,0.0,0.0,0.0,0.0,0.0,0.0,0.0,0.0,0.0,0.0,0.0,0.0,0.0,0.0,0.0,0.0,0.0,0.0,0.0,0.0,0.0,0.0,0.0,0.0,0.0,0.0,0.0,0.0,0.0,0.0,0.0,0.0,0.0,0.0,0.0,0.0,0.0,0.0,0.0,0.0,-8.1174,-8.1465,0.0,0.0,0.0,-8.2126,-8.097,0.0,0.0,0.0,0.0,0.0,0.0,0.0,0.0,0.0,0.0,0.0,0.0,0.0,0.0,0.0,0.0,0.0,0.0,0.0,0.0,0.0,0.0,0.0,0.0,0.0,0.0,0.0,0.0,0.0,0.0,0.0,0.0,0.0,0.0,0.0,0.0,0.0,0.0,0.0,0.0,0.0,0.0,0.0,0.0,0.0,0.0,0.0,0.0,0.0,0.0,0.0,0.0,0.0,0.0,0.0,0.0,0.0,-6.4537,-6.778,-7.0091,-7.1348,-7.2429,-7.3037,-7.3124,-7.158,0.0,0.0,0.0,0.0,0.0,0.0,0.0,0.0,0.0,0.0,0.0,0.0,0.0,0.0,0.0,0.0,0.0,0.0,0.0,0.0,0.0,0.0,0.0,0.0,0.0,0.0,0.0,-6.7097,0.0,0.0,0.0,0.0,0.0,0.0,0.0,0.0,0.0,0.0,0.0,0.0,0.0,0.0,-8.3807,-8.2029,-8.2743,-8.3358,0.0,0.0,-8.3446,-8.2682,-8.4418,-8.469,0.0,0.0,0.0,0.0,0.0,0.0,0.0,0.0,0.0,0.0,0.0,0.0,0.0,0.0,0.0,0.0,0.0,0.0,0.0,0.0,0.0,0.0,0.0,0.0,0.0,0.0,0.0,0.0,0.0,0.0,0.0,0.0,0.0,0.0,0.0,0.0,0.0,0.0,0.0,0.0,0.0,0.0,0.0,0.0,0.0,0.0,0.0,0.0,0.0,0.0,0.0,0.0,0.0,0.0,-6.3262,-6.5322,-6.7903,-7.0168,-7.2043,-7.2686,-7.3037,-7.3162,-7.2921,-7.2244,0.0,0.0,0.0,0.0,0.0,0.0,0.0,0.0,0.0,0.0,0.0,0.0,0.0,0.0,0.0,0.0,0.0,0.0,0.0,0.0,0.0,0.0,0.0,0.0,0.0,0.0,0.0,0.0,0.0,0.0,0.0,0.0,0.0,0.0,0.0,0.0,0.0,0.0,0.0,0.0,0.0,-8.5319,-8.5349,-8.5307,-8.5506,0.0,-8.5851,-8.5095,-8.4195,-8.742,-8.7918,-8.1641,0.0,0.0,0.0,0.0,0.0,0.0,0.0,0.0,0.0,0.0,0.0,0.0,0.0,0.0,0.0,0.0,0.0,0.0,0.0,0.0,0.0,0.0,0.0,0.0,0.0,0.0,0.0,0.0,0.0,0.0,0.0,0.0,0.0,0.0,0.0,0.0,0.0,0.0,0.0,0.0,0.0,0.0,0.0,0.0,0.0,0.0,0.0,0.0,0.0,0.0,0.0,0.0,0.0,-6.3027,-6.4383,-6.781,-7.0154,-7.1281,-7.2679,-7.337,-7.3357,-7.3071,-7.2434,0.0,0.0,0.0,0.0,0.0,0.0,0.0,0.0,0.0,0.0,0.0,0.0,0.0,0.0,0.0,0.0,0.0,0.0,0.0,0.0,0.0,0.0,0.0,0.0,0.0,0.0,0.0,0.0,-7.0353,-7.1053,-7.2342,0.0,0.0,0.0,0.0,0.0,0.0,0.0,0.0,0.0,0.0,-8.6785,-8.6328,-8.7047,0.0,0.0,-8.7724,-8.742,-8.6087,-8.7661,-8.7545,-8.2986,-8.1555,0.0,0.0,0.0,0.0,0.0,0.0,0.0,0.0,0.0,0.0,0.0,0.0,0.0,0.0,0.0,0.0,0.0,0.0,0.0,0.0,0.0,0.0,0.0,0.0,0.0,0.0,0.0,0.0,0.0,0.0,0.0,0.0,0.0,0.0,0.0,0.0,0.0,0.0,0.0,0.0,0.0,0.0,0.0,0.0,0.0,0.0,0.0,0.0,0.0,0.0,0.0,0.0,-6.3252,-6.4448,-6.7776,-6.9967,-7.1112,-7.2504,-7.3295,-7.341,-7.3624,-7.3326,0.0,0.0,0.0,0.0,0.0,0.0,0.0,0.0,0.0,0.0,0.0,0.0,0.0,0.0,0.0,0.0,0.0,0.0,0.0,0.0,0.0,0.0,0.0,0.0,0.0,0.0,0.0,0.0,-7.1808,-7.2508,-7.3263,0.0,0.0,0.0,0.0,0.0,0.0,0.0,0.0,0.0,0.0,-8.7667,-8.7095,-8.7783,-8.8287,-8.8118,-8.8201,-8.7855,-8.6729,-8.75,-8.7113,-8.3839,0.0,0.0,0.0,0.0,0.0,0.0,0.0,0.0,0.0,0.0,0.0,0.0,0.0,0.0,0.0,0.0,0.0,0.0,0.0,0.0,0.0,0.0,0.0,0.0,0.0,0.0,0.0,0.0,0.0,0.0,-4.2122,0.0,0.0,0.0,0.0,0.0,0.0,0.0,0.0,0.0,0.0,0.0,0.0,0.0,0.0,0.0,0.0,0.0,0.0,0.0,0.0,0.0,0.0,-6.4239,-6.6133,-6.7813,-6.9714,-7.1805,-7.2248,-7.2779,-7.3447,-7.4948,-7.5259,-7.4282,0.0,0.0,0.0,0.0,0.0,0.0,0.0,0.0,0.0,0.0,0.0,0.0,0.0,0.0,0.0,0.0,0.0,0.0,0.0,0.0,0.0,0.0,0.0,0.0,0.0,0.0,-7.0697,-7.2744,-7.4149,0.0,0.0,0.0,0.0,0.0,0.0,0.0,0.0,0.0,0.0,-8.5824,-8.7874,-8.8031,-8.7409,-8.737,-8.8204,-8.7059,-8.5998,-8.5827,-8.723,-8.7234,0.0,0.0,0.0,0.0,0.0,0.0,0.0,0.0,0.0,0.0,0.0,0.0,0.0,0.0,0.0,0.0,0.0,0.0,0.0,0.0,0.0,0.0,0.0,0.0,0.0,0.0,0.0,-4.2152,-4.2243,0.0,0.0,0.0,0.0,0.0,0.0,0.0,0.0,0.0,0.0,0.0,-5.3978,-5.4362,0.0,0.0,0.0,0.0,0.0,0.0,0.0,0.0,0.0,0.0,0.0,0.0,-6.4383,-6.6225,-6.8615,-7.0692,-7.2382,-7.2717,-7.3193,-7.3868,-7.5123,-7.5857,-7.599,0.0,0.0,0.0,0.0,0.0,0.0,0.0,0.0,0.0,0.0,0.0,0.0,0.0,0.0,0.0,0.0,0.0,0.0,0.0,0.0,0.0,0.0,0.0,0.0,0.0,-7.219,0.0,0.0,0.0,0.0,0.0,0.0,0.0,0.0,0.0,0.0,0.0,-8.3109,-8.5212,-8.6514,-8.7699,-8.8828,-8.9214,-8.9486,0.0,0.0,0.0,0.0,0.0,0.0,0.0,0.0,0.0,0.0,0.0,0.0,0.0,0.0,-7.9098,-7.5094,-7.4299,-7.4041,-7.3432,0.0,0.0,0.0,0.0,0.0,0.0,0.0,0.0,0.0,0.0,0.0,0.0,0.0,0.0,-4.3434,0.0,-4.4141,0.0,0.0,0.0,0.0,0.0,0.0,0.0,0.0,-5.3346,-5.45,-5.5587,-5.5896,-5.6486,0.0,-5.8015,-5.7821,0.0,0.0,0.0,0.0,0.0,0.0,0.0,0.0,-6.5059,-6.661,-6.9237,-7.1309,-7.2781,-7.3348,-7.3978,-7.4682,-7.5733,-7.6592,-7.713,-7.6351,-7.5272,0.0,0.0,0.0,0.0,0.0,0.0,0.0,0.0,0.0,0.0,0.0,0.0,0.0,0.0,0.0,0.0,0.0,0.0,0.0,0.0,0.0,0.0,0.0,-7.3989,0.0,0.0,0.0,0.0,0.0,0.0,0.0,0.0,0.0,-8.1376,-8.2392,-8.4068,-8.677,-8.7209,-8.772,-8.8847,0.0,0.0,0.0,0.0,0.0,0.0,0.0,-8.7354,-8.6282,-8.5903,-8.5825,-8.5949,-8.527,-8.4654,-8.457,0.0,0.0,-7.8696,-7.787,-7.7648,-7.7014,-7.7589,-7.8319,-7.8854,-7.9193,-7.9376,0.0,0.0,0.0,0.0,0.0,0.0,0.0,0.0,-4.5311,-4.4869,0.0,-4.5387,0.0,0.0,0.0,0.0,0.0,-5.1026,0.0,0.0,-5.6759,-5.8008,-5.7103,-5.7475,-5.7917,-5.8477,-5.8545,-5.8735,-5.9182,-6.0396,0.0,0.0,0.0,0.0,0.0,0.0,-6.6126,-6.7376,-6.9661,-7.1644,-7.3202,-7.408,-7.4963,-7.577,-7.675,-7.7409,-7.7679,-7.7376,-7.6883,-7.6308,-7.4745,0.0,0.0,0.0,0.0,0.0,0.0,0.0,0.0,0.0,0.0,0.0,0.0,0.0,0.0,0.0,0.0,0.0,0.0,0.0,0.0,-7.5351,0.0,0.0,0.0,0.0,0.0,0.0,0.0,0.0,0.0,0.0,-8.3148,-8.3097,-8.4178,-8.7429,0.0,0.0,0.0,0.0,-8.8165,-8.7741,-8.7581,-8.7627,-8.7667,-8.9602,-9.054,-8.8859,0.0,0.0,-8.899,-8.7972,-8.6956,-8.5345,-8.5917,-8.5507,-8.2844,-8.2254,-8.1646,-8.0144,-8.0534,-8.0942,-8.0959,-8.18,-8.2268,-3.8135,0.0,0.0,0.0,0.0,-4.3371,-4.4647,-4.5962,-4.7219,-4.7563,-4.7202,-4.814,0.0,0.0,0.0,0.0,0.0,0.0,-5.3707,-5.541,-5.6709,-5.7878,-5.8982,-5.9556,-5.9826,-5.984,-6.1152,-6.1614,-6.1442,-6.3289,-6.3119,-6.1191,0.0,0.0,0.0,0.0,-6.6889,-6.9237,-7.0734,-7.2323,-7.4194,-7.4095,-7.4799,-7.6346,-7.6993,-7.7617,-7.8387,-7.8353,-7.793,-7.7075,-7.6522,0.0,0.0,0.0,0.0,0.0,0.0,0.0,0.0,0.0,0.0,0.0,0.0,0.0,0.0,0.0,0.0,0.0,0.0,0.0,-7.5216,-7.7302,-7.8137,0.0,0.0,0.0,0.0,0.0,0.0,0.0,0.0,0.0,-8.5441,-8.4651,-8.4785,0.0,0.0,-8.7035,-8.8339,-8.8959,-8.9652,-9.0586,-9.0774,0.0,-9.145,-9.1186,-9.0921,-9.1046,-9.2148,-9.2773,-9.2091,-9.1287,-9.0774,-9.0858,-9.0325,-8.9461,-8.8729,-8.7109,-8.581,-8.5338,-8.5846,-8.6393,-8.6393,-8.6585,-8.6719,-3.9433,-3.9559,-4.0841,-4.2189,-4.3636,-4.4933,-4.6344,-4.7733,-4.8771,-4.9152,-4.8966,-4.9928,-4.9365,-4.7824,-4.9515,0.0,0.0,0.0,-5.5569,-5.7773,-5.815,-5.9123,-6.0526,-6.1069,-6.1247,-6.1208,-6.2604,-6.3116,-6.2594,-6.3802,-6.4009,-6.3119,0.0,0.0,-6.5259,-6.6671,-6.8247,-7.0013,-7.1785,-7.3398,-7.4745,-7.5225,-7.5935,-7.7045,-7.7533,-7.8117,-7.876,-7.8864,-7.865,-7.8116,-7.7642,-7.6529,0.0,0.0,0.0,0.0,0.0,0.0,0.0,0.0,0.0,0.0,0.0,-7.6109,-7.6148,0.0,0.0,0.0,-7.7457,-7.7495,-7.7582,-7.9105,0.0,0.0,0.0,0.0,0.0,0.0,0.0,-8.2098,-8.3892,-8.5623,-8.6979,-8.6687,-8.6962,-8.8606,-8.8187,-8.8295,-8.9746,0.0,-9.1413,-9.2443,-9.2599,-9.2871,-9.3646,-9.3221,-9.3065,-9.392,-9.3801,-9.3914,-9.4229,-9.3435,-9.2869,-9.3216,-9.2534,-9.1708,-9.1708,-9.0455,-8.9257,-8.8633,-8.9179,-8.9726,-8.9726,-9.0,-9.0234,-4.0508,-4.1524,-4.2564,-4.3862,-4.5407,-4.6667,-4.8208,-5.0001,-5.0211,-4.9934,-4.9585,-5.0917,-5.0829,-4.9657,-5.1195,0.0,-5.4649,-5.5905,-5.7582,-5.9716,-6.0397,-6.1077,-6.1724,-6.2028,-6.2183,-6.2273,-6.3165,-6.3484,-6.3256,-6.3131,-6.3799,-6.522,-6.6301,-6.6423,-6.5902,-6.8461,-6.9857,-7.0165,-7.2782,-7.45,-7.5189,-7.6839,-7.7725,-7.7762,-7.8183,-7.8565,-7.8864,-7.8915,-7.9066,-7.9236,-7.8272,-7.7187,-7.6236,0.0,0.0,0.0,0.0,0.0,0.0,0.0,0.0,0.0,0.0,0.0,0.0,0.0,0.0,-8.0662,-8.0931,0.0,-8.1234,-8.0846,0.0,0.0,0.0,-8.1154,-8.1824,-8.339,-8.4359,-8.432,0.0,0.0,-8.7885,-8.8786,-8.9964,-9.16,-9.1074,-9.0933,-9.195,-9.2743,-9.3364,-9.3491,-9.3629,-9.396,-9.4776,-9.5295,-9.5825,-9.6488,-9.5623,-9.4951,-9.5403,-9.4542,-9.37,-9.3545,-9.2975,-9.2489,-9.2507,-9.2365,-9.2023,-9.0586,-9.0898,-9.1367,-9.1367,-9.1875,-9.2344,-4.2448,-4.3167,-4.5623,-4.6395,-4.6118,-4.7923,-4.9098,-4.9786,-5.1544,-5.188,-5.1364,-5.2757,-5.3726,-5.4298,-5.6074,-5.6901,-5.6901,-5.7997,-5.8848,-5.9419,-5.979,-6.042,-6.1247,-6.1743,-6.2183,-6.2782,-6.3923,-6.4407,-6.4329,-6.5459,-6.6186,-6.6602,-6.7761,-6.807,-6.7556,-6.8932,-7.035,-7.1716,-7.2705,-7.3971,-7.5747,-7.6628,-7.7181,-7.7426,-7.7977,-7.8458,-7.876,-7.9029,-7.9263,-7.9273,-7.9001,-7.8371,-7.7188,-7.6388,0.0,0.0,0.0,0.0,0.0,0.0,0.0,0.0,0.0,-7.843,-7.8205,0.0,-7.992,0.0,-8.1261,-8.1875,-8.1875,-8.2355,0.0,0.0,-8.336,-8.4171,-8.4428,-8.5836,-8.6648,-8.6141,-8.7436,-8.845,-8.8643,-8.9472,-9.0865,-9.3076,-9.2367,-9.1967,-9.2865,-9.3628,-9.4355,-9.5001,-9.5571,-9.6035,-9.6216,-9.6422,-9.6627,-9.6803,-9.6454,-9.6162,-9.5815,-9.5027,-9.4245,-9.3755,-9.3066,-9.2619,-9.2595,-9.2567,-9.2731,-9.2851,-9.2656,-9.2304,-9.2304,-9.2461,-9.2617,-4.3284,-4.4016,-4.6533,-4.7716,-4.7852,-4.961,-5.0573,-5.1139,-5.2546,-5.3099,-5.3223,-5.4266,-5.5274,-5.622,-5.756,-5.8115,-5.8012,-5.892,-5.9652,-6.0444,-6.0566,-6.1101,-6.1873,-6.2679,-6.3146,-6.3242,-6.4266,-6.4967,-6.5155,-6.5888,-6.6867,-6.8041,-6.914,-6.9732,-6.9984,-6.9963,-7.0714,-7.22,-7.3379,-7.4667,-7.5931,-7.6541,-7.6899,-7.7082,-7.7533,-7.7966,-7.8209,-7.8441,-7.8571,-7.8694,-7.8739,-7.8254,-7.722,-7.7085,-7.6596,0.0,0.0,0.0,0.0,0.0,0.0,0.0,0.0,0.0,0.0,0.0,-8.1147,-8.1617,-8.2593,-8.3231,-8.3401,-8.3471,-8.3842,-8.4657,-8.5294,-8.5941,-8.6713,-8.7927,-8.8545,-8.8161,-8.9223,-8.9972,-8.9948,-9.1145,-9.248,-9.3862,-9.4065,-9.4292,-9.4757,-9.5248,-9.5659,-9.6123,-9.6532,-9.6822,-9.6822,-9.6822,-9.6822,-9.6783,-9.6474,-9.6222,-9.6178,-9.5079,-9.4075,-9.4045,-9.3248,-9.2717,-9.3015,-9.2794,-9.2882,-9.3513,-9.3203,-9.2812,-9.3086,-9.3203,-9.3086,-4.3802,-4.4943,-4.6785,-4.8437,-4.9951,-5.1225,-5.2241,-5.3067,-5.3222,-5.3898,-5.4823,-5.5378,-5.6109,-5.6829,-5.7465,-5.8052,-5.8558,-5.917,-6.0347,-6.1789,-6.1724,-6.2204,-6.2983,-6.3995,-6.4178,-6.3809,-6.464,-6.5328,-6.5831,-6.5595,-6.6816,-6.9238,-7.005,-7.102,-7.1968,-7.106,-7.1138,-7.2153,-7.4347,-7.5697,-7.6027,-7.6445,-7.6677,-7.6766,-7.7092,-7.7334,-7.757,-7.7607,-7.7717,-7.79,-7.807,-7.7758,-7.7045,-7.7477,-7.7396,0.0,-7.7728,0.0,0.0,0.0,0.0,0.0,0.0,0.0,0.0,-8.2292,-8.2862,-8.3888,-8.4464,-8.4963,-8.5344,-8.4682,-8.5113,-8.7237,-8.7006,-8.7204,-8.8671,-8.9594,-9.0056,-9.0094,-9.0894,-9.1433,-9.1437,-9.2988,-9.408,-9.4287,-9.5378,-9.6309,-9.6706,-9.6667,-9.6706,-9.6822,-9.6822,-9.6822,-9.6822,-9.6822,-9.6822,-9.6744,-9.628,-9.5922,-9.6522,-9.5088,-9.394,-9.4387,-9.3574,-9.2979,-9.3685,-9.3081,-9.2907,-9.3859,-9.3552,-9.3203,-9.3476,-9.3594,-9.3476,-4.5448,-4.7261,-4.8724,-4.9997,-5.1111,-5.2292,-5.2945,-5.3222,-5.3253,-5.4083,-5.5407,-5.6244,-5.7235,-5.8196,-5.8536,-5.9191,-6.0007,-6.0347,-6.0922,-6.1789,-6.1418,-6.202,-6.3432,-6.3162,-6.3669,-6.4982,-6.5048,-6.558,-6.6609,-6.6855,-6.7506,-6.8609,-6.9849,-7.0503,-7.0645,0.0,0.0,0.0,-7.4652,-7.5786,-7.5995,-7.5916,-7.608,-7.6443,-7.6695,0.0,-7.7492,-7.7646,-7.7831,-7.7976,-7.8003,0.0,0.0,0.0,0.0,0.0,0.0,0.0,0.0,0.0,0.0,0.0,-8.3048,-8.3247,-8.2155,-8.3235,-8.4694,-8.6159,-8.6467,-8.6776,-8.7427,-8.7351,-8.7504,-8.8152,-8.8651,-8.9184,-8.9636,-9.0441,-9.0941,-9.0979,-9.171,-9.2284,-9.2322,-9.3307,-9.4287,-9.491,-9.5455,-9.6009,-9.6706,-9.6783,-9.6822,-9.6822,-9.6822,-9.6822,-9.6822,-9.6822,-9.6822,-9.6744,-9.6706,-9.6405,-9.6111,-9.5761,-9.5165,-9.4972,-9.4195,-9.3543,-9.3763,-9.3159,-9.302,-9.4556,-9.4721,-9.4334,-9.3125,-9.2851,-9.2812,-4.5822,0.0,-4.9319,-5.0668,0.0,-5.3118,-5.4112,-5.4668,-5.436,-5.5163,-5.6682,-5.7273,-5.7987,-5.8824,-5.9447,-6.0071,-6.0573,-6.0696,-6.1174,-6.1757,-6.1199,-6.1605,-6.2885,-6.2974,-6.3636,-6.4685,-6.5081,-6.578,-6.6812,-6.7195,-6.8093,-6.9452,-7.07,-7.1585,-7.2099,-7.3122,-7.3579,-7.3457,-7.497,-7.587,-7.6109,-7.6045,-7.6101,-7.6334,-7.6656,0.0,0.0,0.0,0.0,0.0,0.0,0.0,0.0,-7.9301,0.0,-8.042,-8.1085,-8.1541,-8.1793,-8.2598,-8.3215,-8.3486,-8.4631,-8.5054,-8.4401,-8.5399,-8.643,-8.7349,-8.7503,-8.7886,-8.8568,-8.8339,-8.8496,-8.9458,-8.9612,-8.984,-9.0444,-9.0941,-9.1171,-9.1287,-9.1976,-9.255,-9.2518,-9.3803,-9.4789,-9.5258,-9.5842,-9.6125,-9.6203,-9.6551,-9.6783,-9.6822,-9.6822,-9.6822,-9.6822,-9.6822,-9.6783,-9.6783,-9.6493,-9.6178,-9.5879,-9.5161,-9.4599,-9.4286,-9.3677,-9.3261,-9.3638,-9.3153,-9.3015,-9.404,-9.4168,-9.3902,-9.328,-9.3593,-9.3594,-4.6168,-4.7949,-4.9667,-5.1278,-5.2738,-5.3736,-5.4976,-5.6155,0.0,0.0,0.0,-5.8087,-5.8487,-5.9036,-5.9852,-6.0477,-6.0785,-6.0785,-6.1239,-6.2074,-6.1393,-6.167,-6.2754,-6.3392,-6.3956,-6.4266,-6.5038,-6.5867,-6.6812,-6.7161,-6.8404,-7.0288,-7.165,-7.2937,-7.4262,-7.5263,-7.5358,-7.4559,-7.5369,-7.5953,-7.6221,-7.6207,-7.6203,-7.6199,-7.6722,-7.7024,-7.7328,-7.7873,-7.8241,-7.8394,-7.8492,-7.8941,-7.9719,-7.991,-8.0371,-8.1248,-8.2092,-8.2756,-8.3138,-8.3977,-8.4767,-8.5469,-8.6151,-8.6715,-8.7114,-8.7552,-8.7998,-8.8324,-8.8447,-8.8756,-8.9447,-8.895,-8.9187,-9.0723,-9.0263,-9.0261,-9.1059,-9.1364,-9.1479,-9.1518,-9.2434,-9.3012,-9.3092,-9.4497,-9.5477,-9.5445,-9.5958,-9.6241,-9.5623,-9.5971,-9.6551,-9.6744,-9.6628,-9.659,-9.6744,-9.6358,-9.6435,-9.6493,-9.5918,-9.5494,-9.5335,-9.4561,-9.3839,-9.3944,-9.3211,-9.3125,-9.3582,-9.3146,-9.2892,-9.3634,-9.3302,-9.3002,-9.3705,-9.4451,-9.4414,-4.7938,-5.0086,-5.0842,-5.2426,-5.4225,-5.3708,-5.4638,-5.6497,-5.7183,-5.7369,-5.7115,-5.8082,-5.8701,-5.9004,-5.9338,-5.9903,-6.0785,-6.0785,-6.1588,-6.3095,-6.2558,-6.3129,-6.4647,-6.4454,-6.4608,-6.5138,-6.5359,-6.5834,-6.6728,-6.7195,-6.8118,-6.9547,-7.1329,-7.3294,-7.5156,-7.5621,-7.5829,-7.5747,-7.5917,-7.5971,-7.602,-7.59,-7.5824,-7.5939,-7.6417,-7.7115,-7.8163,-7.8598,-7.9245,-8.0148,-8.0328,-8.0608,-8.1194,-8.1881,-8.2565,-8.3188,-8.4019,-8.4506,-8.4613,-8.5372,-8.6464,-8.7895,-8.8198,-8.8331,-8.8516,-8.8492,-8.888,-8.9882,-8.992,-9.0035,-9.036,-9.0332,-9.0375,-9.08,-9.0838,-9.0949,-9.1248,-9.1825,-9.2287,-9.2326,-9.371,-9.4593,-9.4631,-9.5542,-9.5991,-9.5522,-9.5386,-9.5352,-9.481,-9.512,-9.5971,-9.6512,-9.6164,-9.6048,-9.6512,-9.5506,-9.5332,-9.5713,-9.5235,-9.4777,-9.497,-9.462,-9.4379,-9.4666,-9.3872,-9.3554,-9.369,-9.3092,-9.2958,-9.3543,-9.3522,-9.3571,-9.3767,-9.4009,-9.4018,-4.8208,-5.0417,-5.1508,-5.3039,-5.4849,-5.5343,-5.6155,-5.7121,-5.7839,-5.7993,-5.7955,-5.8956,-5.9548,-5.9794,-6.0806,-6.131,-6.1368,-6.197,-6.2353,-6.2672,-6.2615,-6.3308,-6.4407,-6.4321,-6.4608,-6.5392,-6.5425,-6.5922,-6.6946,-6.7407,-6.8172,-6.9558,-7.155,-7.3333,-7.4798,-7.5512,-7.5832,-7.6003,-7.6076,-7.6154,-7.6154,-7.6093,-7.6176,-7.6412,-7.733,-7.8185,-7.8879,-7.9924,-8.0687,-8.1116,-8.1288,-8.1706,-8.2406,-8.2874,-8.3671,-8.4863,-8.5356,-8.5772,-8.6227,-8.6606,-8.7326,-8.8463,-8.8615,-8.8853,-8.9412,-8.945,-8.9741,-9.0345,-9.0383,-9.0465,-9.0593,-9.0638,-9.0759,-9.0877,-9.0953,-9.1256,-9.179,-9.221,-9.2633,-9.3172,-9.421,-9.498,-9.498,-9.5854,-9.6116,-9.5307,-9.4628,-9.4055,-9.4114,-9.4153,-9.4617,-9.5739,-9.5777,-9.5932,-9.6551,-9.6232,-9.593,-9.6359,-9.5359,-9.4712,-9.4698,-9.4206,-9.3609,-9.3562,-9.3248,-9.3086,-9.3114,-9.2819,-9.2756,-9.2912,-9.312,-9.3249,-9.364,-9.3845,-9.3739,-4.8153,-5.0171,-5.1595,-5.3324,-5.5084,-5.6524,-5.7245,-5.7684,-5.8058,-5.8427,-5.8796,-5.9649,-6.0243,-6.0522,-6.1989,-6.2307,-6.1951,-6.2679,-6.2802,-6.2534,-6.2802,-6.3429,-6.4266,-6.4299,-6.4685,-6.5359,-6.5425,-6.6009,-6.7029,-6.7488,-6.8431,-6.9985,-7.1801,-7.3368,-7.4366,-7.5332,-7.5868,-7.6072,-7.6208,-7.6275,-7.6275,-7.6275,-7.6518,-7.7,-7.821,-7.9172,-7.9891,-8.1222,-8.2072,-8.231,-8.2508,-8.2906,-8.3521,-8.3692,-8.4353,-8.5697,-8.6,-8.6568,-8.7554,-8.7668,-8.8009,-8.8805,-8.888,-8.9194,-8.9906,-9.0159,-9.0327,-9.065,-9.0852,-9.0856,-9.0861,-9.0794,-9.0799,-9.0915,-9.1183,-9.1677,-9.2364,-9.2826,-9.3249,-9.398,-9.4749,-9.5249,-9.5209,-9.5665,-9.5619,-9.4569,-9.3547,-9.3205,-9.3495,-9.3186,-9.365,-9.4491,-9.4955,-9.5216,-9.6067,-9.5775,-9.57,-9.6111,-9.4984,-9.4154,-9.3917,-9.3087,-9.2561,-9.2561,-9.2557,-9.2578,-9.2529,-9.2514,-9.2522,-9.26,-9.2652,-9.2814,-9.3283,-9.3449,-9.3384,-4.8011,-4.9314,-5.111,-5.3114,-5.5132,-5.5781,-5.6683,-5.784,-5.8119,-5.8518,-5.8978,-5.974,-6.0243,-6.0489,-6.1536,-6.1919,-6.1854,-6.2158,-6.2697,-6.3457,-6.3791,-6.4332,-6.5171,-6.5204,-6.5359,-6.5425,-6.5392,-6.6009,-6.7112,-6.7407,-6.8596,-7.0837,-7.2193,-7.3402,-7.4506,-7.5402,-7.5901,-7.6275,-7.6275,-7.6275,-7.6275,-7.6275,-7.6637,-7.743,-7.819,-7.9449,-8.1259,-8.209,-8.3111,-8.4276,-8.4362,-8.4533,-8.4741,-8.4741,-8.4863,-8.509,-8.5772,-8.6796,-8.8274,-8.8501,-8.8842,-8.9601,-8.9638,-8.9725,-8.9982,-9.0159,-9.0593,-9.1254,-9.1528,-9.1501,-9.1663,-9.1179,-9.0915,-9.1069,-9.1756,-9.2402,-9.271,-9.3864,-9.4788,-9.4826,-9.5595,-9.5903,-9.5249,-9.5245,-9.4728,-9.3669,-9.3338,-9.2886,-9.2489,-9.276,-9.2982,-9.3308,-9.3362,-9.3762,-9.4421,-9.3386,-9.3558,-9.3863,-9.3143,-9.283,-9.2877,-9.2767,-9.2405,-9.2468,-9.249,-9.251,-9.2507,-9.2482,-9.2482,-9.2482,-9.2528,-9.2567,-9.2645,-9.2724,-9.2663,-4.8126,-4.935,-5.0714,-5.2852,-5.522,-5.5811,-5.6653,-5.784,-5.8119,-5.8578,-5.9248,-5.989,-6.0618,-6.1219,-6.2113,-6.2437,-6.2469,-6.3166,-6.3447,-6.3686,-6.4351,-6.4893,-6.5392,-6.5425,-6.5425,-6.5425,-6.5603,-6.6182,-6.7243,-6.8362,-6.9691,-7.1232,-7.2264,-7.3402,-7.4575,-7.5402,-7.6007,-7.6275,-7.6275,-7.6529,-7.6927,-7.7,-7.7534,-7.8462,-7.9526,-8.0542,-8.1747,-8.2725,-8.3697,-8.4393,-8.4568,-8.4805,-8.5345,-8.5527,-8.6029,-8.6928,-8.7809,-8.8577,-8.9259,-8.9335,-8.9449,-8.979,-8.979,-8.9839,-8.9925,-9.0532,-9.1164,-9.1438,-9.1222,-9.1047,-9.1135,-9.1029,-9.1145,-9.1644,-9.2215,-9.2864,-9.3941,-9.4557,-9.5172,-9.5672,-9.6095,-9.6211,-9.5788,-9.536,-9.4887,-9.4248,-9.3956,-9.3282,-9.2644,-9.2827,-9.2805,-9.2444,-9.2416,-9.3085,-9.3968,-9.4063,-9.3783,-9.3921,-9.3531,-9.3055,-9.3025,-9.2664,-9.2419,-9.2479,-9.249,-9.251,-9.2514,-9.2482,-9.2482,-9.2482,-9.2482,-9.2482,-9.2482,-9.2482,-9.2541,-4.7643,-4.9001,-5.0456,-5.2688,-5.5184,-5.5842,-5.6778,-5.7808,-5.8119,-5.8578,-5.9126,-5.9788,-6.0489,-6.1504,-6.2469,-6.2987,-6.3339,-6.4072,-6.4224,-6.4105,-6.4836,-6.5246,-6.5425,-6.5425,-6.5425,-6.5514,-6.5692,-6.644,-6.765,-6.9122,-7.0381,-7.1375,-7.2371,-7.3402,-7.4575,-7.5402,-7.5971,-7.6311,-7.6492,-7.7,-7.7724,-7.805,-7.855,-7.9403,-8.0544,-8.1452,-8.2097,-8.3172,-8.3982,-8.4368,-8.4481,-8.4907,-8.57,-8.5971,-8.6824,-8.8279,-8.9097,-8.9563,-8.9752,-8.979,-8.979,-8.979,-8.979,-8.9828,-9.0001,-9.0637,-9.1119,-9.1171,-9.0847,-9.0711,-9.1064,-9.1182,-9.1567,-9.2257,-9.2715,-9.371,-9.4788,-9.5172,-9.5634,-9.6172,-9.6249,-9.6172,-9.5865,-9.5206,-9.4656,-9.4685,-9.4326,-9.3948,-9.3466,-9.3358,-9.3114,-9.238,-9.2371,-9.2765,-9.3613,-9.3664,-9.4018,-9.3959,-9.3389,-9.311,-9.3312,-9.2703,-9.2419,-9.2479,-9.249,-9.251,-9.2514,-9.2482,-9.2482,-9.2482,-9.2482,-9.2482,-9.2482,-9.2482,-9.2411,-4.6404,-4.7791,-5.0237,-5.2672,-5.4791,-5.5468,-5.659,-5.7871,-5.8026,-5.8303,-5.8701,-5.8946,-5.9601,-6.0644,-6.2151,-6.3339,-6.417,-6.4453,-6.4761,-6.5,-6.5246,-6.5425,-6.5425,-6.5425,-6.5481,-6.5692,-6.578,-6.6576,-6.7935,-6.9305,-7.0381,-7.141,-7.2406,-7.3438,-7.4542,-7.5438,-7.5971,-7.6353,-7.7036,-7.7796,-7.8629,-7.9354,-7.9716,-7.9965,-8.0575,-8.146,-8.2462,-8.3358,-8.4035,-8.4481,-8.4616,-8.5091,-8.5809,-8.6095,-8.7023,-8.8426,-8.8691,-8.9032,-8.9676,-8.979,-8.979,-8.979,-8.9866,-8.9877,-9.0087,-9.0342,-9.0555,-9.0498,-9.0623,-9.0941,-9.1638,-9.1873,-9.2105,-9.2449,-9.3866,-9.4749,-9.5018,-9.5749,-9.6172,-9.6288,-9.6288,-9.6057,-9.5249,-9.4433,-9.4275,-9.427,-9.4106,-9.4087,-9.4201,-9.4181,-9.3877,-9.3449,-9.3154,-9.3024,-9.2482,-9.2871,-9.2827,-9.276,-9.2955,-9.2542,-9.244,-9.2391,-9.2444,-9.2468,-9.249,-9.252,-9.2507,-9.2482,-9.2482,-9.2482,-9.2482,-9.2482,-9.2482,-9.2482,-9.2411,-4.7851,-5.008,-5.1491,-5.3077,-5.4613,-5.5241,-5.618,-5.737,-5.7275,-5.784,-5.8701,-5.861,-5.9174,-6.0457,-6.1666,-6.2691,-6.3681,-6.4381,-6.4793,-6.5099,-6.5189,-6.5279,-6.5425,-6.5425,-6.5425,-6.5603,-6.5834,-6.6576,-6.7845,-6.9462,-7.0726,-7.1796,-7.294,-7.4119,-7.5048,-7.5584,-7.6153,-7.683,-7.7293,-7.805,-7.9136,-7.968,-8.0151,-8.0658,-8.1313,-8.1975,-8.2585,-8.3281,-8.3929,-8.4481,-8.4921,-8.5613,-8.663,-8.775,-8.8631,-8.9259,-8.9373,-8.9487,-8.9752,-8.979,-8.979,-8.9828,-9.0321,-9.0635,-9.0818,-9.0958,-9.1088,-9.1146,-9.0775,-9.0906,-9.1297,-9.1796,-9.2488,-9.3215,-9.4287,-9.5249,-9.5711,-9.6134,-9.6288,-9.6288,-9.6288,-9.6134,-9.5826,-9.5591,-9.5508,-9.5542,-9.5638,-9.5494,-9.5158,-9.5117,-9.4937,-9.4249,-9.3697,-9.3317,-9.3123,-9.3099,-9.3055,-9.2776,-9.262,-9.2674,-9.2664,-9.2458,-9.2444,-9.2479,-9.25,-9.249,-9.2514,-9.2482,-9.2482,-9.2482,-9.2482,-9.2482,-9.2482,-9.2482,-9.2365,-4.8924,-5.1222,-5.203,-5.3139,-5.4458,-5.5013,-5.5988,-5.6957,-5.67,-5.7275,-5.8243,-5.8119,-5.8649,-5.9772,-6.1187,-6.2172,-6.2939,-6.4152,-6.4976,-6.5189,-6.5189,-6.5246,-6.5425,-6.5425,-6.5425,-6.5603,-6.6182,-6.6912,-6.7879,-6.9471,-7.0815,-7.2038,-7.3221,-7.4404,-7.5371,-7.5727,-7.6264,-7.7086,-7.7691,-7.8484,-7.9501,-8.0114,-8.0549,-8.1091,-8.1751,-8.2307,-8.2585,-8.3281,-8.3929,-8.4494,-8.5172,-8.6128,-8.7499,-8.8835,-8.9642,-8.9779,-8.979,-8.979,-8.979,-8.979,-8.979,-8.9828,-9.0321,-9.0825,-9.1197,-9.1187,-9.1279,-9.1413,-9.1043,-9.0676,-9.1067,-9.1912,-9.2872,-9.3713,-9.4711,-9.5634,-9.6211,-9.6288,-9.6288,-9.6288,-9.6288,-9.6288,-9.6288,-9.6322,-9.632,-9.6429,-9.6597,-9.6413,-9.6134,-9.6049,-9.5903,-9.515,-9.4341,-9.3822,-9.3473,-9.3372,-9.311,-9.2776,-9.2674,-9.2767,-9.2717,-9.2497,-9.2417,-9.249,-9.251,-9.2498,-9.2514,-9.2522,-9.2482,-9.2482,-9.2482,-9.2482,-9.2482,-9.2482,-9.2404,-4.9322,-5.103,-5.1959,-5.3129,-5.4351,-5.5038,-5.6019,-5.6735,-5.6409,-5.67,-5.7464,-5.7495,-5.7746,-5.8683,-6.0693,-6.1854,-6.2334,-6.4021,-6.5066,-6.5246,-6.5336,-6.5336,-6.5425,-6.5425,-6.5581,-6.588,-6.6677,-6.7428,-6.828,-6.948,-7.0832,-7.218,-7.3106,-7.4257,-7.5478,-7.5728,-7.6336,-7.7266,-7.8092,-7.9028,-7.9897,-8.0549,-8.0875,-8.1055,-8.1678,-8.2307,-8.2585,-8.3395,-8.4035,-8.4506,-8.5348,-8.6568,-8.818,-8.9175,-8.9642,-8.9741,-8.979,-8.979,-8.9828,-8.9866,-8.9942,-8.9904,-8.9942,-9.0635,-9.1121,-9.0882,-9.0898,-9.1451,-9.1043,-9.0676,-9.1183,-9.2372,-9.3371,-9.3828,-9.5134,-9.6134,-9.6249,-9.6288,-9.6288,-9.6288,-9.6288,-9.6288,-9.6326,-9.6325,-9.6397,-9.6497,-9.6558,-9.6645,-9.6732,-9.6799,-9.6616,-9.5988,-9.5217,-9.46,-9.4038,-9.3471,-9.3094,-9.2752,-9.2728,-9.2742,-9.26,-9.2419,-9.2456,-9.249,-9.2481,-9.2507,-9.2514,-9.2482,-9.2482,-9.2482,-9.2482,-9.2482,-9.2482,-9.2482,-9.2482,-5.0954,-5.2654,-5.3378,-5.4006,-5.4649,-5.5249,-5.5766,-5.6017,-5.5651,-5.6017,-5.6796,-5.6603,-5.7043,-5.8371,-6.0044,-6.112,-6.182,-6.3473,-6.4485,-6.4852,-6.4943,-6.5066,-6.5336,-6.5425,-6.5836,-6.6623,-6.704,-6.7827,-6.9013,-7.0278,-7.1514,-7.25,-7.3663,-7.4535,-7.5369,-7.6159,-7.6983,-7.7775,-7.8418,-7.9028,-7.9573,-8.0042,-8.0223,-8.0221,-8.1349,-8.2307,-8.2585,-8.3358,-8.4035,-8.4518,-8.57,-8.7208,-8.8758,-8.9528,-8.9741,-8.979,-8.979,-8.979,-8.9866,-9.0321,-9.0396,-9.0283,-9.1344,-9.1811,-9.1501,-9.1681,-9.1735,-9.1718,-9.1043,-9.0867,-9.1796,-9.2718,-9.3486,-9.371,-9.5249,-9.6288,-9.6288,-9.6288,-9.6288,-9.6288,-9.6288,-9.6288,-9.6325,-9.6361,-9.6463,-9.6525,-9.6684,-9.6887,-9.6979,-9.7082,-9.7114,-9.6771,-9.6033,-9.5317,-9.4718,-9.4153,-9.37,-9.3321,-9.3156,-9.2937,-9.2717,-9.2432,-9.2468,-9.2461,-9.249,-9.2507,-9.2522,-9.2482,-9.2482,-9.2482,-9.2482,-9.2482,-9.2482,-9.2482,-9.2482,-5.1683,-5.3261,-5.3656,-5.4097,-5.4582,-5.491,-5.534,-5.5491,-5.528,-5.575,-5.6342,-5.6389,-5.6892,-5.8231,-5.9915,-6.0962,-6.1662,-6.3003,-6.3832,-6.4207,-6.461,-6.4885,-6.5189,-6.5634,-6.629,-6.7112,-6.759,-6.8398,-6.9561,-7.0786,-7.1884,-7.2878,-7.3885,-7.4871,-7.5751,-7.6517,-7.7272,-7.8063,-7.8492,-7.8883,-7.9173,-7.939,-7.9535,-7.9822,-8.0813,-8.1782,-8.2486,-8.3244,-8.3945,-8.4645,-8.6065,-8.7739,-8.93,-8.9642,-8.979,-8.979,-8.9828,-8.9942,-9.0283,-9.0775,-9.1128,-9.1128,-9.2266,-9.2771,-9.2091,-9.2299,-9.2002,-9.1724,-9.109,-9.1062,-9.2065,-9.2948,-9.3639,-9.4172,-9.5441,-9.6211,-9.6288,-9.6288,-9.6288,-9.6288,-9.6288,-9.6325,-9.6358,-9.6429,-9.6558,-9.6684,-9.6859,-9.7031,-9.7082,-9.7153,-9.7176,-9.7005,-9.6344,-9.5744,-9.5398,-9.4874,-9.4327,-9.399,-9.3726,-9.3429,-9.3171,-9.269,-9.249,-9.2481,-9.2514,-9.2514,-9.2482,-9.2482,-9.2482,-9.2482,-9.2482,-9.2482,-9.2482,-9.2482,-9.2482,-5.1768,-5.2923,-5.2995,-5.3598,-5.4318,-5.435,-5.484,-5.5659,-5.5381,-5.5551,-5.6138,-5.6555,-5.722,-5.835,-6.0063,-6.1082,-6.1529,-6.2555,-6.3164,-6.3452,-6.4114,-6.4669,-6.5041,-6.5874,-6.6666,-6.7346,-6.8249,-6.918,-7.0226,-7.1148,-7.2015,-7.3508,-7.4132,-7.4949,-7.6335,-7.691,-7.7452,-7.7919,-7.8492,-7.8847,-7.8702,-7.8847,-7.91,-7.9752,-8.0385,-8.1227,-8.226,-8.3127,-8.3876,-8.477,-8.6501,-8.8026,-8.9251,-8.9692,-8.979,-8.979,-8.9828,-9.0321,-9.0889,-9.1382,-9.1659,-9.2126,-9.2493,-9.244,-9.2451,-9.2184,-9.201,-9.1768,-9.1326,-9.1449,-9.2411,-9.3217,-9.41,-9.5018,-9.5826,-9.6249,-9.6288,-9.6288,-9.6288,-9.6288,-9.6288,-9.6361,-9.6497,-9.6492,-9.6684,-9.6859,-9.7006,-9.7082,-9.7153,-9.7199,-9.7199,-9.6927,-9.6538,-9.6327,-9.5999,-9.534,-9.4931,-9.5219,-9.4723,-9.4052,-9.3691,-9.3197,-9.2822,-9.2772,-9.2561,-9.2561,-9.2522,-9.2522,-9.2522,-9.2482,-9.2482,-9.2482,-9.2482,-9.2482,-9.2482,-5.2323,-5.3107,-5.3743,-5.4053,-5.4377,-5.4738,-5.51,-5.535,-5.528,-5.5381,-5.5601,-5.6375,-5.7152,-5.7973,-5.9649,-6.0702,-6.134,-6.2221,-6.2612,-6.2808,-6.3643,-6.4545,-6.5288,-6.6097,-6.6998,-6.7892,-6.8987,-7.0309,-7.1859,-7.2433,-7.3533,-7.497,-7.5277,-7.5609,-7.6151,-7.7804,-7.8027,-7.7631,-7.8853,-7.8955,-7.8195,-7.9028,-7.9354,-7.917,-8.0426,-8.1422,-8.2011,-8.2972,-8.4454,-8.6278,-8.6966,-8.8026,-8.93,-8.9642,-8.9741,-8.9767,-9.0347,-9.0813,-9.1268,-9.2216,-9.2759,-9.2493,-9.3441,-9.3403,-9.1719,-9.2699,-9.2611,-9.2182,-9.2126,-9.2945,-9.387,-9.4331,-9.4944,-9.5751,-9.6134,-9.6288,-9.6288,-9.6288,-9.6288,-9.6288,-9.6358,-9.6463,-9.6525,-9.6714,-9.6898,-9.7006,-9.7082,-9.7153,-9.7199,-9.7199,-9.7199,-9.7199,-9.6966,-9.6849,-9.6521,-9.5903,-9.5749,-9.6312,-9.582,-9.4739,-9.4354,-9.3899,-9.3642,-9.3482,-9.2944,-9.2795,-9.2639,-9.2522,-9.2522,-9.2482,-9.2482,-9.2482,-9.2482,-9.2482,-9.2482,-5.2709,-5.3328,-5.3948,-5.42,-5.4304,-5.4875,-5.5078,-5.5179,-5.528,-5.5481,-5.5792,-5.6707,-5.7516,-5.8247,-5.9849,-6.0905,-6.1481,-6.2116,-6.2513,-6.2969,-6.4156,-6.5128,-6.594,-6.6883,-6.7862,-6.866,-6.9783,-7.1266,-7.2662,-7.3376,-7.4481,-7.5805,-7.6152,-7.6534,-7.739,-7.8373,-7.889,-7.8315,-7.9214,-7.9245,-7.8231,-7.8883,-7.9318,-7.9281,-8.0397,-8.1219,-8.2406,-8.3492,-8.5017,-8.6594,-8.7209,-8.7877,-8.93,-8.9629,-8.9729,-8.9717,-9.0574,-9.123,-9.1761,-9.286,-9.3517,-9.3555,-9.4427,-9.3909,-9.2993,-9.3431,-9.3373,-9.2656,-9.3013,-9.3791,-9.46,-9.5137,-9.5675,-9.6172,-9.6288,-9.6288,-9.6288,-9.6288,-9.6288,-9.6325,-9.6394,-9.6525,-9.659,-9.6831,-9.7006,-9.7043,-9.7153,-9.7176,-9.7199,-9.7199,-9.7199,-9.7199,-9.7121,-9.6927,-9.6344,-9.5688,-9.5515,-9.6195,-9.6631,-9.5587,-9.5122,-9.4691,-9.451,-9.4193,-9.349,-9.3068,-9.3029,-9.2873,-9.2522,-9.2482,-9.2482,-9.2482,-9.2482,-9.2482,-9.2482,-5.3087,-5.3521,-5.3873,-5.4097,-5.4436,-5.4671,-5.5006,-5.531,-5.5501,-5.5862,-5.6334,-5.7497,-5.8278,-5.8978,-6.0454,-6.1379,-6.1613,-6.2273,-6.3094,-6.3902,-6.5118,-6.6226,-6.6891,-6.8002,-6.8718,-6.9386,-7.0636,-7.1931,-7.3126,-7.3791,-7.5102,-7.6466,-7.6642,-7.7379,-7.839,-7.9236,-7.9393,-7.9107,-7.9612,-7.9537,-7.8883,-7.8994,-7.9428,-7.9788,-8.0402,-8.1579,-8.3014,-8.4198,-8.5377,-8.6906,-8.692,-8.7814,-8.9276,-8.9541,-8.9642,-8.9881,-9.0612,-9.1496,-9.2292,-9.3163,-9.4086,-9.4592,-9.4693,-9.4566,-9.4087,-9.4096,-9.3999,-9.3434,-9.3558,-9.4253,-9.4945,-9.5789,-9.6134,-9.6288,-9.6288,-9.6288,-9.6288,-9.6288,-9.6288,-9.6325,-9.6463,-9.659,-9.6706,-9.6887,-9.7043,-9.713,-9.7176,-9.7199,-9.7199,-9.7199,-9.7199,-9.7199,-9.7082,-9.6927,-9.6189,-9.5373,-9.5418,-9.5709,-9.6585,-9.633,-9.59,-9.5543,-9.5378,-9.4973,-9.4395,-9.4044,-9.3927,-9.3537,-9.2951,-9.2639,-9.2756,-9.2639,-9.2482,-9.2482,-9.2482,-5.3107,-5.3844,-5.4126,-5.4436,-5.4671,-5.5006,-5.531,-5.5541,-5.5921,-5.6304,-5.7041,-5.8164,-5.8887,-5.9389,-6.0772,-6.1582,-6.1777,-6.272,-6.402,-6.5546,-6.6252,-6.7279,-6.8109,-6.8825,-6.9077,-6.9687,-7.1277,-7.2678,-7.3685,-7.4748,-7.6104,-7.7406,-7.7846,-7.8154,-7.8461,-7.9553,-7.9573,-7.8854,-7.9793,-7.9936,-7.9284,-7.9792,-8.0153,-8.0223,-8.1271,-8.2381,-8.3177,-8.3903,-8.5157,-8.6612,-8.7088,-8.7599,-8.8956,-8.9489,-8.9541,-8.9767,-9.0714,-9.1685,-9.2405,-9.3542,-9.4566,-9.4769,-9.4807,-9.4554,-9.4019,-9.4582,-9.4655,-9.4505,-9.4901,-9.5367,-9.579,-9.6097,-9.6288,-9.6288,-9.6288,-9.6288,-9.6288,-9.6288,-9.6325,-9.6463,-9.659,-9.6744,-9.6887,-9.7018,-9.7153,-9.7199,-9.7199,-9.7199,-9.7199,-9.7199,-9.7199,-9.7199,-9.716,-9.7005,-9.6577,-9.5822,-9.5496,-9.5629,-9.6312,-9.7031,-9.6586,-9.6422,-9.6215,-9.5832,-9.5332,-9.5059,-9.4825,-9.4161,-9.3576,-9.3302,-9.299,-9.2756,-9.26,-9.2561,-9.2482,-5.3184,-5.389,-5.42,-5.4716,-5.5159,-5.5227,-5.5561,-5.6063,-5.6395,-5.6779,-5.7455,-5.8685,-5.9471,-5.9737,-6.0967,-6.1582,-6.1947,-6.3059,-6.4513,-6.5896,-6.6762,-6.773,-6.8672,-6.941,-6.9762,-7.0055,-7.1604,-7.3006,-7.415,-7.5352,-7.6625,-7.8082,-7.849,-7.8776,-7.8938,-7.9916,-7.9927,-7.9609,-8.0079,-8.0334,-8.0116,-8.037,-8.1093,-8.1343,-8.2572,-8.3618,-8.4327,-8.4579,-8.5794,-8.6959,-8.7079,-8.7442,-8.8888,-8.9386,-8.9475,-8.9729,-9.0588,-9.1647,-9.2443,-9.3429,-9.4376,-9.4755,-9.4793,-9.4668,-9.4551,-9.4953,-9.5151,-9.5274,-9.5593,-9.5981,-9.6251,-9.6288,-9.6288,-9.6288,-9.6288,-9.6288,-9.6288,-9.6288,-9.6361,-9.6459,-9.6622,-9.6803,-9.6941,-9.713,-9.7215,-9.7276,-9.7199,-9.7199,-9.7199,-9.7199,-9.7199,-9.7199,-9.7199,-9.7082,-9.6888,-9.6348,-9.5671,-9.5763,-9.6132,-9.6875,-9.7114,-9.7056,-9.7042,-9.6613,-9.6191,-9.5918,-9.5606,-9.4903,-9.4239,-9.3732,-9.3341,-9.2951,-9.2678,-9.2561,-9.2482,-5.3271,-5.4023,-5.4318,-5.4953,-5.5559,-5.5317,-5.5741,-5.6617,-5.6971,-5.7385,-5.8032,-5.9338,-5.9952,-6.0188,-6.113,-6.1613,-6.2504,-6.3709,-6.5408,-6.6377,-6.74,-6.8307,-6.9124,-6.987,-7.0549,-7.0901,-7.2056,-7.313,-7.4274,-7.5475,-7.6816,-7.8266,-7.8574,-7.8952,-7.9708,-8.0054,-8.0211,-8.0254,-8.029,-8.062,-8.0804,-8.0876,-8.1274,-8.2358,-8.3624,-8.4564,-8.5165,-8.5503,-8.6226,-8.7812,-8.7042,-8.7619,-8.8722,-8.9243,-8.9438,-8.9629,-9.0714,-9.1647,-9.2367,-9.3277,-9.4187,-9.4755,-9.4844,-9.4946,-9.5143,-9.5201,-9.5394,-9.5696,-9.5941,-9.6098,-9.6251,-9.6288,-9.6288,-9.6288,-9.6288,-9.6326,-9.6442,-9.6517,-9.6625,-9.6525,-9.6714,-9.6887,-9.6993,-9.7153,-9.7254,-9.7315,-9.7276,-9.7276,-9.7315,-9.7238,-9.7238,-9.7199,-9.7199,-9.681,-9.6577,-9.6483,-9.5846,-9.5958,-9.6171,-9.6707,-9.7338,-9.7407,-9.7347,-9.7355,-9.705,-9.6738,-9.6347,-9.5801,-9.5098,-9.4317,-9.3654,-9.3263,-9.2912,-9.2561,-9.2482,-5.3965,-5.4259,-5.4923,-5.5234,-5.5287,-5.5239,-5.5902,-5.691,-5.7384,-5.8237,-5.9399,-6.0034,-6.0371,-6.0774,-6.1286,-6.2399,-6.3832,-6.535,-6.6606,-6.7385,-6.822,-6.8898,-6.981,-7.033,-7.1069,-7.1874,-7.2519,-7.3232,-7.4343,-7.5172,-7.6798,-7.8182,-7.8574,-7.9069,-7.9743,-8.0054,-8.0207,-8.0283,-8.0283,-8.0433,-8.073,-8.0948,-8.1527,-8.2792,-8.4348,-8.5215,-8.5422,-8.5614,-8.6301,-8.77,-8.7004,-8.7602,-8.8759,-8.922,-8.94,-8.9932,-9.113,-9.2102,-9.2557,-9.3694,-9.4452,-9.4844,-9.4895,-9.4996,-9.5143,-9.5286,-9.5516,-9.5818,-9.6098,-9.6251,-9.6288,-9.6288,-9.6326,-9.6326,-9.6326,-9.6596,-9.7133,-9.7318,-9.7264,-9.7078,-9.7064,-9.7006,-9.7145,-9.7347,-9.7642,-9.7704,-9.7665,-9.7781,-9.7976,-9.7665,-9.7315,-9.7276,-9.7199,-9.6694,-9.615,-9.6111,-9.5882,-9.6117,-9.6359,-9.6628,-9.716,-9.7466,-9.7572,-9.7355,-9.744,-9.7362,-9.6972,-9.6582,-9.5957,-9.5137,-9.4356,-9.3576,-9.3146,-9.2756,-9.2522,-5.4565,-5.5335,-5.5411,-5.5857,-5.6239,-5.5939,-5.6455,-5.7659,-5.8195,-5.8857,-5.9696,-6.0352,-6.0794,-6.1196,-6.2222,-6.373,-6.5417,-6.6383,-6.748,-6.8163,-6.8644,-6.929,-7.0209,-7.079,-7.1438,-7.2211,-7.2732,-7.3674,-7.5001,-7.5754,-7.6918,-7.8182,-7.8574,-7.8987,-7.9743,-7.9977,-8.013,-8.013,-8.013,-8.0358,-8.1021,-8.1346,-8.2467,-8.3844,-8.4819,-8.5573,-8.5876,-8.5918,-8.6462,-8.7347,-8.7248,-8.7957,-8.8979,-8.9853,-9.0132,-9.0499,-9.1635,-9.2557,-9.2898,-9.3846,-9.4262,-9.4755,-9.4946,-9.5045,-9.5191,-9.5333,-9.5598,-9.5898,-9.6136,-9.6288,-9.6288,-9.6365,-9.6519,-9.6749,-9.6634,-9.698,-9.7747,-9.7958,-9.7936,-9.7943,-9.8359,-9.8156,-9.727,-9.7587,-9.8015,-9.8131,-9.8053,-9.8248,-9.852,-9.8015,-9.7471,-9.7276,-9.7199,-9.6966,-9.6422,-9.6249,-9.6271,-9.6449,-9.6537,-9.6834,-9.7109,-9.7505,-9.726,-9.6925,-9.7167,-9.7518,-9.7558,-9.7128,-9.6503,-9.5879,-9.5059,-9.4239,-9.3458,-9.2951,-9.2639,-5.4914,-5.5837,-5.5916,-5.6392,-5.6955,-5.6449,-5.7009,-5.8319,-5.8754,-5.9356,-6.0055,-6.065,-6.1093,-6.1814,-6.3356,-6.522,-6.6962,-6.7188,-6.8031,-6.8512,-6.9031,-6.9583,-7.0303,-7.1252,-7.2001,-7.2708,-7.3274,-7.432,-7.5322,-7.6051,-7.7179,-7.8082,-7.849,-7.8987,-7.9586,-7.9822,-7.9977,-8.009,-8.0054,-8.0358,-8.1201,-8.2391,-8.3654,-8.5005,-8.5544,-8.604,-8.6384,-8.6287,-8.6708,-8.7347,-8.766,-8.8166,-8.9664,-9.0801,-9.1331,-9.1571,-9.2317,-9.305,-9.3391,-9.3846,-9.4414,-9.5096,-9.5212,-9.5399,-9.5467,-9.5654,-9.5724,-9.6092,-9.6405,-9.6788,-9.698,-9.6865,-9.7173,-9.7442,-9.7365,-9.7325,-9.8474,-9.9034,-9.9151,-9.9348,-9.977,-9.941,-9.8536,-9.8364,-9.8908,-9.8947,-9.8908,-9.8675,-9.8792,-9.8131,-9.7587,-9.7315,-9.7199,-9.7199,-9.6888,-9.6599,-9.674,-9.7012,-9.6927,-9.6989,-9.7292,-9.7583,-9.7182,-9.673,-9.6855,-9.7167,-9.7401,-9.7518,-9.6972,-9.6308,-9.5606,-9.4786,-9.381,-9.3029,-9.26,-5.5012,-5.4628,-5.6034,-5.6302,-5.5932,-5.6089,-5.707,-5.842,-5.8918,-5.9631,-6.0578,-6.1,-6.1547,-6.2746,-6.5071,-6.6452,-6.7388,-6.8489,-6.9041,-6.9163,-6.9556,-7.017,-7.0623,-7.1472,-7.265,-7.3434,-7.4034,-7.4684,-7.5436,-7.5732,-7.6548,-7.784,-7.849,-7.8941,-7.9649,-7.9921,-7.9899,-8.0012,-8.0166,-8.0508,-8.1382,-8.3074,-8.4085,-8.4813,-8.5866,-8.6664,-8.6759,-8.6524,-8.6814,-8.7613,-8.7674,-8.8485,-9.0093,-9.1378,-9.2404,-9.3226,-9.3934,-9.4276,-9.3883,-9.43,-9.4945,-9.5679,-9.6097,-9.6284,-9.6362,-9.6254,-9.6434,-9.7172,-9.7289,-9.7596,-9.8057,-9.8327,-9.8519,-9.8481,-9.8365,-9.8862,-9.9779,-9.9796,-9.9947,-10.0518,-10.0897,-10.0521,-9.9879,-9.984,-9.984,-9.9802,-9.9724,-9.9452,-9.9063,-9.8442,-9.817,-9.7976,-9.7393,-9.7276,-9.7415,-9.7126,-9.7032,-9.7381,-9.7316,-9.7169,-9.7409,-9.7505,-9.7056,-9.6761,-9.6769,-9.6464,-9.6308,-9.6464,-9.6855,-9.6425,-9.5371,-9.463,-9.3966,-9.3263,-9.2522,-5.507,-5.5453,-5.6184,-5.6359,-5.6315,-5.6642,-5.7474,-5.8543,-5.9314,-5.9997,-6.0763,-6.1103,-6.2277,-6.4266,-6.6225,-6.7522,-6.8492,-6.9405,-6.9993,-6.9955,-7.0309,-7.0831,-7.1908,-7.2405,-7.3223,-7.4145,-7.4975,-7.5569,-7.5982,-7.6222,-7.6878,-7.8047,-7.856,-7.9305,-8.0004,-8.0463,-8.0577,-8.0626,-8.0721,-8.1093,-8.2104,-8.3435,-8.4589,-8.4995,-8.6339,-8.6733,-8.6648,-8.6795,-8.7156,-8.7984,-8.8302,-8.9227,-9.0775,-9.1956,-9.2927,-9.3207,-9.4211,-9.4528,-9.4414,-9.5096,-9.5665,-9.6172,-9.6755,-9.7267,-9.7379,-9.7418,-9.7437,-9.8018,-9.8173,-9.8481,-9.875,-9.8788,-9.9135,-9.925,-9.925,-9.9938,-10.0466,-10.0479,-10.0635,-10.1321,-10.1841,-10.1386,-10.0967,-10.0773,-10.0617,-10.054,-10.0462,-10.0268,-9.9724,-9.9025,-9.8869,-9.8908,-9.8131,-9.7415,-9.7631,-9.7613,-9.7207,-9.7398,-9.7449,-9.7394,-9.7499,-9.7387,-9.6939,-9.6527,-9.6301,-9.5918,-9.5332,-9.5488,-9.5996,-9.5567,-9.4981,-9.4395,-9.381,-9.3146,-9.2561,-5.5137,-5.609,-5.6318,-5.6594,-5.6809,-5.7182,-5.7989,-5.8991,-5.9679,-6.0302,-6.0855,-6.1525,-6.3331,-6.5479,-6.6743,-6.8071,-6.9699,-6.9798,-7.0453,-7.0842,-7.1037,-7.162,-7.2606,-7.3238,-7.3865,-7.4627,-7.5544,-7.6105,-7.6553,-7.7181,-7.7909,-7.8476,-7.9122,-7.9764,-8.0652,-8.1141,-8.137,-8.1287,-8.1345,-8.1815,-8.2713,-8.3861,-8.484,-8.561,-8.6375,-8.6875,-8.6568,-8.6728,-8.7497,-8.843,-8.8915,-8.9808,-9.1409,-9.2335,-9.3087,-9.3536,-9.4356,-9.4651,-9.4893,-9.5437,-9.6082,-9.6627,-9.7325,-9.8192,-9.8522,-9.8657,-9.8782,-9.8941,-9.9096,-9.9211,-9.9404,-9.9519,-9.9827,-10.0058,-9.9981,-10.0632,-10.1234,-10.1246,-10.1313,-10.1712,-10.2124,-10.2187,-10.1822,-10.155,-10.1394,-10.1317,-10.1161,-10.1006,-10.0345,-9.9569,-9.9491,-9.9491,-9.8636,-9.7881,-9.7963,-9.8004,-9.7635,-9.7377,-9.7481,-9.7525,-9.7589,-9.7348,-9.6948,-9.6488,-9.5918,-9.4981,-9.42,-9.463,-9.5098,-9.4981,-9.4747,-9.42,-9.3615,-9.2951,-9.26,-5.5115,-5.5842,-5.6691,-5.6882,-5.6666,-5.7618,-5.8549,-5.9276,-5.9757,-6.0333,-6.1186,-6.2543,-6.4278,-6.5966,-6.736,-6.8591,-6.9831,-6.9798,-7.0619,-7.1304,-7.1593,-7.225,-7.3272,-7.4033,-7.4525,-7.489,-7.5714,-7.63,-7.6942,-7.8197,-7.8432,-7.8258,-7.9718,-8.0351,-8.1012,-8.1818,-8.2141,-8.213,-8.2143,-8.2497,-8.3212,-8.4107,-8.4976,-8.5783,-8.6518,-8.6958,-8.699,-8.7068,-8.7715,-8.884,-8.9303,-9.0414,-9.2081,-9.2608,-9.3313,-9.4293,-9.4346,-9.4735,-9.5272,-9.5892,-9.6537,-9.7272,-9.82,-9.9126,-9.9534,-9.8929,-9.9092,-9.9904,-10.0135,-10.0442,-10.0827,-10.1135,-10.1058,-10.1019,-10.1019,-10.1203,-10.1765,-10.209,-10.2155,-10.2254,-10.2366,-10.2521,-10.2288,-10.1938,-10.1861,-10.1783,-10.155,-10.1356,-10.0773,-10.0112,-10.0035,-9.9802,-9.8986,-9.8464,-9.8451,-9.8199,-9.7575,-9.7449,-9.7511,-9.7552,-9.7589,-9.727,-9.7073,-9.6027,-9.5293,-9.4161,-9.3341,-9.3849,-9.4317,-9.4669,-9.4512,-9.3732,-9.3341,-9.2873,-9.2678,-5.608,-5.6661,-5.7453,-5.7333,-5.6696,-5.7678,-5.8535,-5.9387,-5.9818,-6.0788,-6.2063,-6.3531,-6.5124,-6.6647,-6.7877,-6.9178,-7.0361,-7.0461,-7.1479,-7.23,-7.2725,-7.3346,-7.4141,-7.46,-7.483,-7.5296,-7.6011,-7.6427,-7.669,-7.8514,-7.9112,-7.9527,-8.0725,-8.1638,-8.2262,-8.2763,-8.3163,-8.3224,-8.294,-8.2931,-8.3966,-8.4321,-8.4976,-8.5783,-8.6591,-8.6958,-8.7068,-8.7509,-8.8378,-8.9277,-8.9995,-9.1371,-9.2811,-9.3127,-9.392,-9.5138,-9.4877,-9.5118,-9.6014,-9.6688,-9.7461,-9.8846,-9.9618,-10.0013,-10.0344,-10.0118,-10.0282,-10.0825,-10.1289,-10.1635,-10.1904,-10.2058,-10.2058,-10.2136,-10.2134,-10.216,-10.2296,-10.2655,-10.2716,-10.2667,-10.2769,-10.2948,-10.2638,-10.2249,-10.2249,-10.221,-10.1938,-10.1627,-10.1161,-10.0812,-10.0773,-10.0485,-9.9708,-9.9189,-9.9113,-9.8393,-9.7494,-9.7481,-9.7525,-9.7565,-9.76,-9.7602,-9.7199,-9.5996,-9.4942,-9.4161,-9.3615,-9.338,-9.3458,-9.3693,-9.3537,-9.3068,-9.2795,-9.2912,-9.3068,-5.6928,-5.7453,-5.8038,-5.7813,-5.7256,-5.8038,-5.8836,-5.9557,-5.9984,-6.1089,-6.2879,-6.4345,-6.574,-6.72,-6.8529,-6.9666,-7.0659,-7.1253,-7.2408,-7.3098,-7.3524,-7.4248,-7.5006,-7.5337,-7.5236,-7.5737,-7.6216,-7.6529,-7.7274,-7.8499,-7.9721,-8.0725,-8.1603,-8.2618,-8.3137,-8.3932,-8.4325,-8.4316,-8.4028,-8.38,-8.4872,-8.5013,-8.538,-8.6114,-8.6775,-8.6958,-8.7105,-8.7472,-8.8382,-8.9504,-9.0526,-9.1912,-9.3144,-9.4077,-9.4659,-9.5269,-9.5778,-9.5762,-9.6739,-9.7712,-9.8386,-9.9708,-10.0113,-10.0481,-10.0831,-10.0962,-10.0934,-10.125,-10.1981,-10.2635,-10.2674,-10.2751,-10.2943,-10.3021,-10.3135,-10.316,-10.3134,-10.3336,-10.312,-10.3002,-10.3002,-10.2832,-10.2676,-10.2288,-10.2288,-10.2288,-10.2171,-10.2016,-10.1899,-10.1666,-10.1627,-10.1223,-10.0646,-10.0203,-9.9794,-9.8857,-9.7939,-9.7481,-9.7525,-9.7565,-9.7611,-9.765,-9.7323,-9.623,-9.5254,-9.4395,-9.3771,-9.3302,-9.2912,-9.2639,-9.2756,-9.3107,-9.3732,-9.3927,-9.3927,-5.7513,-5.8082,-5.849,-5.8354,-5.8188,-5.877,-5.9392,-6.0,-6.0438,-6.1629,-6.3437,-6.502,-6.6354,-6.7557,-6.9085,-7.0295,-7.1154,-7.1978,-7.2938,-7.3797,-7.4157,-7.4849,-7.531,-7.5608,-7.554,-7.5737,-7.625,-7.7079,-7.812,-7.9077,-8.045,-8.2015,-8.2856,-8.3351,-8.3584,-8.455,-8.5062,-8.4972,-8.4973,-8.5365,-8.5788,-8.5857,-8.6224,-8.6848,-8.6958,-8.7031,-8.7105,-8.7545,-8.8492,-8.9583,-9.0494,-9.1993,-9.3789,-9.4251,-9.4962,-9.603,-9.623,-9.6417,-9.6894,-9.7928,-9.9069,-9.9974,-10.0227,-10.051,-10.0831,-10.1043,-10.1085,-10.1326,-10.2212,-10.2674,-10.2943,-10.3366,-10.3674,-10.3945,-10.4057,-10.404,-10.3971,-10.4228,-10.4092,-10.3391,-10.273,-10.2366,-10.2366,-10.2288,-10.2288,-10.2288,-10.2288,-10.2288,-10.2288,-10.221,-10.2117,-10.1773,-10.1232,-10.0806,-10.0219,-9.9246,-9.8423,-9.7886,-9.7564,-9.7565,-9.76,-9.7632,-9.7104,-9.634,-9.5527,-9.463,-9.3849,-9.3146,-9.3146,-9.3224,-9.338,-9.3771,-9.4473,-9.4864,-9.4747,-5.856,-5.877,-5.9121,-5.9091,-5.9121,-5.9546,-5.9773,-6.0289,-6.1702,-6.3406,-6.4996,-6.6613,-6.7688,-6.8699,-6.981,-7.0924,-7.1751,-7.2677,-7.3703,-7.45,-7.4825,-7.5152,-7.5546,-7.5676,-7.5676,-7.5899,-7.6343,-7.7274,-7.8314,-7.939,-8.0866,-8.2346,-8.365,-8.4263,-8.4461,-8.5067,-8.5314,-8.5662,-8.5956,-8.6354,-8.7146,-8.6958,-8.6995,-8.7766,-8.7362,-8.7178,-8.7252,-8.7912,-8.8864,-8.9919,-9.09,-9.2848,-9.4351,-9.4821,-9.5723,-9.6723,-9.7105,-9.6927,-9.78,-9.8887,-9.9562,-9.9999,-10.0277,-10.0471,-10.0919,-10.0962,-10.1126,-10.1594,-10.2635,-10.3135,-10.3635,-10.4251,-10.4637,-10.4907,-10.4971,-10.4752,-10.4751,-10.5203,-10.5216,-10.4012,-10.3181,-10.2832,-10.2676,-10.2443,-10.2366,-10.2482,-10.256,-10.2366,-10.2327,-10.2288,-10.2233,-10.2088,-10.1662,-10.1291,-10.0704,-9.9708,-9.8946,-9.8392,-9.7876,-9.7604,-9.7589,-9.7583,-9.7221,-9.6613,-9.5723,-9.4825,-9.4044,-9.3497,-9.3888,-9.4044,-9.4239,-9.4512,-9.5137,-9.5371,-9.5293,-5.9099,-5.9099,-5.9529,-5.956,-5.9422,-5.9636,-6.0001,-6.0866,-6.3027,-6.4792,-6.6001,-6.726,-6.8503,-6.9419,-7.0568,-7.1784,-7.2514,-7.354,-7.4235,-7.5131,-7.5325,-7.5484,-7.5676,-7.5676,-7.5676,-7.5933,-7.6802,-7.7766,-7.9069,-7.9948,-8.1365,-8.2916,-8.4302,-8.5059,-8.541,-8.5686,-8.6041,-8.6534,-8.7085,-8.7741,-8.8175,-8.8243,-8.8133,-8.8353,-8.8243,-8.7949,-8.8169,-8.8757,-8.9635,-9.0512,-9.1938,-9.3809,-9.4726,-9.5712,-9.6511,-9.7404,-9.7892,-9.789,-9.8874,-9.9341,-9.9881,-10.0177,-10.0315,-10.0557,-10.0875,-10.0962,-10.1088,-10.171,-10.302,-10.3597,-10.402,-10.4751,-10.5485,-10.5715,-10.5778,-10.5589,-10.5672,-10.6095,-10.5837,-10.4697,-10.3958,-10.3531,-10.3143,-10.2638,-10.2443,-10.2638,-10.2793,-10.256,-10.2366,-10.2428,-10.2412,-10.2205,-10.2071,-10.1738,-10.1072,-10.0153,-9.9429,-9.8899,-9.8265,-9.763,-9.7589,-9.7583,-9.726,-9.6847,-9.5879,-9.4981,-9.42,-9.3927,-9.4317,-9.4786,-9.5176,-9.5488,-9.5879,-9.5996,-9.6035,-5.9129,-5.9237,-5.9773,-5.9697,-5.9267,-5.971,-6.0472,-6.1615,-6.4047,-6.548,-6.6186,-6.7636,-6.8956,-7.0272,-7.1293,-7.225,-7.3374,-7.4435,-7.4899,-7.5291,-7.5518,-7.5614,-7.5709,-7.5676,-7.5906,-7.6394,-7.7296,-7.8646,-8.014,-8.1394,-8.2442,-8.359,-8.5002,-8.5785,-8.6208,-8.6665,-8.7022,-8.7629,-8.8252,-8.8838,-8.9273,-8.9381,-8.9307,-8.9344,-8.916,-8.9014,-8.916,-8.9491,-9.0005,-9.0845,-9.2015,-9.341,-9.473,-9.6013,-9.6968,-9.7793,-9.8429,-9.8944,-9.9497,-9.9758,-9.9919,-10.0165,-10.0227,-10.0557,-10.0787,-10.1,-10.1203,-10.1863,-10.302,-10.3558,-10.4135,-10.5174,-10.6215,-10.641,-10.6589,-10.657,-10.6658,-10.661,-10.6278,-10.559,-10.5007,-10.4541,-10.4191,-10.3686,-10.2754,-10.2909,-10.2987,-10.2599,-10.2482,-10.2722,-10.2628,-10.2399,-10.2265,-10.2127,-10.1422,-10.0559,-9.9912,-9.9328,-9.8212,-9.7591,-9.7589,-9.7622,-9.7446,-9.6995,-9.5996,-9.5176,-9.4512,-9.4473,-9.4825,-9.5332,-9.5918,-9.6386,-9.6777,-9.7011,-9.7089,-5.9368,-5.9867,-5.9985,-6.0046,-6.0253,-6.1355,-6.2226,-6.296,-6.4643,-6.6369,-6.8382,-6.9051,-7.0106,-7.1523,-7.2349,-7.2945,-7.3707,-7.4435,-7.503,-7.5325,-7.558,-7.5676,-7.5709,-7.5906,-7.6205,-7.7051,-7.8144,-7.947,-8.1173,-8.2602,-8.3887,-8.5133,-8.5573,-8.6286,-8.707,-8.7807,-8.8185,-8.8611,-8.931,-8.9788,-9.0117,-9.0262,-9.0298,-9.0225,-8.9821,-8.9711,-8.9784,-9.0188,-9.0739,-9.1582,-9.3231,-9.4736,-9.5623,-9.6829,-9.7881,-9.844,-9.8792,-9.9095,-9.9631,-9.9796,-9.9904,-10.0165,-10.0315,-10.0557,-10.0831,-10.1081,-10.1357,-10.2209,-10.3097,-10.3789,-10.4559,-10.5559,-10.6372,-10.6639,-10.6817,-10.6873,-10.695,-10.6782,-10.6484,-10.6212,-10.5629,-10.5085,-10.4774,-10.4036,-10.322,-10.3298,-10.322,-10.2871,-10.2622,-10.2823,-10.2788,-10.2537,-10.244,-10.2357,-10.1828,-10.1042,-10.038,-9.9678,-9.8499,-9.763,-9.7589,-9.7622,-9.7641,-9.719,-9.6301,-9.5606,-9.4942,-9.5137,-9.5488,-9.6113,-9.6738,-9.7206,-9.7597,-9.7675,-9.7714,-5.9338,-5.9747,-5.9955,-6.038,-6.1079,-6.2639,-6.358,-6.4053,-6.5576,-6.7364,-6.8898,-6.9765,-7.1027,-7.2316,-7.2879,-7.3442,-7.417,-7.4798,-7.5228,-7.5518,-7.5648,-7.598,-7.6048,-7.6374,-7.7101,-7.7981,-7.9234,-8.0612,-8.205,-8.3479,-8.4848,-8.5181,-8.5752,-8.6716,-8.7618,-8.8654,-8.9488,-8.9847,-9.026,-9.0629,-9.0887,-9.1069,-9.1069,-9.0959,-9.0445,-9.0482,-9.0776,-9.1363,-9.1913,-9.2831,-9.4558,-9.5512,-9.6286,-9.72,-9.8158,-9.8642,-9.8792,-9.9154,-9.9687,-9.985,-10.001,-10.0215,-10.0413,-10.065,-10.0913,-10.1123,-10.1667,-10.2403,-10.3328,-10.4212,-10.502,-10.583,-10.6295,-10.6747,-10.6918,-10.7006,-10.6959,-10.69,-10.6692,-10.6561,-10.6056,-10.5435,-10.4813,-10.4114,-10.3648,-10.3648,-10.3686,-10.3609,-10.315,-10.2844,-10.277,-10.2518,-10.2555,-10.253,-10.1962,-10.1354,-10.0574,-9.9678,-9.8499,-9.7786,-9.7706,-9.7544,-9.7485,-9.7151,-9.666,-9.6074,-9.5645,-9.5918,-9.6308,-9.6933,-9.744,-9.7792,-9.7909,-9.7675,-9.7714,-5.9159,-5.9249,-5.9787,-6.073,-6.1783,-6.3526,-6.4566,-6.5045,-6.6941,-6.8118,-6.8877,-7.0008,-7.1578,-7.3011,-7.3443,-7.4006,-7.4569,-7.5097,-7.5422,-7.5743,-7.5946,-7.6251,-7.6719,-7.7407,-7.8006,-7.9221,-8.0567,-8.1594,-8.2572,-8.3861,-8.4801,-8.4824,-8.6287,-8.736,-8.8059,-8.9302,-9.0219,-9.0689,-9.0954,-9.1214,-9.1584,-9.173,-9.1803,-9.173,-9.1767,-9.195,-9.2684,-9.3161,-9.3492,-9.4448,-9.5295,-9.6029,-9.6725,-9.7237,-9.815,-9.8578,-9.8792,-9.9154,-9.9631,-9.9904,-10.0062,-10.0227,-10.0462,-10.0696,-10.0957,-10.1085,-10.1669,-10.2711,-10.3674,-10.4559,-10.5405,-10.6024,-10.6525,-10.6783,-10.695,-10.7105,-10.717,-10.7119,-10.7105,-10.6872,-10.6522,-10.6017,-10.5901,-10.5318,-10.4658,-10.4308,-10.3842,-10.3881,-10.3555,-10.3,-10.2848,-10.2655,-10.2612,-10.2546,-10.2117,-10.1471,-10.0652,-9.9654,-9.8577,-9.8111,-9.8057,-9.7739,-9.7338,-9.7159,-9.7011,-9.6816,-9.6542,-9.6777,-9.7089,-9.7714,-9.8143,-9.8416,-9.8377,-9.8221,-9.8065,-5.9398,-5.9907,-6.0826,-6.1868,-6.2975,-6.3954,-6.5183,-6.6464,-6.8359,-6.9585,-7.0274,-7.1374,-7.2572,-7.364,-7.4007,-7.4505,-7.4868,-7.5363,-7.5422,-7.5918,-7.6284,-7.6792,-7.7063,-7.7924,-7.8757,-7.9993,-8.1179,-8.2524,-8.3741,-8.4753,-8.5335,-8.568,-8.6858,-8.7789,-8.8455,-8.9816,-9.0581,-9.1206,-9.1433,-9.1508,-9.173,-9.1803,-9.1803,-9.1803,-9.1877,-9.2317,-9.2868,-9.3198,-9.408,-9.5184,-9.5736,-9.6542,-9.7455,-9.7711,-9.8158,-9.8705,-9.8792,-9.9154,-9.9593,-9.9957,-10.0113,-10.0277,-10.0471,-10.0787,-10.1,-10.1126,-10.1746,-10.2942,-10.3982,-10.4828,-10.5638,-10.6218,-10.6678,-10.6817,-10.6982,-10.7164,-10.734,-10.7366,-10.7377,-10.7183,-10.6911,-10.6755,-10.6678,-10.6367,-10.5823,-10.5046,-10.4075,-10.3686,-10.3438,-10.3056,-10.3159,-10.2966,-10.2707,-10.2546,-10.2211,-10.1666,-10.0847,-10.0044,-9.9045,-9.8695,-9.8419,-9.7944,-9.7511,-9.755,-9.744,-9.7401,-9.7401,-9.744,-9.787,-9.8377,-9.9002,-9.9314,-9.9627,-9.9588,-9.9197,-5.9308,-5.9867,-6.1127,-6.2433,-6.3776,-6.5165,-6.6447,-6.7448,-6.9727,-7.0942,-7.1331,-7.2195,-7.3164,-7.4138,-7.4439,-7.4771,-7.5231,-7.586,-7.6092,-7.6487,-7.6961,-7.757,-7.804,-7.8638,-7.9796,-8.1007,-8.2537,-8.3858,-8.486,-8.5347,-8.5704,-8.6037,-8.7072,-8.8111,-8.885,-8.9825,-9.0661,-9.1206,-9.1433,-9.1657,-9.1803,-9.1803,-9.1803,-9.1803,-9.195,-9.2464,-9.3272,-9.3712,-9.4742,-9.5921,-9.662,-9.7021,-9.7674,-9.7855,-9.8128,-9.845,-9.873,-9.9035,-9.9537,-9.9919,-10.0126,-10.0375,-10.065,-10.0957,-10.1085,-10.1323,-10.2056,-10.3174,-10.3712,-10.452,-10.5753,-10.6488,-10.6676,-10.6885,-10.7045,-10.7231,-10.734,-10.7352,-10.7377,-10.7338,-10.695,-10.6484,-10.6406,-10.6367,-10.5745,-10.4658,-10.3881,-10.3842,-10.3555,-10.2995,-10.3177,-10.3199,-10.2846,-10.2663,-10.2445,-10.186,-10.1135,-10.0292,-9.9566,-9.8747,-9.8235,-9.7962,-9.7714,-9.7987,-9.8182,-9.8299,-9.8299,-9.8377,-9.8416,-9.8807,-9.9509,-10.0212,-10.0524,-10.0837,-10.0642,-5.9219,-5.9627,-6.1346,-6.2805,-6.418,-6.6665,-6.7747,-6.8242,-7.0652,-7.1907,-7.1981,-7.2502,-7.3285,-7.3902,-7.4406,-7.4803,-7.543,-7.6227,-7.6724,-7.7063,-7.7739,-7.8247,-7.9016,-8.0042,-8.0932,-8.2199,-8.37,-8.451,-8.5273,-8.5762,-8.6144,-8.6144,-8.6835,-8.7789,-8.885,-8.9906,-9.074,-9.113,-9.1508,-9.173,-9.1803,-9.1803,-9.1803,-9.1803,-9.206,-9.2794,-9.3786,-9.4705,-9.5478,-9.64,-9.7319,-9.757,-9.7748,-9.7892,-9.8128,-9.8385,-9.8667,-9.9095,-9.95,-9.9972,-10.0227,-10.0557,-10.0869,-10.1081,-10.1206,-10.1633,-10.2365,-10.3212,-10.3712,-10.4522,-10.5794,-10.6641,-10.6783,-10.695,-10.7105,-10.7259,-10.734,-10.7377,-10.7377,-10.7377,-10.7027,-10.6484,-10.6406,-10.6367,-10.5745,-10.4619,-10.4036,-10.4075,-10.3842,-10.315,-10.2806,-10.2887,-10.281,-10.2651,-10.2585,-10.2016,-10.1291,-10.1072,-10.0345,-9.9071,-9.8207,-9.8478,-9.8651,-9.869,-9.8885,-9.908,-9.9314,-9.947,-9.947,-9.947,-10.0095,-10.0876,-10.1344,-10.1657,-10.1969,-5.9837,-6.1187,-6.2365,-6.3365,-6.4604,-6.6772,-6.7998,-6.8812,-7.0767,-7.1918,-7.2314,-7.2559,-7.311,-7.4105,-7.4406,-7.4903,-7.5628,-7.6594,-7.6893,-7.7063,-7.8348,-7.8889,-7.9525,-8.0583,-8.15,-8.2914,-8.4247,-8.5002,-8.5664,-8.6261,-8.6715,-8.6751,-8.8143,-8.8791,-8.8768,-8.9789,-9.0697,-9.1053,-9.1433,-9.1657,-9.1803,-9.1803,-9.1803,-9.2024,-9.2537,-9.3345,-9.4264,-9.5073,-9.6105,-9.6989,-9.7573,-9.7822,-9.7892,-9.7892,-9.8128,-9.832,-9.8604,-9.9095,-9.9556,-10.0085,-10.0506,-10.0688,-10.0952,-10.1196,-10.1321,-10.1442,-10.2404,-10.3675,-10.4292,-10.4947,-10.5986,-10.6701,-10.7021,-10.7075,-10.7259,-10.7313,-10.7352,-10.7377,-10.7377,-10.7377,-10.7299,-10.7066,-10.7027,-10.695,-10.6794,-10.5707,-10.472,-10.4658,-10.4191,-10.336,-10.2512,-10.2575,-10.2674,-10.2651,-10.2546,-10.2094,-10.1549,-10.1447,-10.1086,-9.9851,-9.927,-9.961,-9.9736,-9.9666,-9.9783,-10.0017,-10.0212,-10.0446,-10.0563,-10.0603,-10.0954,-10.15,-10.2008,-10.2281,-10.2437]},{"header":{"parameterUnit":"m.s-1","parameterCategory":1,"la1":31.0,"la2":29.5877,"lo1":-88.7671,"lo2":-86.6584,"dy":0.0162,"dx":0.0185,"nx":115,"ny":88,"refTime":"2023-11-19T18:00:00:Z","depth":0,"parameterNumber":3,"parameterNumberName":"V-component_of_WINDS"},"data":[0.0,0.0,0.0,0.0,0.0,0.0,0.0,0.0,0.0,0.0,0.0,0.0,0.0,0.0,0.0,0.0,0.0,0.0,0.0,0.0,0.0,0.0,0.0,0.0,0.0,0.0,0.0,0.0,0.0,0.0,0.0,0.0,0.0,0.0,0.0,0.0,0.0,0.0,0.0,0.0,0.0,0.0,0.0,0.0,0.0,0.0,0.0,0.0,0.0,0.0,0.0,0.0,0.0,0.0,0.0,0.0,0.0,0.0,0.0,0.0,0.0,0.0,0.0,0.0,0.0,0.0,0.0,0.0,0.0,0.0,0.0,0.0,0.0,0.0,0.0,0.0,0.0,0.0,0.0,0.0,0.0,0.0,0.0,0.0,0.0,0.0,0.0,0.0,0.0,0.0,0.0,0.0,0.0,0.0,0.0,0.0,0.0,0.0,0.0,0.0,0.0,0.0,0.0,0.0,0.0,0.0,0.0,0.0,0.0,0.0,0.0,0.0,0.0,0.0,0.0,0.0,0.0,0.0,0.0,0.0,0.0,0.0,0.0,0.0,0.0,0.0,0.0,0.0,0.0,0.0,0.0,0.0,0.0,0.0,0.0,0.0,0.0,0.0,0.0,0.0,0.0,0.0,0.0,0.0,0.0,0.0,0.0,0.0,0.0,0.0,0.0,0.0,0.0,0.0,0.0,0.0,0.0,0.0,0.0,0.0,0.0,0.0,0.0,0.0,0.0,0.0,0.0,0.0,0.0,0.0,0.0,0.0,0.0,0.0,0.0,0.0,0.0,0.0,0.0,0.0,0.0,0.0,0.0,0.0,0.0,0.0,0.0,0.0,0.0,0.0,0.0,0.0,0.0,0.0,0.0,0.0,0.0,0.0,0.0,0.0,0.0,0.0,0.0,0.0,0.0,0.0,0.0,0.0,0.0,0.0,0.0,0.0,0.0,0.0,0.0,0.0,0.0,0.0,0.0,0.0,0.0,0.0,0.0,0.0,0.0,0.0,0.0,0.0,0.0,0.0,0.0,0.0,0.0,0.0,0.0,0.0,0.0,0.0,0.0,0.0,0.0,0.0,0.0,0.0,0.0,0.0,0.0,0.0,0.0,0.0,0.0,0.0,0.0,0.0,0.0,0.0,0.0,0.0,0.0,0.0,0.0,0.0,0.0,0.0,0.0,0.0,0.0,0.0,0.0,0.0,0.0,0.0,0.0,0.0,0.0,0.0,0.0,0.0,0.0,0.0,0.0,0.0,0.0,0.0,0.0,0.0,0.0,0.0,0.0,0.0,0.0,0.0,0.0,0.0,0.0,0.0,0.0,0.0,0.0,0.0,0.0,0.0,0.0,0.0,0.0,0.0,0.0,0.0,0.0,0.0,0.0,0.0,0.0,0.0,0.0,0.0,0.0,0.0,0.0,0.0,0.0,0.0,0.0,0.0,0.0,0.0,0.0,0.0,0.0,0.0,0.0,0.0,0.0,0.0,0.0,0.0,0.0,0.0,0.0,0.0,0.0,0.0,0.0,0.0,0.0,0.0,0.0,0.0,0.0,0.0,0.0,0.0,0.0,0.0,0.0,0.0,0.0,0.0,0.0,0.0,0.0,0.0,0.0,0.0,0.0,0.0,0.0,0.0,0.0,0.0,0.0,0.0,0.0,0.0,0.0,0.0,0.0,0.0,0.0,0.0,0.0,0.0,0.0,0.0,0.0,0.0,0.0,0.0,0.0,0.0,0.0,0.0,0.0,0.0,0.0,0.0,0.0,0.0,0.0,0.0,0.0,0.0,0.0,0.0,0.0,0.0,0.0,0.0,0.0,0.0,0.0,0.0,0.0,0.0,0.0,0.0,0.0,0.0,0.0,0.0,0.0,0.0,0.0,0.0,0.0,0.0,0.0,0.0,0.0,0.0,0.0,0.0,0.0,0.0,0.0,0.0,0.0,0.0,0.0,0.0,0.0,0.0,0.0,0.0,0.0,0.0,0.0,0.0,0.0,0.0,0.0,0.0,0.0,0.0,0.0,0.0,0.0,0.0,0.0,0.0,0.0,0.0,0.0,0.0,0.0,0.0,0.0,0.0,0.0,0.0,0.0,0.0,0.0,0.0,0.0,0.0,0.0,0.0,0.0,0.0,0.0,0.0,0.0,0.0,0.0,0.0,0.0,0.0,0.0,0.0,0.0,0.0,0.0,0.0,0.0,0.0,0.0,0.0,0.0,0.0,0.0,0.0,0.0,0.0,0.0,0.0,0.0,0.0,0.0,0.0,0.0,0.0,0.0,0.0,0.0,0.0,0.0,0.0,0.0,0.0,0.0,0.0,0.0,0.0,0.0,0.0,0.0,0.0,0.0,0.0,0.0,0.0,0.0,0.0,0.0,0.0,0.0,0.0,0.0,0.0,0.0,0.0,0.0,0.0,0.0,0.0,0.0,0.0,0.0,0.0,0.0,0.0,0.0,0.0,0.0,0.0,0.0,0.0,0.0,0.0,0.0,0.0,0.0,0.0,0.0,0.0,0.0,0.0,0.0,0.0,0.0,0.0,0.0,0.0,0.0,0.0,0.0,0.0,0.0,0.0,0.0,0.0,0.0,0.0,0.0,0.0,0.0,0.0,0.0,0.0,0.0,0.0,0.0,0.0,0.0,0.0,0.0,0.0,0.0,0.0,0.0,0.0,0.0,0.0,0.0,0.0,0.0,0.0,0.0,0.0,0.0,0.0,0.0,0.0,0.0,0.0,0.0,0.0,0.0,0.0,0.0,0.0,0.0,0.0,0.0,0.0,0.0,0.0,0.0,0.0,0.0,0.0,0.0,0.0,0.0,0.0,0.0,0.0,0.0,0.0,0.0,0.0,0.0,0.0,0.0,0.0,0.0,0.0,0.0,0.0,0.0,0.0,0.0,0.0,0.0,0.0,0.0,0.0,0.0,0.0,0.0,0.0,0.0,0.0,0.0,0.0,0.0,0.0,0.0,0.0,0.0,0.0,0.0,0.0,0.0,0.0,0.0,0.0,0.0,0.0,0.0,0.0,0.0,0.0,0.0,0.0,0.0,0.0,0.0,0.0,0.0,0.0,0.0,0.0,0.0,0.0,0.0,0.0,0.0,0.0,0.0,0.0,0.0,0.0,0.0,0.0,0.0,0.0,0.0,0.0,0.0,0.0,0.0,0.0,0.0,0.0,0.0,0.0,0.0,0.0,0.0,0.0,0.0,0.0,0.0,0.0,0.0,0.0,0.0,0.0,0.0,0.0,0.0,0.0,0.0,0.0,0.0,0.0,0.0,0.0,0.0,0.0,0.0,0.0,0.0,0.0,0.0,0.0,0.0,0.0,0.0,0.0,0.0,0.0,0.0,0.0,0.0,0.0,0.0,0.0,0.0,0.0,0.0,0.0,0.0,0.0,0.0,0.0,0.0,0.0,0.0,0.0,0.0,0.0,0.0,0.0,0.0,0.0,0.0,0.0,0.0,0.0,0.0,0.0,0.0,0.0,0.0,0.0,0.0,0.0,0.0,0.0,0.0,0.0,0.0,0.0,0.0,0.0,0.0,0.0,0.0,0.0,0.0,0.0,0.0,0.0,0.0,0.0,0.0,0.0,0.0,0.0,0.0,0.0,0.0,0.0,0.0,0.0,0.0,0.0,0.0,0.0,0.0,0.0,0.0,0.0,0.0,0.0,0.0,0.0,0.0,0.0,0.0,0.0,0.0,0.0,0.0,0.0,0.0,0.0,0.0,0.0,0.0,0.0,0.0,0.0,0.0,0.0,0.0,0.0,0.0,0.0,0.0,0.0,0.0,0.0,0.0,0.0,0.0,0.0,0.0,0.0,0.0,0.0,0.0,0.0,0.0,0.0,0.0,0.0,0.0,0.0,0.0,0.0,0.0,0.0,0.0,0.0,0.0,0.0,0.0,0.0,0.0,0.0,0.0,0.0,0.0,0.0,0.0,0.0,0.0,0.0,0.0,0.0,0.0,0.0,0.0,0.0,0.0,0.0,0.0,0.0,0.0,0.0,0.0,0.0,0.0,0.0,0.0,0.0,0.0,0.0,0.0,0.0,0.0,0.0,0.0,0.0,0.0,0.0,0.0,0.0,0.0,0.0,0.0,0.0,0.0,0.0,0.0,0.0,0.0,0.0,0.0,0.0,0.0,0.0,0.0,0.0,0.0,0.0,0.0,0.0,0.0,0.0,0.0,0.0,0.0,0.0,0.0,0.0,0.0,0.0,0.0,0.0,0.0,0.0,0.0,0.0,0.0,0.0,0.0,0.0,0.0,0.0,0.0,0.0,-0.9544,0.0,0.0,0.0,0.0,0.0,0.0,0.0,0.0,0.0,0.0,0.0,0.0,0.0,0.0,0.0,0.0,0.0,0.0,0.0,0.0,0.0,0.0,0.0,0.0,0.0,0.0,0.0,0.0,0.0,0.0,0.0,0.0,0.0,0.0,0.0,0.0,0.0,0.0,0.0,0.0,0.0,0.0,0.0,0.0,0.0,0.0,0.0,0.0,0.0,0.0,0.0,0.0,0.0,0.0,0.0,0.0,0.0,0.0,0.0,0.0,0.0,0.0,0.0,0.0,0.0,0.0,0.0,0.0,0.0,0.0,0.0,0.0,0.0,0.0,0.0,0.0,0.0,0.0,0.0,0.0,0.0,0.0,0.0,0.0,0.0,0.0,0.0,0.0,0.0,0.0,0.0,0.0,0.0,0.0,0.0,0.0,0.0,0.0,0.0,0.0,0.0,0.0,0.0,0.0,0.0,0.0,0.0,0.0,0.0,0.0,-1.1923,-1.2207,-1.0084,-0.9059,-0.9093,0.0,0.0,0.0,0.0,0.0,0.0,0.0,0.0,0.0,0.0,0.0,0.0,0.0,0.0,0.0,0.0,0.0,0.0,0.0,0.0,0.0,0.0,0.0,0.0,0.0,0.0,0.0,0.0,0.0,0.0,0.0,0.0,0.0,0.0,0.0,0.0,0.0,0.0,0.0,0.0,0.0,0.0,0.0,0.0,0.0,0.0,0.0,0.0,0.0,0.0,0.0,0.0,0.0,0.0,0.0,0.0,0.0,0.0,0.0,0.0,0.0,0.0,0.0,0.0,0.0,0.0,0.0,0.0,0.0,0.0,0.0,0.0,0.0,0.0,0.0,0.0,0.0,0.0,0.0,0.0,0.0,0.0,0.0,0.0,0.0,0.0,0.0,0.0,0.0,0.0,0.0,0.0,0.0,0.0,0.0,0.0,0.0,0.0,0.0,0.0,0.0,0.0,0.0,0.0,0.0,0.0,0.0,0.0,0.0,0.0,0.0,0.0,-1.0134,-0.8722,-0.8216,0.0,0.0,0.0,0.0,0.0,0.0,0.0,0.0,0.0,0.0,0.0,0.0,0.0,0.0,0.0,0.0,0.0,0.0,0.0,0.0,0.0,0.0,0.0,0.0,0.0,0.0,0.0,0.0,0.0,0.0,0.0,0.0,0.0,0.0,0.0,0.0,0.0,0.0,0.0,0.0,0.0,0.0,0.0,0.0,0.0,0.0,0.0,0.0,0.0,0.0,0.0,0.0,0.0,0.0,0.0,0.0,0.0,0.0,0.0,0.0,0.0,0.0,0.0,0.0,0.0,0.0,0.0,0.0,0.0,0.0,0.0,0.0,0.0,0.0,0.0,0.0,0.0,0.0,0.0,0.0,0.0,0.0,0.0,0.0,0.0,0.0,0.0,0.0,0.0,0.0,0.0,0.0,0.0,0.0,0.0,0.0,0.0,0.0,0.0,0.0,0.0,0.0,0.0,0.0,0.0,0.0,0.0,0.0,0.0,0.0,-1.2885,-1.2325,-1.0532,0.0,-0.6757,0.0,0.0,0.0,0.0,0.0,0.0,0.0,0.0,0.0,0.0,0.0,0.0,0.0,0.0,0.0,0.0,0.0,0.0,0.0,0.0,0.0,0.0,0.0,0.0,0.0,0.0,0.0,0.0,0.0,0.0,0.0,0.0,0.0,0.0,0.0,0.0,0.0,0.0,0.0,0.0,0.0,0.0,0.0,0.0,0.0,0.0,0.0,0.0,0.0,0.0,0.0,0.0,0.0,0.0,0.0,0.0,0.0,0.0,0.0,0.0,0.0,0.0,0.0,0.0,0.0,0.0,0.0,0.0,0.0,0.0,0.0,0.0,0.0,0.0,0.0,0.0,0.0,0.0,0.0,0.0,0.0,0.0,0.0,0.0,0.0,0.0,0.0,0.0,0.0,0.0,0.0,0.0,0.0,0.0,0.0,0.0,0.0,0.0,0.0,0.0,0.0,0.0,0.0,0.0,0.0,0.0,0.0,0.0,0.0,0.0,-1.2583,-1.2345,-0.9713,-0.7856,0.0,0.0,0.0,0.0,0.0,0.0,0.0,0.0,0.0,0.0,0.0,0.0,0.0,0.0,0.0,0.0,0.0,0.0,0.0,0.0,0.0,0.0,0.0,0.0,0.0,0.0,0.0,0.0,0.0,0.0,0.0,0.0,0.0,0.0,0.0,0.0,0.0,0.0,0.0,0.0,0.0,0.0,0.0,0.0,0.0,0.0,0.0,0.0,0.0,0.0,0.0,0.0,0.0,0.0,0.0,0.0,0.0,0.0,0.0,0.0,0.0,0.0,0.0,0.0,0.0,0.0,0.0,0.0,0.0,0.0,0.0,0.0,0.0,0.0,0.0,0.0,0.0,0.0,0.0,0.0,0.0,0.0,0.0,0.0,0.0,0.0,0.0,0.0,0.0,0.0,0.0,0.0,0.0,0.0,0.0,0.0,0.0,0.0,0.0,0.0,0.0,0.0,0.0,0.0,0.0,0.0,0.0,0.0,0.0,0.0,-1.367,-1.2457,-1.1615,-0.9117,-0.7593,-0.7556,0.0,0.0,0.0,0.0,0.0,0.0,0.0,0.0,0.0,0.0,0.0,0.0,0.0,0.0,0.0,0.0,0.0,0.0,0.0,0.0,0.0,0.0,0.0,0.0,0.0,0.0,0.0,0.0,0.0,0.0,0.0,0.0,0.0,0.0,0.0,0.0,0.0,0.0,0.0,0.0,0.0,0.0,0.0,0.0,0.0,0.0,0.0,0.0,0.0,0.0,0.0,0.0,0.0,0.0,0.0,0.0,0.0,0.0,0.0,0.0,0.0,0.0,0.0,0.0,0.0,0.0,0.0,0.0,0.0,0.0,0.0,0.0,0.0,0.0,0.0,0.0,0.0,0.0,0.0,0.0,0.0,0.0,0.0,0.0,0.0,0.0,0.0,0.0,0.0,0.0,0.0,0.0,0.0,0.0,0.0,0.0,0.0,0.0,0.0,0.0,0.0,0.0,0.0,0.0,0.0,0.0,0.0,0.0,-1.4443,-1.4163,-1.2946,-1.0422,-0.9094,-0.8171,0.0,0.0,0.0,0.0,0.0,0.0,0.0,0.0,0.0,0.0,0.0,0.0,0.0,0.0,0.0,0.0,0.0,0.0,0.0,0.0,0.0,0.0,0.0,0.0,0.0,0.0,0.0,0.0,0.0,0.0,0.0,0.0,0.0,0.0,0.0,0.0,0.0,0.0,0.0,0.0,0.0,0.0,0.0,0.0,0.0,0.0,0.0,0.0,0.0,0.0,0.0,0.0,0.0,0.0,0.0,0.0,0.0,0.0,0.0,0.0,0.0,0.0,0.0,0.0,0.0,0.0,0.0,0.0,0.0,0.0,0.0,0.0,0.0,0.0,0.0,0.0,0.0,0.0,0.0,0.0,0.0,0.0,0.0,0.0,0.0,0.0,0.0,0.0,0.0,0.0,0.0,0.0,0.0,0.0,0.0,0.0,0.0,0.0,0.0,0.0,0.0,0.0,0.0,0.0,0.0,0.0,0.0,0.0,0.0,-1.4518,-1.3517,-1.1872,-0.97,-0.9265,-0.8594,0.0,0.0,0.0,0.0,0.0,0.0,0.0,0.0,0.0,0.0,0.0,0.0,0.0,0.0,0.0,0.0,0.0,0.0,0.0,0.0,0.0,0.0,0.0,0.0,0.0,0.0,0.0,0.0,0.0,0.0,0.0,0.0,0.0,0.0,0.0,0.0,0.0,0.0,0.0,0.0,0.0,0.0,0.0,0.0,0.0,0.0,0.0,0.0,0.0,0.0,0.0,0.0,0.0,0.0,0.0,0.0,0.0,0.0,0.0,0.0,0.0,0.0,0.0,0.0,0.0,0.0,0.0,0.0,0.0,0.0,0.0,0.0,0.0,0.0,0.0,0.0,0.0,0.0,0.0,0.0,0.0,0.0,0.0,0.0,0.0,0.0,0.0,0.0,0.0,0.0,0.0,0.0,0.0,0.0,0.0,0.0,0.0,0.0,0.0,0.0,0.0,0.0,0.0,0.0,0.0,0.0,0.0,0.0,0.0,-1.451,0.0,-1.1421,-0.989,-0.9652,-0.8977,0.0,0.0,0.0,0.0,0.0,0.0,0.0,0.0,0.0,0.0,0.0,0.0,0.0,0.0,0.0,0.0,0.0,0.0,0.0,0.0,0.0,0.0,0.0,0.0,0.0,0.0,0.0,0.0,0.0,0.0,0.0,0.0,0.0,0.0,0.0,0.0,0.0,0.0,0.0,0.0,0.0,0.0,0.0,0.0,0.0,0.0,0.0,0.0,0.0,0.0,0.0,0.0,0.0,0.0,0.0,0.0,0.0,0.0,0.0,0.0,0.0,0.0,0.0,0.0,0.0,0.0,0.0,0.0,0.0,0.0,0.0,0.0,0.0,0.0,0.0,0.0,0.0,0.0,0.0,0.0,0.0,0.0,0.0,0.0,0.0,0.0,0.0,0.0,0.0,0.0,0.0,0.0,0.0,0.0,0.0,0.0,0.0,0.0,0.0,0.0,0.0,0.0,0.0,0.0,0.0,0.0,0.0,0.0,-1.5709,-1.4152,-1.2844,-1.1841,-1.1031,-1.0294,-0.9237,0.0,0.0,0.0,0.0,0.0,0.0,0.0,0.0,0.0,0.0,0.0,0.0,0.0,0.0,0.0,0.0,0.0,0.0,0.0,0.0,0.0,0.0,0.0,0.0,0.0,0.0,0.0,0.0,0.0,0.0,0.0,0.0,0.0,0.0,0.0,0.0,0.0,0.0,0.0,0.0,0.0,0.0,0.0,0.0,0.0,0.0,0.0,0.0,0.0,0.0,0.0,0.0,0.0,0.0,0.0,0.0,0.0,0.0,0.0,0.0,0.0,0.0,0.0,0.0,0.0,0.0,0.0,0.0,0.0,0.0,0.0,0.0,0.0,0.0,0.0,0.0,0.0,0.0,0.0,0.0,0.0,0.0,0.0,0.0,0.0,0.0,0.0,0.0,0.0,0.0,0.0,0.0,0.0,0.0,0.0,0.0,0.0,0.0,0.0,0.0,0.0,0.0,0.0,0.0,0.0,0.0,0.0,0.0,0.0,-1.3039,-1.2804,-1.1971,-1.0418,-1.0524,-0.979,0.0,0.0,0.0,0.0,0.0,0.0,0.0,0.0,0.0,0.0,0.0,0.0,0.0,0.0,0.0,0.0,0.0,0.0,0.0,0.0,0.0,0.0,0.0,0.0,0.0,0.0,0.0,0.0,0.0,0.0,0.0,0.0,0.0,0.0,0.0,0.0,0.0,0.0,0.0,0.0,0.0,0.0,0.0,0.0,0.0,0.0,0.0,0.0,0.0,0.0,0.0,0.0,0.0,0.0,0.0,0.0,0.0,0.0,0.0,0.0,0.0,0.0,0.0,0.0,0.0,0.0,0.0,0.0,0.0,0.0,0.0,0.0,0.0,0.0,0.0,0.0,0.0,0.0,0.0,0.0,0.0,0.0,0.0,0.0,0.0,0.0,0.0,0.0,0.0,0.0,0.0,0.0,0.0,0.0,0.0,0.0,0.0,0.0,0.0,0.0,0.0,0.0,0.0,0.0,0.0,0.0,0.0,0.0,0.0,-1.3816,-1.3555,-1.2918,-1.1644,-1.1562,-1.0614,-0.8828,0.0,0.0,0.0,0.0,0.0,0.0,0.0,0.0,0.0,0.0,0.0,0.0,0.0,0.0,0.0,0.0,0.0,0.0,0.0,0.0,0.0,0.0,0.0,0.0,0.0,0.0,0.0,0.0,0.0,0.0,0.0,0.0,0.0,0.0,0.0,0.0,0.0,0.0,0.0,0.0,0.0,0.0,0.0,0.0,0.0,0.0,0.0,0.0,0.0,0.0,0.0,0.0,0.0,0.0,0.0,0.0,0.0,0.0,0.0,0.0,0.0,0.0,0.0,0.0,0.0,0.0,0.0,0.0,0.0,0.0,0.0,0.0,0.0,0.0,0.0,0.0,0.0,0.0,0.0,0.0,0.0,0.0,0.0,0.0,0.0,0.0,0.0,0.0,0.0,0.0,0.0,0.0,0.0,0.0,0.0,0.0,0.0,0.0,0.0,0.0,0.0,0.0,0.0,0.0,0.0,0.0,0.0,0.0,-1.5978,-1.5081,-1.453,-1.4308,-1.3087,-1.1468,0.0,0.0,0.0,0.0,0.0,0.0,0.0,0.0,0.0,0.0,0.0,0.0,0.0,0.0,0.0,0.0,0.0,0.0,0.0,0.0,0.0,0.0,0.0,0.0,0.0,0.0,0.0,0.0,0.0,0.0,0.0,0.0,0.0,0.0,0.0,0.0,0.0,0.0,0.0,0.0,0.0,0.0,0.0,0.0,0.0,0.0,0.0,0.0,0.0,0.0,0.0,0.0,0.0,0.0,0.0,0.0,0.0,0.0,0.0,0.0,0.0,0.0,0.0,0.0,0.0,0.0,0.0,0.0,0.0,0.0,0.0,0.0,0.0,0.0,0.0,0.0,0.0,0.0,0.0,0.0,0.0,0.0,0.0,0.0,0.0,0.0,0.0,0.0,0.0,0.0,0.0,0.0,0.0,0.0,0.0,0.0,0.0,0.0,0.0,0.0,0.0,0.0,0.0,0.0,0.0,0.0,0.0,0.0,0.0,-1.8519,-1.8475,-1.741,-1.5505,-1.3636,-1.2035,0.0,0.0,0.0,0.0,0.0,0.0,0.0,0.0,0.0,0.0,0.0,0.0,0.0,0.0,0.0,0.0,0.0,0.0,0.0,0.0,0.0,0.0,0.0,0.0,0.0,0.0,0.0,0.0,0.0,0.0,0.0,0.0,0.0,0.0,0.0,0.0,0.0,0.0,0.0,0.0,0.0,0.0,0.0,0.0,0.0,0.0,0.0,0.0,0.0,0.0,0.0,0.0,0.0,0.0,0.0,0.0,0.0,0.0,0.0,0.0,0.0,0.0,0.0,0.0,0.0,0.0,0.0,0.0,0.0,0.0,0.0,0.0,0.0,0.0,0.0,0.0,0.0,0.0,0.0,0.0,0.0,0.0,0.0,0.0,0.0,0.0,0.0,0.0,0.0,0.0,0.0,0.0,0.0,0.0,0.0,0.0,0.0,0.0,0.0,0.0,0.0,0.0,0.0,0.0,0.0,0.0,0.0,0.0,-1.8484,-1.948,-2.0523,-2.0329,-1.8863,-1.5561,-1.3091,0.0,0.0,0.0,0.0,0.0,0.0,0.0,0.0,0.0,0.0,0.0,0.0,0.0,0.0,0.0,0.0,0.0,0.0,0.0,0.0,0.0,0.0,0.0,0.0,0.0,0.0,0.0,0.0,0.0,0.0,0.0,0.0,0.0,0.0,0.0,0.0,0.0,0.0,0.0,0.0,0.0,0.0,0.0,0.0,0.0,0.0,0.0,0.0,0.0,0.0,0.0,0.0,0.0,0.0,0.0,0.0,0.0,0.0,0.0,0.0,0.0,0.0,0.0,0.0,0.0,0.0,0.0,0.0,0.0,0.0,0.0,0.0,0.0,0.0,0.0,0.0,0.0,0.0,0.0,0.0,0.0,0.0,0.0,0.0,0.0,0.0,0.0,0.0,0.0,0.0,0.0,0.0,0.0,0.0,0.0,0.0,0.0,0.0,0.0,0.0,0.0,0.0,0.0,0.0,0.0,0.0,0.0,0.0,-2.0094,-1.9889,-2.1777,-2.2858,-2.2788,-1.7872,-1.4424,0.0,0.0,0.0,0.0,0.0,0.0,0.0,0.0,0.0,0.0,0.0,0.0,0.0,0.0,0.0,0.0,0.0,0.0,0.0,0.0,0.0,0.0,0.0,0.0,0.0,0.0,0.0,0.0,0.0,0.0,0.0,0.0,0.0,0.0,0.0,0.0,0.0,0.0,0.0,0.0,0.0,0.0,0.0,0.0,0.0,0.0,0.0,0.0,0.0,0.0,0.0,0.0,0.0,0.0,0.0,0.0,0.0,0.0,0.0,0.0,0.0,0.0,0.0,0.0,0.0,0.0,0.0,0.0,0.0,0.0,0.0,0.0,0.0,0.0,0.0,0.0,0.0,0.0,0.0,0.0,0.0,0.0,0.0,0.0,0.0,0.0,0.0,0.0,0.0,0.0,0.0,0.0,0.0,0.0,0.0,0.0,0.0,0.0,0.0,0.0,0.0,0.0,0.0,0.0,0.0,0.0,0.0,0.0,-2.1222,-2.1846,-2.2997,-2.3596,-2.3584,-1.8401,-1.4967,0.0,0.0,0.0,0.0,0.0,0.0,0.0,0.0,0.0,0.0,0.0,0.0,0.0,0.0,0.0,0.0,0.0,0.0,0.0,0.0,0.0,0.0,0.0,0.0,0.0,0.0,0.0,0.0,0.0,0.0,0.0,0.0,0.0,0.0,0.0,0.0,0.0,0.0,0.0,0.0,0.0,0.0,0.0,0.0,0.0,0.0,0.0,0.0,-0.5283,0.0,0.0,0.0,0.0,0.0,0.0,0.0,0.0,0.0,0.0,0.0,0.0,0.0,0.0,0.0,0.0,0.0,0.0,0.0,0.0,0.0,0.0,0.0,0.0,0.0,0.0,0.0,0.0,0.0,0.0,0.0,0.0,0.0,0.0,0.0,0.0,0.0,0.0,0.0,0.0,0.0,0.0,0.0,0.0,0.0,0.0,0.0,0.0,0.0,0.0,0.0,0.0,0.0,0.0,0.0,0.0,0.0,0.0,0.0,-2.1486,-2.2729,-2.3671,-2.4172,-2.3964,-1.986,-1.6536,0.0,0.0,0.0,0.0,0.0,0.0,0.0,0.0,0.0,0.0,0.0,0.0,0.0,0.0,0.0,0.0,0.0,0.0,0.0,0.0,0.0,0.0,0.0,0.0,0.0,0.0,0.0,0.0,0.0,0.0,0.0,0.0,0.0,0.0,0.0,0.0,0.0,0.0,0.0,0.0,0.0,0.0,0.0,0.0,0.0,0.0,0.0,0.0,0.0,0.0,0.0,0.0,0.0,0.0,0.0,0.0,0.0,0.0,0.0,0.0,0.0,0.0,0.0,0.0,0.0,0.0,0.0,0.0,0.0,0.0,0.0,0.0,0.0,0.0,0.0,0.0,0.0,0.0,0.0,0.0,0.0,0.0,0.0,0.0,0.0,0.0,0.0,0.0,0.0,0.0,0.0,0.0,0.0,0.0,0.0,0.0,0.0,0.0,0.0,0.0,0.0,0.0,0.0,0.0,0.0,0.0,0.0,-1.9933,-2.1384,-2.3199,-2.4108,-2.4492,-2.432,-2.1346,-1.8025,-1.458,0.0,0.0,0.0,0.0,0.0,0.0,0.0,0.0,0.0,0.0,0.0,0.0,0.0,0.0,0.0,0.0,0.0,0.0,0.0,0.0,0.0,0.0,0.0,0.0,0.0,0.0,0.0,0.0,0.0,0.0,0.0,0.0,0.0,0.0,0.0,0.0,0.0,0.0,-0.55,-0.5691,0.0,0.0,0.0,0.0,0.0,0.0,0.0,0.0,-0.478,0.0,0.0,0.0,0.0,0.0,0.0,0.0,0.0,0.0,0.0,0.0,0.0,0.0,0.0,0.0,0.0,0.0,0.0,0.0,0.0,0.0,0.0,0.0,0.0,0.0,0.0,0.0,0.0,0.0,0.0,0.0,0.0,0.0,0.0,0.0,0.0,0.0,0.0,0.0,0.0,0.0,0.0,0.0,0.0,0.0,0.0,0.0,0.0,0.0,0.0,0.0,0.0,0.0,0.0,0.0,0.0,-2.0822,-2.0733,-2.2105,-2.483,-2.4598,-2.432,-2.3828,-2.04,-1.7171,-1.4303,0.0,0.0,0.0,0.0,0.0,0.0,0.0,0.0,0.0,0.0,0.0,0.0,0.0,0.0,0.0,0.0,0.0,0.0,0.0,0.0,0.0,0.0,0.0,0.0,0.0,0.0,0.0,0.0,0.0,0.0,0.0,0.0,0.0,0.0,0.0,0.0,0.0,0.0,0.0,-0.6298,-0.5955,0.0,0.0,0.0,0.0,0.0,0.0,0.0,0.0,-0.4931,0.0,0.0,0.0,0.0,0.0,0.0,0.0,0.0,0.0,0.0,0.0,0.0,0.0,0.0,0.0,0.0,0.0,0.0,0.0,0.0,0.0,0.0,0.0,0.0,0.0,0.0,0.0,0.0,0.0,0.0,0.0,0.0,0.0,0.0,0.0,0.0,0.0,0.0,0.0,0.0,0.0,0.0,0.0,0.0,0.0,0.0,0.0,0.0,0.0,0.0,0.0,0.0,0.0,0.0,0.0,-2.0864,-2.1667,-2.3204,-2.5479,-2.5041,-2.4639,-2.416,-2.0759,-1.7353,0.0,0.0,0.0,0.0,0.0,0.0,0.0,0.0,0.0,0.0,0.0,0.0,0.0,0.0,0.0,0.0,0.0,0.0,0.0,0.0,0.0,0.0,0.0,0.0,0.0,0.0,0.0,0.0,0.0,0.0,0.0,0.0,0.0,0.0,0.0,0.0,0.0,0.0,0.0,0.0,-0.7095,-0.7124,-0.8302,0.0,0.0,0.0,0.0,0.0,0.0,-0.5967,-0.4964,0.0,0.0,0.0,0.0,0.0,0.0,0.0,0.0,0.0,0.0,0.0,0.0,0.0,0.0,0.0,0.0,0.0,0.0,0.0,0.0,0.0,0.0,0.0,0.0,0.0,0.0,0.0,0.0,0.0,0.0,0.0,0.0,0.0,0.0,0.0,0.0,0.0,0.0,0.0,0.0,0.0,0.0,0.0,0.0,0.0,0.0,0.0,0.0,0.0,0.0,0.0,0.0,0.0,0.0,0.0,-2.0814,-2.2411,-2.4124,-2.5687,-2.5289,-2.497,-2.448,-2.0651,-1.7115,0.0,0.0,0.0,0.0,0.0,0.0,0.0,0.0,0.0,0.0,0.0,0.0,0.0,0.0,0.0,0.0,0.0,0.0,0.0,0.0,0.0,0.0,0.0,0.0,0.0,0.0,0.0,0.0,0.0,0.0,0.0,0.0,0.0,0.0,0.0,0.0,0.0,0.0,0.0,0.0,0.0,-0.8165,-0.88,-0.8256,0.0,0.0,0.0,0.0,-0.6513,-0.6062,0.0,0.0,0.0,0.0,0.0,0.0,0.0,0.0,0.0,0.0,0.0,0.0,0.0,0.0,0.0,0.0,0.0,0.0,0.0,0.0,0.0,0.0,0.0,0.0,0.0,0.0,0.0,0.0,0.0,0.0,0.0,0.0,0.0,0.0,0.0,0.0,0.0,0.0,0.0,0.0,0.0,0.0,0.0,0.0,0.0,0.0,0.0,0.0,0.0,0.0,0.0,0.0,0.0,0.0,0.0,0.0,-2.1114,-2.2827,-2.4402,-2.5687,-2.5289,-2.497,-2.448,-1.8592,-1.5064,0.0,0.0,0.0,0.0,0.0,0.0,0.0,0.0,0.0,0.0,0.0,0.0,0.0,0.0,0.0,0.0,0.0,0.0,0.0,0.0,0.0,0.0,0.0,0.0,0.0,0.0,0.0,0.0,0.0,0.0,0.0,0.0,0.0,0.0,0.0,0.0,0.0,0.0,0.0,0.0,0.0,-0.8293,-0.9251,-0.8653,-0.7872,0.0,0.0,-0.8464,-0.8133,-0.879,0.0,0.0,0.0,0.0,0.0,0.0,0.0,0.0,0.0,0.0,0.0,0.0,0.0,0.0,0.0,0.0,0.0,0.0,0.0,0.0,0.0,0.0,0.0,0.0,0.0,0.0,0.0,0.0,0.0,0.0,0.0,0.0,0.0,0.0,0.0,0.0,0.0,0.0,0.0,0.0,0.0,0.0,0.0,0.0,0.0,0.0,0.0,0.0,0.0,0.0,0.0,0.0,0.0,0.0,0.0,-2.1404,-2.1907,-2.4235,-2.5742,-2.6106,-2.5516,-2.497,-2.4492,-1.8222,-1.4404,0.0,0.0,0.0,0.0,0.0,0.0,0.0,0.0,0.0,0.0,0.0,0.0,0.0,0.0,0.0,0.0,0.0,0.0,0.0,0.0,0.0,0.0,0.0,0.0,0.0,0.0,0.0,0.0,0.0,0.0,0.0,0.0,0.0,0.0,0.0,0.0,0.0,0.0,0.0,0.0,0.0,0.0,-0.9069,-0.9282,0.0,0.0,0.0,-0.8632,-0.7618,0.0,0.0,0.0,0.0,0.0,0.0,0.0,0.0,0.0,0.0,0.0,0.0,0.0,0.0,0.0,0.0,0.0,0.0,0.0,0.0,0.0,0.0,0.0,0.0,0.0,0.0,0.0,0.0,0.0,0.0,0.0,0.0,0.0,0.0,0.0,0.0,0.0,0.0,0.0,0.0,0.0,0.0,0.0,0.0,0.0,0.0,0.0,0.0,0.0,0.0,0.0,0.0,0.0,0.0,0.0,0.0,0.0,-2.2537,-2.5511,-2.6906,-2.6676,-2.5648,-2.497,-2.4467,-1.9013,0.0,0.0,0.0,0.0,0.0,0.0,0.0,0.0,0.0,0.0,0.0,0.0,0.0,0.0,0.0,0.0,0.0,0.0,0.0,0.0,0.0,0.0,0.0,0.0,0.0,0.0,0.0,-0.2636,0.0,0.0,0.0,0.0,0.0,0.0,0.0,0.0,0.0,0.0,0.0,0.0,0.0,0.0,-1.0105,-0.8803,-0.9793,-1.0235,0.0,0.0,-0.8771,-0.7779,-0.8873,-0.8901,0.0,0.0,0.0,0.0,0.0,0.0,0.0,0.0,0.0,0.0,0.0,0.0,0.0,0.0,0.0,0.0,0.0,0.0,0.0,0.0,0.0,0.0,0.0,0.0,0.0,0.0,0.0,0.0,0.0,0.0,0.0,0.0,0.0,0.0,0.0,0.0,0.0,0.0,0.0,0.0,0.0,0.0,0.0,0.0,0.0,0.0,0.0,0.0,0.0,0.0,0.0,0.0,0.0,0.0,-2.3653,-2.3132,-2.6066,-2.7463,-2.6936,-2.574,-2.497,-2.448,-2.091,-1.7344,0.0,0.0,0.0,0.0,0.0,0.0,0.0,0.0,0.0,0.0,0.0,0.0,0.0,0.0,0.0,0.0,0.0,0.0,0.0,0.0,0.0,0.0,0.0,0.0,0.0,0.0,0.0,0.0,0.0,0.0,0.0,0.0,0.0,0.0,0.0,0.0,0.0,0.0,0.0,0.0,0.0,-1.0287,-0.8594,-0.972,-1.0688,0.0,-0.9781,-0.9507,-1.0151,-1.1121,-1.06,-0.7143,0.0,0.0,0.0,0.0,0.0,0.0,0.0,0.0,0.0,0.0,0.0,0.0,0.0,0.0,0.0,0.0,0.0,0.0,0.0,0.0,0.0,0.0,0.0,0.0,0.0,0.0,0.0,0.0,0.0,0.0,0.0,0.0,0.0,0.0,0.0,0.0,0.0,0.0,0.0,0.0,0.0,0.0,0.0,0.0,0.0,0.0,0.0,0.0,0.0,0.0,0.0,0.0,0.0,-2.3722,-2.3434,-2.7054,-2.8344,-2.7184,-2.6453,-2.5442,-2.4012,-2.0953,-1.7557,0.0,0.0,0.0,0.0,0.0,0.0,0.0,0.0,0.0,0.0,0.0,0.0,0.0,0.0,0.0,0.0,0.0,0.0,0.0,0.0,0.0,0.0,0.0,0.0,0.0,0.0,0.0,0.0,-0.6619,-0.6685,-0.5852,0.0,0.0,0.0,0.0,0.0,0.0,0.0,0.0,0.0,0.0,-1.0848,-1.0409,-1.1267,0.0,0.0,-1.0577,-1.0153,-0.9428,-0.9407,-0.8622,-0.5439,-0.3739,0.0,0.0,0.0,0.0,0.0,0.0,0.0,0.0,0.0,0.0,0.0,0.0,0.0,0.0,0.0,0.0,0.0,0.0,0.0,0.0,0.0,0.0,0.0,0.0,0.0,0.0,0.0,0.0,0.0,0.0,0.0,0.0,0.0,0.0,0.0,0.0,0.0,0.0,0.0,0.0,0.0,0.0,0.0,0.0,0.0,0.0,0.0,0.0,0.0,0.0,0.0,0.0,-2.4122,-2.3936,-2.7556,-2.8803,-2.7297,-2.6928,-2.5775,-2.3852,-2.1983,-1.9134,0.0,0.0,0.0,0.0,0.0,0.0,0.0,0.0,0.0,0.0,0.0,0.0,0.0,0.0,0.0,0.0,0.0,0.0,0.0,0.0,0.0,0.0,0.0,0.0,0.0,0.0,0.0,0.0,-0.7389,-0.7461,-0.6088,0.0,0.0,0.0,0.0,0.0,0.0,0.0,0.0,0.0,0.0,-1.1347,-1.0887,-1.1362,-1.1427,-1.0235,-0.9854,-0.9428,-0.8542,-0.7848,-0.6856,-0.4944,0.0,0.0,0.0,0.0,0.0,0.0,0.0,0.0,0.0,0.0,0.0,0.0,0.0,0.0,0.0,0.0,0.0,0.0,0.0,0.0,0.0,0.0,0.0,0.0,0.0,0.0,0.0,0.0,0.0,0.0,-3.1597,0.0,0.0,0.0,0.0,0.0,0.0,0.0,0.0,0.0,0.0,0.0,0.0,0.0,0.0,0.0,0.0,0.0,0.0,0.0,0.0,0.0,0.0,-2.482,-2.4562,-2.757,-2.8699,-2.7563,-2.6833,-2.5594,-2.3864,-2.4172,-2.265,-1.8865,0.0,0.0,0.0,0.0,0.0,0.0,0.0,0.0,0.0,0.0,0.0,0.0,0.0,0.0,0.0,0.0,0.0,0.0,0.0,0.0,0.0,0.0,0.0,0.0,0.0,0.0,-0.4789,-0.6204,-0.714,0.0,0.0,0.0,0.0,0.0,0.0,0.0,0.0,0.0,0.0,-1.0348,-1.1569,-0.9252,-0.9187,-0.9183,-0.8299,-0.7043,-0.6579,-0.7698,-0.6865,-0.6291,0.0,0.0,0.0,0.0,0.0,0.0,0.0,0.0,0.0,0.0,0.0,0.0,0.0,0.0,0.0,0.0,0.0,0.0,0.0,0.0,0.0,0.0,0.0,0.0,0.0,0.0,0.0,-3.4902,-3.4361,0.0,0.0,0.0,0.0,0.0,0.0,0.0,0.0,0.0,0.0,0.0,-3.2273,-3.1544,0.0,0.0,0.0,0.0,0.0,0.0,0.0,0.0,0.0,0.0,0.0,0.0,-2.4553,-2.4761,-2.8597,-3.0007,-2.8877,-2.7913,-2.664,-2.5075,-2.4772,-2.283,-1.9123,0.0,0.0,0.0,0.0,0.0,0.0,0.0,0.0,0.0,0.0,0.0,0.0,0.0,0.0,0.0,0.0,0.0,0.0,0.0,0.0,0.0,0.0,0.0,0.0,0.0,-0.711,0.0,0.0,0.0,0.0,0.0,0.0,0.0,0.0,0.0,0.0,0.0,-0.782,-0.952,-0.9475,-0.9411,-0.914,-0.9574,-0.9603,0.0,0.0,0.0,0.0,0.0,0.0,0.0,0.0,0.0,0.0,0.0,0.0,0.0,0.0,0.2589,0.4593,0.5358,0.5665,0.594,0.0,0.0,0.0,0.0,0.0,0.0,0.0,0.0,0.0,0.0,0.0,0.0,0.0,0.0,-3.5804,0.0,-3.4487,0.0,0.0,0.0,0.0,0.0,0.0,0.0,0.0,-3.3822,-3.4554,-3.4734,-3.4085,-3.394,0.0,-3.1664,-2.8828,0.0,0.0,0.0,0.0,0.0,0.0,0.0,0.0,-2.4974,-2.507,-2.9033,-3.0452,-2.9037,-2.834,-2.7109,-2.5351,-2.479,-2.3234,-2.0487,-1.7276,-1.3781,0.0,0.0,0.0,0.0,0.0,0.0,0.0,0.0,0.0,0.0,0.0,0.0,0.0,0.0,0.0,0.0,0.0,0.0,0.0,0.0,0.0,0.0,0.0,-0.794,0.0,0.0,0.0,0.0,0.0,0.0,0.0,0.0,0.0,-0.7477,-0.7933,-0.8836,-1.0654,-0.9936,-0.922,-0.8946,0.0,0.0,0.0,0.0,0.0,0.0,0.0,-0.3432,-0.2825,-0.2437,-0.2435,-0.3377,-0.3723,-0.3511,-0.2584,0.0,0.0,0.292,0.3911,0.4409,0.4542,0.4746,0.4962,0.5168,0.5364,0.5551,0.0,0.0,0.0,0.0,0.0,0.0,0.0,0.0,-3.8189,-3.7317,0.0,-3.562,0.0,0.0,0.0,0.0,0.0,-3.3454,0.0,0.0,-3.7746,-3.876,-3.7438,-3.6792,-3.6897,-3.7254,-3.4142,-3.2057,-3.0972,-2.8807,0.0,0.0,0.0,0.0,0.0,0.0,-2.6215,-2.5695,-2.9033,-2.9859,-2.8283,-2.8066,-2.6914,-2.4802,-2.4568,-2.4036,-2.301,-2.0011,-1.7927,-1.6568,-1.1504,0.0,0.0,0.0,0.0,0.0,0.0,0.0,0.0,0.0,0.0,0.0,0.0,0.0,0.0,0.0,0.0,0.0,0.0,0.0,0.0,-0.8419,0.0,0.0,0.0,0.0,0.0,0.0,0.0,0.0,0.0,0.0,-0.7823,-0.8734,-0.9963,-1.0735,0.0,0.0,0.0,0.0,-0.6939,-0.4406,-0.3632,-0.3443,-0.3444,-0.3912,-0.4745,-0.6019,0.0,0.0,-0.7394,-0.5188,-0.3607,-0.2794,-0.1875,-0.0373,0.1084,0.2872,0.4279,0.4551,0.4573,0.4951,0.5306,0.5003,0.5032,-4.2353,0.0,0.0,0.0,0.0,-4.0092,-4.0024,-4.013,-3.9622,-3.9208,-3.891,-3.8121,0.0,0.0,0.0,0.0,0.0,0.0,-3.6056,-3.7023,-3.7892,-3.8673,-3.9411,-3.9606,-3.9411,-3.8675,-3.7842,-3.6475,-3.4586,-3.3651,-3.0445,-2.4878,0.0,0.0,0.0,0.0,-2.6517,-2.7798,-3.0207,-3.1259,-3.0543,-2.9748,-2.8152,-2.5916,-2.4831,-2.4287,-2.3778,-2.2653,-2.0517,-1.744,-1.5743,0.0,0.0,0.0,0.0,0.0,0.0,0.0,0.0,0.0,0.0,0.0,0.0,0.0,0.0,0.0,0.0,0.0,0.0,0.0,-0.9235,-1.0177,-1.0114,0.0,0.0,0.0,0.0,0.0,0.0,0.0,0.0,0.0,-0.9924,-0.8897,-0.8351,0.0,0.0,-0.685,-0.6177,-0.6806,-0.7449,-0.7527,-0.7144,0.0,-0.8403,-0.7377,-0.6757,-0.7166,-0.8062,-0.8525,-0.8259,-0.7585,-0.7144,-0.6553,-0.4339,-0.2343,-0.1936,-0.019,0.1311,0.149,0.1498,0.1508,0.1508,0.17,0.0,-4.418,-4.3171,-4.1742,-4.1278,-4.1409,-4.0815,-4.0642,-4.0768,-4.0383,-3.9981,-3.9652,-3.9008,-3.8395,-3.7702,-3.6975,0.0,0.0,0.0,-3.7835,-3.8969,-3.9038,-3.9692,-4.0825,-4.0998,-4.0731,-3.9939,-3.95,-3.83,-3.6504,-3.5003,-3.1914,-2.7445,0.0,0.0,-2.4887,-2.643,-2.7747,-2.9,-3.1027,-3.1724,-3.1151,-2.9442,-2.8014,-2.6529,-2.5192,-2.4256,-2.3892,-2.3548,-2.2182,-1.9477,-1.8282,-1.6092,0.0,0.0,0.0,0.0,0.0,0.0,0.0,0.0,0.0,0.0,0.0,-0.8672,-0.7165,0.0,0.0,0.0,-1.1058,-1.1064,-1.0731,-1.1118,0.0,0.0,0.0,0.0,0.0,0.0,0.0,-0.7724,-0.9373,-1.0703,-1.0872,-0.9685,-0.8948,-1.0095,-0.888,-0.7725,-0.726,0.0,-0.8802,-0.9105,-0.8712,-0.8738,-0.9636,-0.9181,-0.8756,-0.925,-0.9652,-1.0078,-0.9696,-0.8997,-0.8329,-0.795,-0.5457,-0.3002,-0.3002,-0.1579,-0.0389,0.0,0.0,0.0,0.0,0.0,0.0,-4.5786,-4.5714,-4.2564,-4.1624,-4.1974,-4.0926,-4.0631,-4.0671,-4.066,-4.0256,-3.9442,-3.907,-3.8477,-3.776,-3.7196,0.0,-3.7035,-3.8243,-3.939,-4.0279,-4.0738,-4.1197,-4.1634,-4.125,-4.1158,-4.1022,-3.9854,-3.8523,-3.7075,-3.4277,-3.2157,-3.076,-3.0565,-2.9054,-2.6459,-2.8357,-2.9473,-2.9243,-3.1081,-3.1432,-3.0378,-2.8157,-2.6953,-2.6965,-2.5592,-2.4395,-2.3548,-2.3376,-2.2859,-2.1974,-1.9334,-1.7998,-1.7776,0.0,0.0,0.0,0.0,0.0,0.0,0.0,0.0,0.0,0.0,0.0,0.0,0.0,0.0,-1.4041,-1.4088,0.0,-1.323,-1.1362,0.0,0.0,0.0,-0.9246,-1.0228,-1.0609,-1.0732,-1.0727,0.0,0.0,-1.118,-1.0902,-1.1245,-1.2873,-1.2395,-1.1367,-1.007,-1.0362,-1.0431,-0.962,-0.9015,-0.884,-0.9335,-1.0016,-1.0918,-1.1634,-1.1953,-1.1658,-1.1503,-0.9312,-0.7786,-0.7773,-0.528,-0.3028,-0.2422,-0.1814,-0.1205,-0.0198,0.0,0.0,0.0,0.0,0.0,-4.7143,-4.6698,-4.4638,-4.3835,-4.3956,-4.3913,-4.3248,-4.2334,-4.2301,-4.2012,-4.1408,-4.1033,-4.0669,-4.0362,-4.0182,-4.0028,-4.0028,-4.0234,-4.0445,-4.0647,-4.0519,-4.0563,-4.0731,-4.1255,-4.1158,-4.0383,-4.092,-3.9857,-3.7328,-3.6847,-3.5192,-3.2304,-3.1597,-2.9774,-2.6952,-2.6979,-2.8067,-2.9889,-2.9745,-3.0262,-3.1182,-2.9607,-2.8473,-2.7799,-2.6091,-2.4738,-2.3892,-2.2848,-2.2168,-2.1984,-2.1353,-1.9904,-1.782,-1.5021,0.0,0.0,0.0,0.0,0.0,0.0,0.0,0.0,0.0,-0.9978,-0.891,0.0,-1.1766,0.0,-1.3781,-1.4805,-1.4805,-1.4336,0.0,0.0,-1.1716,-1.1268,-1.1115,-1.2063,-1.2178,-1.0959,-1.19,-1.2825,-1.2853,-1.2574,-1.277,-1.4118,-1.216,-1.0275,-0.9965,-1.0875,-1.1376,-1.1244,-1.1735,-1.243,-1.224,-1.248,-1.2721,-1.3174,-1.3127,-1.266,-1.134,-0.9569,-0.7831,-0.6556,-0.4267,-0.2628,-0.202,-0.1414,-0.0809,0.0,0.0,0.0,0.0,0.0,0.0,-4.8283,-4.7616,-4.633,-4.5281,-4.4623,-4.4084,-4.3577,-4.2911,-4.2741,-4.2616,-4.2336,-4.1828,-4.1275,-4.0846,-4.1057,-4.0882,-4.0621,-4.0684,-4.0998,-4.1155,-4.1045,-4.102,-4.1342,-4.1683,-4.14,-4.0679,-4.0745,-3.9617,-3.7617,-3.7278,-3.5741,-3.3186,-3.2793,-3.1229,-2.8453,-2.7559,-2.7677,-2.8805,-2.8905,-2.9789,-3.1452,-3.015,-2.856,-2.6541,-2.5192,-2.328,-2.1139,-2.0104,-1.959,-1.9256,-1.8904,-1.8066,-1.6414,-1.4287,-1.2303,0.0,0.0,0.0,0.0,0.0,0.0,0.0,0.0,0.0,0.0,0.0,-1.3034,-1.2562,-1.4563,-1.5426,-1.4706,-1.4531,-1.4218,-1.3598,-1.3319,-1.3228,-1.3346,-1.3926,-1.4024,-1.3176,-1.3733,-1.425,-1.4649,-1.3825,-1.3615,-1.4656,-1.3011,-1.1578,-1.1635,-1.2117,-1.2594,-1.2655,-1.3137,-1.3607,-1.3607,-1.3607,-1.3607,-1.3602,-1.3558,-1.3095,-1.2235,-1.0203,-0.8437,-0.7401,-0.5295,-0.3238,-0.2436,-0.1822,-0.1216,-0.0612,-0.0203,0.0,0.0,0.0,0.0,-4.9076,-4.8195,-4.7402,-4.6166,-4.4583,-4.3174,-4.2683,-4.2781,-4.2525,-4.249,-4.264,-4.211,-4.1329,-4.0536,-4.0989,-4.0837,-4.0246,-4.0666,-4.1089,-4.1677,-4.1634,-4.176,-4.2283,-4.1957,-4.1678,-4.1241,-4.0,-3.8866,-3.8008,-3.6923,-3.534,-3.3583,-3.3788,-3.2553,-2.9994,-2.871,-2.7664,-2.6977,-2.8353,-2.9627,-3.091,-2.9536,-2.7341,-2.4388,-2.3202,-2.1084,-1.773,-1.7027,-1.6519,-1.6026,-1.5175,-1.4939,-1.5325,-1.2965,-1.174,0.0,-1.0233,0.0,0.0,0.0,0.0,0.0,0.0,0.0,0.0,-1.4695,-1.4611,-1.4415,-1.5845,-1.5939,-1.4473,-1.4171,-1.4434,-1.499,-1.495,-1.518,-1.5635,-1.5798,-1.5879,-1.5886,-1.5618,-1.5711,-1.5917,-1.4936,-1.427,-1.4723,-1.4042,-1.3321,-1.3591,-1.3586,-1.3591,-1.3607,-1.3607,-1.3607,-1.3607,-1.3607,-1.3607,-1.3597,-1.3531,-1.3268,-1.2922,-1.0834,-0.9045,-0.8465,-0.6338,-0.4466,-0.3476,-0.2844,-0.2027,-0.1229,-0.0612,0.0,0.0,0.0,0.0,-4.9165,-4.8303,-4.7052,-4.5813,-4.4626,-4.3298,-4.2683,-4.2525,-4.2549,-4.2254,-4.1942,-4.1999,-4.1775,-4.1511,-4.1369,-4.1254,-4.1241,-4.1089,-4.1286,-4.1677,-4.1038,-4.105,-4.1391,-4.1018,-4.0953,-4.1001,-4.1042,-4.0187,-3.8457,-3.7632,-3.5705,-3.2909,-3.2201,-3.0839,-2.8901,0.0,0.0,0.0,-2.7541,-2.8524,-2.8413,-2.6326,-2.4353,-2.2644,-2.163,0.0,-1.8068,-1.7214,-1.6544,-1.6042,-1.5516,0.0,0.0,0.0,0.0,0.0,0.0,0.0,0.0,0.0,0.0,0.0,-1.4457,-1.4679,-1.5227,-1.5615,-1.5888,-1.6553,-1.6808,-1.7261,-1.7787,-1.7772,-1.7406,-1.6736,-1.6831,-1.6529,-1.6007,-1.5947,-1.6035,-1.6042,-1.6171,-1.6065,-1.6071,-1.5405,-1.4723,-1.5032,-1.4053,-1.3493,-1.3591,-1.3602,-1.3607,-1.3607,-1.3607,-1.3607,-1.3607,-1.3607,-1.3607,-1.3597,-1.3591,-1.2906,-1.1163,-1.0065,-0.8535,-0.7058,-0.5143,-0.4084,-0.3479,-0.2846,-0.2233,-0.165,-0.1033,-0.0617,0.0,0.0,0.0,-4.8924,0.0,-4.6598,-4.5422,0.0,-4.34,-4.285,-4.2711,-4.2471,-4.2328,-4.2327,-4.2186,-4.1937,-4.1572,-4.1432,-4.1286,-4.1243,-4.1133,-4.1262,-4.1655,-4.1085,-4.0969,-4.1229,-4.1092,-4.0932,-4.0813,-4.1063,-4.031,-3.8574,-3.7824,-3.6015,-3.35,-3.278,-3.1872,-3.079,-3.0475,-2.9355,-2.7282,-2.803,-2.8745,-2.9215,-2.8054,-2.639,-2.4068,-2.2888,0.0,0.0,0.0,0.0,0.0,0.0,0.0,0.0,-1.5594,0.0,-1.6179,-1.5211,-1.5113,-1.6084,-1.6242,-1.6741,-1.7746,-1.8182,-1.7885,-1.6788,-1.7569,-1.8174,-1.8169,-1.8002,-1.808,-1.8826,-1.8777,-1.8407,-1.7592,-1.7419,-1.7057,-1.6151,-1.6035,-1.6076,-1.6096,-1.6011,-1.5903,-1.6313,-1.5277,-1.4801,-1.5087,-1.411,-1.351,-1.352,-1.3569,-1.3602,-1.3607,-1.3607,-1.3607,-1.3607,-1.3607,-1.3602,-1.3602,-1.3132,-1.2235,-1.1136,-0.9792,-0.8276,-0.68,-0.5319,-0.4276,-0.3679,-0.305,-0.2436,-0.2052,-0.1438,-0.0819,-0.0407,-0.0204,0.0,-4.8651,-4.712,-4.6113,-4.4969,-4.3861,-4.3321,-4.2952,-4.2895,0.0,0.0,0.0,-4.2397,-4.1911,-4.1338,-4.1328,-4.1177,-4.1,-4.1,-4.1306,-4.1673,-4.1216,-4.1012,-4.1143,-4.1167,-4.0941,-4.0745,-4.0838,-4.0166,-3.8574,-3.7805,-3.618,-3.4282,-3.3792,-3.3432,-3.2869,-3.253,-3.1407,-2.9746,-2.8743,-2.8966,-3.0217,-2.9827,-2.8302,-2.5496,-2.4007,-2.1904,-1.8922,-1.6908,-1.5918,-1.5949,-1.5257,-1.4987,-1.5496,-1.5533,-1.5622,-1.5609,-1.5771,-1.6649,-1.8431,-1.8617,-1.9375,-2.131,-2.148,-2.0819,-1.8715,-1.9811,-2.0316,-1.9581,-1.9204,-1.9068,-1.9013,-1.8907,-1.8348,-1.784,-1.7545,-1.6933,-1.6261,-1.611,-1.613,-1.6137,-1.5883,-1.5982,-1.6205,-1.539,-1.4695,-1.4904,-1.4127,-1.3526,-1.3439,-1.3488,-1.3569,-1.3597,-1.358,-1.3575,-1.3597,-1.3542,-1.3553,-1.3132,-1.2415,-1.1725,-1.1073,-0.9522,-0.8004,-0.7187,-0.5905,-0.4677,-0.4086,-0.3253,-0.2635,-0.2656,-0.1832,-0.1015,-0.1022,-0.0618,0.0,-4.8569,-4.7323,-4.5578,-4.4776,-4.4699,-4.3105,-4.2496,-4.2574,-4.2701,-4.2451,-4.2071,-4.2006,-4.1678,-4.1315,-4.0973,-4.0978,-4.1,-4.1,-4.1346,-4.1762,-4.1015,-4.0997,-4.1383,-4.0667,-4.0568,-4.09,-4.0841,-4.0146,-3.872,-3.7824,-3.6219,-3.4108,-3.3831,-3.3402,-3.2874,-3.2489,-3.1798,-3.1182,-2.8952,-2.8027,-2.8234,-2.6134,-2.4637,-2.3762,-2.2455,-2.0843,-1.9126,-1.7965,-1.6844,-1.5943,-1.5432,-1.6034,-1.7629,-1.7591,-1.8304,-1.978,-2.0171,-2.0483,-2.0705,-2.089,-2.1358,-2.1915,-2.199,-2.1615,-2.0843,-2.1449,-2.1338,-2.0132,-2.0141,-2.0166,-1.9413,-1.8789,-1.8387,-1.7855,-1.7246,-1.6651,-1.609,-1.6191,-1.6273,-1.6279,-1.6524,-1.6467,-1.6473,-1.5774,-1.5203,-1.4916,-1.4255,-1.3401,-1.3325,-1.3368,-1.3488,-1.3564,-1.3515,-1.3499,-1.3564,-1.3423,-1.2974,-1.2176,-1.1904,-1.0799,-0.9354,-0.8486,-0.7635,-0.6412,-0.533,-0.4698,-0.4295,-0.3658,-0.3043,-0.3062,-0.2449,-0.2042,-0.2046,-0.1641,-0.1026,-4.8631,-4.7427,-4.5771,-4.49,-4.4615,-4.3433,-4.2895,-4.2849,-4.2603,-4.2328,-4.1914,-4.1859,-4.1696,-4.1481,-4.1596,-4.1549,-4.1393,-4.1407,-4.1467,-4.1481,-4.0857,-4.0721,-4.1032,-4.0584,-4.0568,-4.0862,-4.0882,-4.0002,-3.8263,-3.7364,-3.5867,-3.3551,-3.3175,-3.2842,-3.2523,-3.2247,-3.1994,-3.1482,-3.0159,-2.9424,-2.9424,-2.8261,-2.735,-2.6684,-2.5313,-2.3904,-2.2804,-2.1229,-2.0305,-2.0037,-1.9328,-1.9428,-2.0355,-2.0087,-2.0281,-2.1159,-2.1282,-2.1385,-2.1499,-2.1593,-2.1773,-2.2056,-2.2094,-2.1948,-2.1466,-2.1475,-2.0925,-2.0029,-2.0038,-1.9849,-1.9256,-1.8853,-1.8259,-1.7665,-1.7268,-1.6708,-1.6392,-1.6259,-1.6334,-1.6429,-1.6612,-1.6748,-1.6748,-1.6041,-1.5654,-1.5522,-1.4565,-1.3637,-1.3227,-1.3232,-1.3298,-1.3455,-1.3461,-1.3482,-1.3569,-1.3311,-1.2629,-1.2045,-1.0865,-0.9955,-0.8493,-0.7828,-0.6956,-0.5927,-0.5295,-0.4675,-0.4065,-0.3647,-0.3239,-0.3245,-0.2845,-0.2442,-0.2452,-0.2048,-0.1432,-4.8575,-4.7403,-4.5849,-4.4744,-4.4012,-4.3569,-4.3333,-4.3075,-4.257,-4.2061,-4.1746,-4.1961,-4.1792,-4.1595,-4.2009,-4.2027,-4.1786,-4.1683,-4.1568,-4.1194,-4.0784,-4.0604,-4.0745,-4.0766,-4.0813,-4.0841,-4.0882,-3.9858,-3.8117,-3.7217,-3.5623,-3.3381,-3.2722,-3.2283,-3.2143,-3.2171,-3.2009,-3.1316,-3.0984,-3.0817,-3.0817,-3.0817,-3.0527,-2.9944,-2.8273,-2.7068,-2.6151,-2.4252,-2.3147,-2.302,-2.2301,-2.2021,-2.1989,-2.1644,-2.1423,-2.1367,-2.1442,-2.1584,-2.183,-2.1858,-2.1943,-2.2141,-2.216,-2.2032,-2.1585,-2.1022,-2.0646,-2.0097,-1.9726,-1.9519,-1.9313,-1.8679,-1.8061,-1.7672,-1.7106,-1.6578,-1.6286,-1.6368,-1.6442,-1.6571,-1.6707,-1.6795,-1.6574,-1.6223,-1.5787,-1.519,-1.4398,-1.3514,-1.314,-1.3096,-1.3162,-1.307,-1.3134,-1.2958,-1.3074,-1.2609,-1.1963,-1.1163,-0.9983,-0.8859,-0.801,-0.7122,-0.627,-0.5661,-0.5053,-0.4649,-0.404,-0.3433,-0.3231,-0.3234,-0.2831,-0.2633,-0.2646,-0.2243,-0.163,-4.8221,-4.7002,-4.5219,-4.359,-4.2688,-4.319,-4.3298,-4.2799,-4.242,-4.1934,-4.1489,-4.1831,-4.1792,-4.1573,-4.1702,-4.1765,-4.1721,-4.1337,-4.1302,-4.121,-4.0835,-4.0787,-4.0921,-4.0942,-4.0841,-4.0882,-4.0862,-3.9858,-3.797,-3.7364,-3.5899,-3.3409,-3.271,-3.2107,-3.1818,-3.2006,-3.1828,-3.0817,-3.0817,-3.0817,-3.0817,-3.0817,-3.0964,-3.1087,-2.9234,-2.7939,-2.6992,-2.5293,-2.3635,-2.2188,-2.2014,-2.1665,-2.1325,-2.1325,-2.1159,-2.1215,-2.1385,-2.1641,-2.2009,-2.2066,-2.2151,-2.234,-2.2349,-2.2163,-2.1603,-2.1022,-2.0707,-2.044,-2.0291,-1.9867,-1.9484,-1.8551,-1.7878,-1.7702,-1.6799,-1.6293,-1.6347,-1.6551,-1.6714,-1.672,-1.6856,-1.691,-1.6795,-1.6366,-1.5427,-1.4626,-1.3949,-1.3261,-1.2999,-1.3037,-1.2861,-1.2491,-1.2084,-1.172,-1.1803,-1.126,-1.0453,-0.9038,-0.8764,-0.8326,-0.731,-0.669,-0.6259,-0.5251,-0.4847,-0.4444,-0.3635,-0.323,-0.323,-0.323,-0.3029,-0.303,-0.3033,-0.3035,-0.2426,-4.8548,-4.7865,-4.5663,-4.4152,-4.3337,-4.3214,-4.308,-4.2799,-4.242,-4.1783,-4.1102,-4.1547,-4.1662,-4.1683,-4.1896,-4.2114,-4.2136,-4.2007,-4.1796,-4.1358,-4.1193,-4.1142,-4.0862,-4.0882,-4.0882,-4.0882,-4.0596,-3.957,-3.7658,-3.5587,-3.3991,-3.2839,-3.2553,-3.2107,-3.1655,-3.2006,-3.1677,-3.0817,-3.0817,-3.092,-3.1081,-3.111,-3.0933,-3.0709,-2.9339,-2.8127,-2.6759,-2.5489,-2.4,-2.2811,-2.2462,-2.2327,-2.227,-2.1721,-2.1649,-2.2077,-2.2097,-2.2085,-2.2255,-2.2274,-2.2302,-2.2387,-2.2387,-2.2191,-2.2004,-2.1317,-2.0838,-2.069,-2.0224,-1.956,-1.8956,-1.8107,-1.7511,-1.7399,-1.6675,-1.6374,-1.6564,-1.6673,-1.6781,-1.687,-1.6944,-1.6965,-1.689,-1.6386,-1.5666,-1.4717,-1.4042,-1.3525,-1.302,-1.284,-1.2424,-1.2171,-1.1143,-1.0811,-1.133,-1.0509,-0.9443,-0.8837,-0.8389,-0.7528,-0.6913,-0.648,-0.6057,-0.5049,-0.4847,-0.4444,-0.3433,-0.323,-0.323,-0.323,-0.323,-0.323,-0.323,-0.323,-0.2625,-4.8694,-4.7944,-4.5831,-4.4407,-4.3699,-4.3238,-4.298,-4.2776,-4.242,-4.1783,-4.1209,-4.1283,-4.1573,-4.168,-4.2136,-4.2485,-4.2522,-4.2408,-4.2107,-4.1431,-4.1305,-4.1167,-4.0882,-4.0882,-4.0882,-4.074,-4.0453,-3.9136,-3.6922,-3.4087,-3.2632,-3.2527,-3.2411,-3.2107,-3.1655,-3.2006,-3.1662,-3.0832,-3.0905,-3.111,-3.1402,-3.1534,-3.1338,-3.0878,-2.9515,-2.8245,-2.7071,-2.5627,-2.428,-2.3199,-2.2637,-2.2552,-2.2763,-2.2034,-2.1849,-2.2625,-2.2421,-2.233,-2.2378,-2.2387,-2.2387,-2.2387,-2.2387,-2.2397,-2.2023,-2.1551,-2.1036,-2.063,-1.9932,-1.9075,-1.8527,-1.8137,-1.7592,-1.7099,-1.6766,-1.6524,-1.6714,-1.6781,-1.6863,-1.6958,-1.6971,-1.6958,-1.6904,-1.6359,-1.5628,-1.5208,-1.4729,-1.3831,-1.3344,-1.2705,-1.2465,-1.1752,-1.0524,-1.0159,-1.0666,-0.9844,-0.9053,-0.8427,-0.776,-0.7328,-0.673,-0.6482,-0.6057,-0.5049,-0.4847,-0.4444,-0.3433,-0.323,-0.323,-0.323,-0.323,-0.323,-0.323,-0.323,-0.3025,-4.8263,-4.7169,-4.5433,-4.4001,-4.2808,-4.3337,-4.3227,-4.2822,-4.2546,-4.2166,-4.1678,-4.1466,-4.1347,-4.1485,-4.2119,-4.2522,-4.2473,-4.2257,-4.1855,-4.141,-4.1167,-4.0882,-4.0882,-4.0882,-4.0719,-4.0453,-4.031,-3.8826,-3.6312,-3.3802,-3.2632,-3.2544,-3.2427,-3.2122,-3.1833,-3.2022,-3.1662,-3.1042,-3.1124,-3.1432,-3.1768,-3.2061,-3.2207,-3.1903,-3.0326,-2.9047,-2.8193,-2.6083,-2.4097,-2.2637,-2.2278,-2.2006,-2.2192,-2.1865,-2.1697,-2.2047,-2.2113,-2.2198,-2.2359,-2.2387,-2.2387,-2.2387,-2.2406,-2.2201,-2.1836,-2.1273,-2.0698,-2.0063,-1.9676,-1.9123,-1.8644,-1.8066,-1.7695,-1.7134,-1.6762,-1.6707,-1.6754,-1.6883,-1.6958,-1.6978,-1.6978,-1.6937,-1.6795,-1.6014,-1.5776,-1.5564,-1.5115,-1.4481,-1.3449,-1.3027,-1.2359,-1.106,-1.0202,-0.9572,-0.9109,-0.8738,-0.7917,-0.73,-0.7316,-0.708,-0.6869,-0.6461,-0.5654,-0.5251,-0.4847,-0.4242,-0.3635,-0.323,-0.323,-0.323,-0.323,-0.323,-0.323,-0.323,-0.3025,-4.827,-4.6701,-4.5555,-4.4734,-4.4224,-4.3941,-4.3695,-4.3428,-4.3553,-4.2799,-4.1678,-4.1806,-4.182,-4.1551,-4.179,-4.2087,-4.215,-4.201,-4.1877,-4.1473,-4.1331,-4.1188,-4.0882,-4.0882,-4.0882,-4.0596,-4.0146,-3.8826,-3.6645,-3.4633,-3.3735,-3.3479,-3.3049,-3.2613,-3.2437,-3.2278,-3.1934,-3.1628,-3.1425,-3.1534,-3.1973,-3.2193,-3.2383,-3.2588,-3.0807,-2.923,-2.8436,-2.6458,-2.4463,-2.2637,-2.2953,-2.294,-2.2606,-2.2489,-2.251,-2.2255,-2.2283,-2.2312,-2.2378,-2.2387,-2.2387,-2.2397,-2.2519,-2.2388,-2.1803,-2.1209,-2.082,-2.0207,-1.9709,-1.8908,-1.816,-1.8051,-1.7559,-1.6856,-1.6625,-1.6795,-1.6876,-1.6951,-1.6978,-1.6978,-1.6978,-1.6951,-1.6897,-1.6426,-1.5983,-1.5774,-1.4934,-1.4059,-1.3374,-1.2522,-1.1447,-1.0947,-1.0262,-0.9397,-0.8557,-0.7941,-0.7528,-0.7098,-0.7086,-0.6887,-0.648,-0.606,-0.5654,-0.5049,-0.4645,-0.4038,-0.3433,-0.323,-0.323,-0.323,-0.323,-0.323,-0.323,-0.323,-0.3225,-4.8078,-4.6731,-4.583,-4.5385,-4.5092,-4.435,-4.394,-4.3903,-4.4299,-4.3553,-4.2316,-4.242,-4.2221,-4.1853,-4.1661,-4.1738,-4.1856,-4.186,-4.1594,-4.1331,-4.1331,-4.1167,-4.0882,-4.0882,-4.0882,-4.0596,-3.957,-3.8243,-3.6664,-3.5397,-3.4539,-3.3975,-3.3562,-3.3127,-3.2772,-3.2339,-3.2176,-3.193,-3.1587,-3.171,-3.2322,-3.2368,-3.2544,-3.2557,-3.0973,-2.9349,-2.8436,-2.6458,-2.4463,-2.3036,-2.3221,-2.3279,-2.2833,-2.2974,-2.2974,-2.2593,-2.2387,-2.2387,-2.2387,-2.2387,-2.2387,-2.2397,-2.2519,-2.2435,-2.1895,-2.1262,-2.0864,-2.0266,-1.9767,-1.8861,-1.8114,-1.7866,-1.7632,-1.6735,-1.67,-1.6863,-1.6965,-1.6978,-1.6978,-1.6978,-1.6978,-1.6978,-1.6978,-1.6551,-1.6335,-1.592,-1.4868,-1.3979,-1.287,-1.2006,-1.0927,-1.0631,-1.0124,-0.9447,-0.8589,-0.7964,-0.7328,-0.7098,-0.6887,-0.669,-0.628,-0.6063,-0.545,-0.4847,-0.4444,-0.3836,-0.3433,-0.3231,-0.323,-0.323,-0.323,-0.323,-0.323,-0.323,-0.3227,-4.7838,-4.7171,-4.5969,-4.5577,-4.5404,-4.4569,-4.3964,-4.4127,-4.4669,-4.4299,-4.3302,-4.3326,-4.3121,-4.244,-4.2104,-4.1721,-4.1847,-4.1775,-4.1452,-4.1167,-4.1025,-4.1025,-4.0882,-4.0882,-4.0781,-4.0371,-3.8885,-3.7568,-3.6496,-3.5977,-3.5123,-3.4042,-3.409,-3.3645,-3.2819,-3.2535,-3.2206,-3.2005,-3.1948,-3.1929,-3.228,-3.2544,-3.2676,-3.2543,-3.0945,-2.9349,-2.8436,-2.6095,-2.4097,-2.2841,-2.2869,-2.2994,-2.301,-2.3062,-2.2974,-2.2583,-2.2387,-2.2387,-2.2397,-2.2406,-2.2425,-2.2416,-2.2425,-2.2388,-2.1876,-2.1191,-2.0777,-2.0274,-1.9767,-1.8861,-1.7931,-1.7955,-1.7727,-1.6756,-1.6775,-1.6951,-1.6971,-1.6978,-1.6978,-1.6978,-1.6978,-1.6978,-1.6985,-1.6768,-1.6348,-1.55,-1.4862,-1.4013,-1.252,-1.1671,-1.1222,-1.0512,-1.0008,-0.9526,-0.8848,-0.8178,-0.7531,-0.6893,-0.6687,-0.6485,-0.6272,-0.6057,-0.5452,-0.4847,-0.424,-0.3635,-0.3433,-0.323,-0.323,-0.323,-0.323,-0.323,-0.323,-0.323,-0.323,-4.8565,-4.7827,-4.7018,-4.6535,-4.6263,-4.5544,-4.5159,-4.5159,-4.5671,-4.5159,-4.4175,-4.4422,-4.4367,-4.3786,-4.3225,-4.3196,-4.3287,-4.2813,-4.2278,-4.1714,-4.1573,-4.1452,-4.1025,-4.0882,-4.074,-4.0428,-3.9885,-3.916,-3.8254,-3.7564,-3.6635,-3.5361,-3.4742,-3.4164,-3.336,-3.272,-3.2479,-3.2614,-3.2082,-3.1929,-3.2352,-3.2339,-3.2412,-3.2208,-3.082,-2.9349,-2.8436,-2.6083,-2.4097,-2.2647,-2.3365,-2.3776,-2.3575,-2.2945,-2.2583,-2.2387,-2.2387,-2.2387,-2.2406,-2.2519,-2.2538,-2.251,-2.2775,-2.2678,-2.1968,-2.1377,-2.0968,-2.0333,-1.9767,-1.89,-1.8051,-1.8022,-1.7538,-1.6524,-1.6795,-1.6978,-1.6978,-1.6978,-1.6978,-1.6978,-1.6978,-1.6978,-1.6768,-1.6558,-1.571,-1.5072,-1.4019,-1.254,-1.2122,-1.1276,-1.0636,-1.0171,-1.0094,-0.9808,-0.912,-0.8444,-0.7786,-0.714,-0.6718,-0.6499,-0.628,-0.5856,-0.5251,-0.4643,-0.4038,-0.3635,-0.3231,-0.323,-0.323,-0.323,-0.323,-0.323,-0.323,-0.323,-0.323,-4.9045,-4.8379,-4.747,-4.7026,-4.6824,-4.6075,-4.5619,-4.5743,-4.618,-4.555,-4.4816,-4.5257,-4.5254,-4.4682,-4.4132,-4.4089,-4.4186,-4.3707,-4.3258,-4.27,-4.2159,-4.1735,-4.1331,-4.1212,-4.0822,-4.0525,-4.0412,-3.9889,-3.8956,-3.8434,-3.762,-3.6535,-3.5638,-3.5112,-3.4322,-3.3271,-3.28,-3.2935,-3.2312,-3.1871,-3.1988,-3.2076,-3.2134,-3.2048,-3.1021,-2.9766,-2.8604,-2.6446,-2.4269,-2.3077,-2.3061,-2.3305,-2.3511,-2.2974,-2.2387,-2.2387,-2.2397,-2.2425,-2.251,-2.2633,-2.251,-2.251,-2.2791,-2.2701,-2.1684,-2.1309,-2.1029,-2.0125,-1.9362,-1.8734,-1.8104,-1.7857,-1.7355,-1.6605,-1.6829,-1.6965,-1.6978,-1.6978,-1.6978,-1.6978,-1.6978,-1.6768,-1.6341,-1.592,-1.4862,-1.4019,-1.2752,-1.1699,-1.1276,-1.064,-1.0428,-1.0196,-1.0126,-0.9852,-0.9396,-0.8718,-0.8253,-0.7604,-0.6965,-0.6738,-0.6515,-0.5466,-0.4847,-0.424,-0.3433,-0.3433,-0.323,-0.323,-0.323,-0.323,-0.323,-0.323,-0.323,-0.323,-0.323,-4.9126,-4.8921,-4.7508,-4.7004,-4.701,-4.6011,-4.561,-4.5476,-4.6059,-4.5793,-4.5257,-4.5798,-4.5719,-4.4976,-4.4851,-4.4787,-4.4704,-4.4414,-4.4228,-4.3814,-4.284,-4.1997,-4.1636,-4.1563,-4.1254,-4.0666,-4.0604,-3.9941,-3.9127,-3.8831,-3.8291,-3.7454,-3.6558,-3.595,-3.5393,-3.3641,-3.2876,-3.2874,-3.2312,-3.1856,-3.1798,-3.1856,-3.1959,-3.2222,-3.126,-3.0369,-2.913,-2.6809,-2.4646,-2.2912,-2.2169,-2.2356,-2.3082,-2.2779,-2.2387,-2.2387,-2.2397,-2.2519,-2.2661,-2.2784,-2.2641,-2.2543,-2.2847,-2.2406,-2.1344,-2.1282,-2.082,-1.9925,-1.8996,-1.8398,-1.7963,-1.7698,-1.7228,-1.6754,-1.6897,-1.6971,-1.6978,-1.6978,-1.6978,-1.6978,-1.6978,-1.6558,-1.55,-1.5283,-1.4019,-1.2752,-1.1911,-1.1276,-1.064,-1.0216,-1.0216,-1.0187,-1.0147,-0.9912,-0.9667,-0.918,-0.8514,-0.7912,-0.7247,-0.6783,-0.6346,-0.5496,-0.4459,-0.3848,-0.3232,-0.3232,-0.3231,-0.3231,-0.3231,-0.323,-0.323,-0.323,-0.323,-0.323,-0.323,-4.9221,-4.8663,-4.7548,-4.7195,-4.7061,-4.6339,-4.603,-4.6035,-4.618,-4.6059,-4.6038,-4.6266,-4.6488,-4.6528,-4.5977,-4.595,-4.6013,-4.5414,-4.5074,-4.48,-4.3536,-4.2116,-4.1393,-4.1503,-4.146,-4.1198,-4.1043,-4.0798,-4.0449,-3.9738,-3.9098,-3.8199,-3.7327,-3.647,-3.551,-3.4032,-3.312,-3.2753,-3.2461,-3.19,-3.1593,-3.1929,-3.2061,-3.1786,-3.1478,-3.0848,-3.0052,-2.716,-2.4616,-2.2715,-2.2086,-2.2356,-2.3511,-2.2974,-2.2583,-2.2798,-2.2736,-2.2642,-2.2756,-2.2992,-2.2913,-2.2847,-2.3081,-2.3072,-2.2232,-2.1828,-2.1168,-2.0225,-1.9372,-1.8488,-1.7822,-1.7483,-1.7169,-1.7099,-1.6951,-1.6978,-1.6978,-1.6978,-1.6978,-1.6978,-1.6341,-1.571,-1.5072,-1.3808,-1.2757,-1.1911,-1.1276,-1.064,-1.0216,-1.0216,-1.0216,-1.0216,-1.0192,-1.0179,-0.9932,-0.9446,-0.9009,-0.8426,-0.7752,-0.704,-0.6391,-0.5538,-0.4498,-0.3673,-0.3449,-0.324,-0.3235,-0.3231,-0.3231,-0.323,-0.323,-0.323,-0.323,-0.323,-0.323,-4.9152,-4.8653,-4.7729,-4.7324,-4.7205,-4.6661,-4.6421,-4.6301,-4.618,-4.5939,-4.5991,-4.6539,-4.6784,-4.6749,-4.6549,-4.6523,-4.654,-4.5754,-4.521,-4.4708,-4.3477,-4.2295,-4.1605,-4.1793,-4.1994,-4.1664,-4.131,-4.0938,-4.0693,-4.0048,-3.9394,-3.8625,-3.7761,-3.671,-3.6088,-3.4485,-3.3487,-3.3041,-3.2609,-3.2017,-3.1607,-3.1871,-3.2046,-3.2032,-3.1872,-3.138,-2.9993,-2.733,-2.478,-2.3203,-2.2554,-2.2931,-2.3511,-2.318,-2.2788,-2.2994,-2.2793,-2.2746,-2.2879,-2.3153,-2.31,-2.3109,-2.3325,-2.2979,-2.2111,-2.1785,-2.1342,-1.9695,-1.9135,-1.8231,-1.7747,-1.7418,-1.7301,-1.6958,-1.6978,-1.6978,-1.6978,-1.6978,-1.6978,-1.6768,-1.6131,-1.5072,-1.4651,-1.2963,-1.1911,-1.1271,-1.064,-1.0428,-1.0216,-1.0216,-1.0216,-1.0216,-1.0208,-1.0187,-1.0126,-0.9635,-0.8987,-0.8416,-0.7393,-0.6684,-0.6026,-0.5377,-0.4333,-0.3495,-0.3469,-0.325,-0.3249,-0.3243,-0.3231,-0.323,-0.323,-0.323,-0.323,-0.323,-0.323,-4.8859,-4.8615,-4.7873,-4.7442,-4.7112,-4.69,-4.6566,-4.6205,-4.6159,-4.5845,-4.5822,-4.656,-4.6773,-4.6078,-4.6598,-4.6674,-4.6429,-4.587,-4.5004,-4.4331,-4.3305,-4.2394,-4.2001,-4.2287,-4.2317,-4.1898,-4.1401,-4.1112,-4.0743,-3.9857,-3.9304,-3.8962,-3.8004,-3.7115,-3.6346,-3.4658,-3.37,-3.3375,-3.2976,-3.2337,-3.1871,-3.2116,-3.2293,-3.2237,-3.2281,-3.1315,-2.9805,-2.7561,-2.5492,-2.3693,-2.3493,-2.3325,-2.3296,-2.3365,-2.2974,-2.2827,-2.2802,-2.2812,-2.3011,-2.3228,-2.324,-2.3146,-2.339,-2.2922,-2.1722,-2.1508,-2.1054,-1.9222,-1.861,-1.8108,-1.7597,-1.7106,-1.6951,-1.6978,-1.6978,-1.6978,-1.6978,-1.6978,-1.6978,-1.6768,-1.571,-1.4651,-1.3591,-1.254,-1.1271,-1.0852,-1.0428,-1.0216,-1.0216,-1.0216,-1.0216,-1.0216,-1.0204,-1.0187,-1.011,-1.0024,-0.9188,-0.8584,-0.6966,-0.6103,-0.5446,-0.4798,-0.4164,-0.3524,-0.3296,-0.3284,-0.328,-0.3266,-0.3246,-0.3235,-0.3239,-0.3235,-0.323,-0.323,-0.323,-4.8663,-4.7847,-4.7468,-4.7112,-4.69,-4.6566,-4.6205,-4.5988,-4.6509,-4.6414,-4.6191,-4.7101,-4.7262,-4.6819,-4.6632,-4.6405,-4.6341,-4.5988,-4.5455,-4.442,-4.3644,-4.3068,-4.2559,-4.259,-4.233,-4.2079,-4.1776,-4.1539,-4.1265,-4.0796,-4.0253,-3.944,-3.8389,-3.7487,-3.6379,-3.5004,-3.3777,-3.3472,-3.3255,-3.2703,-3.2234,-3.2644,-3.2791,-3.2412,-3.2424,-3.1623,-3.0274,-2.8686,-2.7259,-2.5861,-2.4356,-2.3677,-2.4044,-2.3561,-2.3365,-2.3424,-2.3038,-2.286,-2.3039,-2.3323,-2.3578,-2.3409,-2.3418,-2.3137,-2.2355,-2.1836,-2.0984,-1.9442,-1.8662,-1.8106,-1.7322,-1.7161,-1.6978,-1.6978,-1.6978,-1.6978,-1.6978,-1.6978,-1.6768,-1.571,-1.4651,-1.3597,-1.254,-1.1483,-1.064,-1.0216,-1.0216,-1.0216,-1.0216,-1.0216,-1.0216,-1.0216,-1.0212,-1.0196,-1.0151,-0.986,-0.9195,-0.8156,-0.6946,-0.551,-0.5062,-0.4421,-0.378,-0.3556,-0.3329,-0.332,-0.3311,-0.3288,-0.3268,-0.3258,-0.3247,-0.3239,-0.3234,-0.3232,-0.323,-4.8521,-4.7677,-4.7324,-4.7146,-4.711,-4.6547,-4.6209,-4.6215,-4.6488,-4.639,-4.6113,-4.689,-4.7094,-4.6882,-4.657,-4.6405,-4.6048,-4.5187,-4.4339,-4.3616,-4.3149,-4.2941,-4.2911,-4.2535,-4.2333,-4.2301,-4.1758,-4.1515,-4.1314,-4.0913,-4.0101,-3.9143,-3.8494,-3.7363,-3.6182,-3.4956,-3.434,-3.3792,-3.3785,-3.3275,-3.2572,-3.3085,-3.3176,-3.2453,-3.2318,-3.1889,-3.111,-2.9123,-2.8083,-2.7001,-2.5381,-2.425,-2.4442,-2.3951,-2.3766,-2.3415,-2.3217,-2.285,-2.3049,-2.3294,-2.3531,-2.3625,-2.3635,-2.3165,-2.2482,-2.214,-2.1094,-1.9384,-1.8581,-1.8222,-1.7188,-1.6978,-1.6978,-1.6978,-1.6978,-1.6978,-1.6978,-1.6978,-1.6558,-1.5493,-1.444,-1.3174,-1.2118,-1.0852,-1.0432,-1.0224,-1.0216,-1.0216,-1.0216,-1.0216,-1.0216,-1.0216,-1.0216,-1.0204,-1.0183,-0.9702,-0.9001,-0.7957,-0.6722,-0.5501,-0.4665,-0.4238,-0.3601,-0.3585,-0.3359,-0.335,-0.3339,-0.3314,-0.3291,-0.3273,-0.326,-0.3246,-0.3236,-0.3232,-0.323,-4.86,-4.7586,-4.7427,-4.735,-4.7243,-4.6622,-4.6359,-4.6464,-4.634,-4.6263,-4.5954,-4.6569,-4.7051,-4.6813,-4.6485,-4.6429,-4.5621,-4.4403,-4.3292,-4.3312,-4.2732,-4.2683,-4.2775,-4.2607,-4.239,-4.2182,-4.1601,-4.1375,-4.1171,-4.0767,-3.9988,-3.8597,-3.8323,-3.7447,-3.5906,-3.5225,-3.4669,-3.4272,-3.4288,-3.3807,-3.3058,-3.3293,-3.325,-3.2649,-3.231,-3.2038,-3.1208,-2.9441,-2.8017,-2.832,-2.6197,-2.4918,-2.4605,-2.433,-2.3756,-2.318,-2.3038,-2.285,-2.303,-2.3257,-2.3483,-2.3625,-2.3428,-2.3014,-2.2184,-2.176,-2.0712,-1.9469,-1.8432,-1.7811,-1.7188,-1.6978,-1.6978,-1.6978,-1.6978,-1.6985,-1.7005,-1.6802,-1.6169,-1.5072,-1.3808,-1.254,-1.1694,-1.064,-1.0436,-1.0228,-1.0224,-1.0224,-1.0228,-1.022,-1.022,-1.0216,-1.0216,-1.0175,-1.0151,-0.9928,-0.9229,-0.7974,-0.6725,-0.5703,-0.4888,-0.4253,-0.3825,-0.3612,-0.3389,-0.3378,-0.3365,-0.3345,-0.3321,-0.3294,-0.327,-0.3257,-0.3245,-0.3232,-0.323,-4.859,-4.7375,-4.7744,-4.7383,-4.6597,-4.6351,-4.6287,-4.6291,-4.6884,-4.6949,-4.6617,-4.7327,-4.7593,-4.7269,-4.6603,-4.5963,-4.5112,-4.3872,-4.3461,-4.3552,-4.3043,-4.2844,-4.2779,-4.2677,-4.2281,-4.1915,-4.1658,-4.1433,-4.1209,-4.1241,-4.0192,-3.8767,-3.8323,-3.7291,-3.5922,-3.5225,-3.4875,-3.47,-3.47,-3.4349,-3.3646,-3.353,-3.3354,-3.2613,-3.2167,-3.1861,-3.1302,-2.9479,-2.8041,-2.8284,-2.6185,-2.512,-2.4615,-2.4115,-2.3746,-2.3258,-2.3144,-2.2964,-2.3077,-2.3361,-2.355,-2.3428,-2.3221,-2.2806,-2.2184,-2.1561,-2.052,-1.9059,-1.7811,-1.7188,-1.6978,-1.6978,-1.6985,-1.6985,-1.6985,-1.7032,-1.6909,-1.6286,-1.5405,-1.4292,-1.2994,-1.1911,-1.1068,-1.0661,-1.0478,-1.0269,-1.0265,-1.0277,-1.0298,-1.0265,-1.0228,-1.0224,-1.0216,-1.0163,-1.0106,-1.0102,-0.9655,-0.8409,-0.7372,-0.6333,-0.5305,-0.4682,-0.4047,-0.3612,-0.3403,-0.34,-0.3386,-0.3373,-0.3351,-0.3322,-0.3295,-0.3268,-0.3253,-0.3239,-0.3231,-4.8916,-4.8102,-4.7956,-4.7496,-4.6982,-4.6731,-4.6538,-4.6483,-4.7125,-4.7238,-4.7061,-4.7364,-4.7497,-4.717,-4.6464,-4.5458,-4.4332,-4.373,-4.3405,-4.3425,-4.3102,-4.2878,-4.3024,-4.2746,-4.2501,-4.2112,-4.1992,-4.1683,-4.1147,-4.156,-4.0468,-3.8767,-3.8323,-3.7464,-3.5922,-3.5399,-3.505,-3.505,-3.505,-3.4525,-3.3146,-3.3073,-3.2693,-3.2605,-3.2135,-3.157,-3.0621,-2.9794,-2.8302,-2.7331,-2.6051,-2.5014,-2.4258,-2.3866,-2.373,-2.3405,-2.306,-2.3077,-2.3162,-2.3398,-2.3502,-2.3625,-2.3014,-2.2599,-2.1977,-2.1353,-2.032,-1.8858,-1.7601,-1.6978,-1.6978,-1.6992,-1.7019,-1.706,-1.7039,-1.71,-1.6796,-1.5515,-1.4637,-1.3765,-1.2731,-1.1835,-1.0653,-1.0257,-1.0302,-1.0314,-1.0306,-1.0326,-1.0355,-1.0302,-1.0245,-1.0224,-1.0216,-1.0192,-1.0134,-0.9904,-0.9694,-0.865,-0.7598,-0.6771,-0.5514,-0.4683,-0.4034,-0.3596,-0.3393,-0.3405,-0.3407,-0.3392,-0.337,-0.3348,-0.332,-0.3291,-0.3264,-0.3246,-0.3235,-4.9229,-4.8538,-4.7968,-4.7529,-4.7159,-4.7157,-4.6786,-4.6597,-4.7366,-4.7426,-4.692,-4.7173,-4.7303,-4.7005,-4.6243,-4.5034,-4.3486,-4.3425,-4.3341,-4.3019,-4.2926,-4.285,-4.2871,-4.2812,-4.2624,-4.219,-4.2305,-4.2048,-4.1537,-4.1507,-4.0391,-3.9143,-3.8494,-3.7464,-3.6269,-3.5748,-3.5399,-3.524,-3.5225,-3.4525,-3.3014,-3.2247,-3.1903,-3.2418,-3.1984,-3.1316,-3.059,-2.9922,-2.8802,-2.7331,-2.6174,-2.5281,-2.3816,-2.3483,-2.362,-2.3469,-2.3231,-2.32,-2.3285,-2.3398,-2.354,-2.371,-2.3078,-2.2463,-2.1821,-2.0987,-1.9911,-1.8678,-1.765,-1.7066,-1.71,-1.708,-1.7134,-1.7182,-1.7168,-1.6942,-1.6479,-1.5464,-1.4155,-1.33,-1.2471,-1.1546,-1.0574,-1.0338,-1.0396,-1.04,-1.0396,-1.0371,-1.0383,-1.0314,-1.0257,-1.0228,-1.0216,-1.0216,-1.0183,-0.994,-0.9315,-0.8487,-0.7628,-0.6782,-0.5738,-0.4687,-0.4031,-0.3589,-0.3382,-0.3393,-0.3401,-0.3405,-0.3386,-0.3363,-0.3339,-0.331,-0.3276,-0.3249,-0.3234,-4.8885,-4.7487,-4.807,-4.7453,-4.6312,-4.6856,-4.6836,-4.647,-4.7286,-4.7645,-4.7329,-4.7232,-4.7226,-4.7068,-4.6201,-4.4823,-4.3762,-4.3422,-4.3351,-4.3009,-4.3043,-4.279,-4.2645,-4.2521,-4.2368,-4.2184,-4.2314,-4.2039,-4.1815,-4.1763,-4.0916,-3.9448,-3.8494,-3.7653,-3.6508,-3.6002,-3.5573,-3.5415,-3.5065,-3.4174,-3.288,-3.1889,-3.1647,-3.171,-3.1678,-3.1543,-3.0936,-3.0428,-2.9469,-2.8679,-2.6804,-2.5582,-2.4774,-2.4058,-2.3682,-2.346,-2.3203,-2.3287,-2.3408,-2.3512,-2.3672,-2.3634,-2.3071,-2.245,-2.1584,-2.024,-1.8963,-1.8229,-1.7593,-1.7209,-1.729,-1.7338,-1.7372,-1.7365,-1.7344,-1.6766,-1.625,-1.5137,-1.3824,-1.2787,-1.1942,-1.1453,-1.0498,-1.0494,-1.0494,-1.049,-1.0481,-1.0453,-1.0412,-1.0347,-1.0318,-1.0298,-1.0236,-1.0224,-1.0024,-0.978,-0.913,-0.8306,-0.7659,-0.7008,-0.5744,-0.4683,-0.4238,-0.3802,-0.3591,-0.3369,-0.3363,-0.3369,-0.3382,-0.3367,-0.333,-0.3305,-0.3281,-0.3257,-0.3231,-4.8937,-4.8205,-4.7774,-4.7082,-4.6216,-4.7109,-4.6958,-4.6567,-4.7604,-4.7938,-4.7473,-4.7098,-4.6716,-4.6052,-4.488,-4.4059,-4.3635,-4.358,-4.3524,-4.3289,-4.3086,-4.2981,-4.2781,-4.2863,-4.2703,-4.2592,-4.2635,-4.2537,-4.2118,-4.1601,-4.0877,-3.9125,-3.8529,-3.7614,-3.6671,-3.6035,-3.5875,-3.5476,-3.4472,-3.3383,-3.2549,-3.1819,-3.1416,-3.1779,-3.1638,-3.1354,-3.0897,-3.0949,-2.9798,-2.88,-2.7418,-2.7067,-2.5815,-2.507,-2.4466,-2.4322,-2.3708,-2.3568,-2.354,-2.371,-2.3852,-2.3756,-2.3006,-2.2009,-2.1143,-1.982,-1.8719,-1.8167,-1.7753,-1.7365,-1.7412,-1.7419,-1.748,-1.75,-1.75,-1.6724,-1.5912,-1.4793,-1.3696,-1.2665,-1.1603,-1.1104,-1.0612,-1.0592,-1.0575,-1.0567,-1.0559,-1.0539,-1.0481,-1.0408,-1.0392,-1.0396,-1.0314,-1.0024,-0.9831,-0.9614,-0.8932,-0.8093,-0.7456,-0.6597,-0.5536,-0.4678,-0.4232,-0.3793,-0.3573,-0.335,-0.3329,-0.3335,-0.3352,-0.3337,-0.3317,-0.3296,-0.3276,-0.3253,-0.3232,-4.8567,-4.8544,-4.7677,-4.686,-4.6415,-4.7558,-4.7379,-4.6504,-4.7898,-4.8182,-4.7545,-4.6997,-4.6012,-4.5003,-4.4176,-4.3785,-4.3553,-4.3615,-4.3598,-4.3412,-4.3319,-4.3034,-4.2982,-4.3141,-4.3077,-4.3086,-4.2741,-4.2621,-4.2216,-4.1471,-4.0341,-3.87,-3.8804,-3.7832,-3.6755,-3.6338,-3.6016,-3.5134,-3.3694,-3.2641,-3.1958,-3.1354,-3.1299,-3.1583,-3.1652,-3.1191,-3.0655,-3.1138,-3.0128,-2.8946,-2.8462,-2.8101,-2.686,-2.6041,-2.5378,-2.5063,-2.4402,-2.4038,-2.3879,-2.3795,-2.3956,-2.3868,-2.3141,-2.1993,-2.0269,-1.94,-1.8754,-1.8114,-1.7696,-1.7494,-1.7528,-1.7548,-1.7602,-1.7643,-1.7629,-1.684,-1.5808,-1.468,-1.3338,-1.2038,-1.1184,-1.0966,-1.0702,-1.0673,-1.0657,-1.0649,-1.0632,-1.0616,-1.0547,-1.0465,-1.0457,-1.0457,-1.0367,-1.0072,-0.9649,-0.9221,-0.8542,-0.7878,-0.703,-0.6392,-0.5328,-0.4676,-0.4021,-0.3791,-0.335,-0.3317,-0.329,-0.3305,-0.3321,-0.3317,-0.3309,-0.329,-0.3269,-0.3246,-0.3234,-4.7281,-4.7694,-4.778,-4.7308,-4.6712,-4.8134,-4.805,-4.7151,-4.8175,-4.8206,-4.7375,-4.6491,-4.5428,-4.4705,-4.4163,-4.3697,-4.3635,-4.3615,-4.37,-4.3481,-4.323,-4.3198,-4.316,-4.3175,-4.3027,-4.302,-4.2837,-4.2512,-4.1994,-4.1141,-4.0179,-3.966,-3.9096,-3.8325,-3.7562,-3.6642,-3.5716,-3.4651,-3.3188,-3.2081,-3.1526,-3.1029,-3.0929,-3.1223,-3.149,-3.165,-3.1447,-3.169,-3.1277,-2.9941,-2.9664,-2.9159,-2.8152,-2.7212,-2.6317,-2.5707,-2.5059,-2.45,-2.3975,-2.3909,-2.4069,-2.4027,-2.3349,-2.1749,-1.9799,-1.923,-1.8589,-1.7841,-1.7656,-1.7711,-1.7779,-1.7833,-1.7819,-1.7812,-1.7358,-1.6255,-1.5436,-1.4575,-1.3222,-1.1424,-1.0759,-1.0775,-1.0751,-1.0714,-1.0706,-1.0698,-1.0673,-1.0653,-1.0592,-1.0522,-1.0514,-1.049,-1.0404,-1.0132,-0.948,-0.8807,-0.8322,-0.7456,-0.6605,-0.5967,-0.5328,-0.4672,-0.3814,-0.3563,-0.3328,-0.3288,-0.326,-0.3277,-0.3294,-0.3306,-0.33,-0.3273,-0.326,-0.3243,-0.3236,-4.7897,-4.7755,-4.8209,-4.7683,-4.6737,-4.8184,-4.8252,-4.745,-4.8224,-4.8137,-4.7194,-4.5736,-4.4968,-4.4743,-4.387,-4.3648,-4.3967,-4.4029,-4.4017,-4.3873,-4.3698,-4.342,-4.3455,-4.3288,-4.3203,-4.3254,-4.2787,-4.2364,-4.2291,-4.0872,-3.9876,-3.9218,-3.872,-3.8069,-3.7273,-3.6632,-3.5515,-3.426,-3.309,-3.2042,-3.1185,-3.0899,-3.0929,-3.1223,-3.1517,-3.165,-3.169,-3.1851,-3.1513,-3.0958,-3.0549,-3.013,-2.9486,-2.8472,-2.7598,-2.6608,-2.6089,-2.5042,-2.4385,-2.4107,-2.4074,-2.3503,-2.277,-2.1715,-1.9732,-1.9461,-1.8813,-1.8232,-1.786,-1.7921,-1.7968,-1.7996,-1.7996,-1.778,-1.7091,-1.5952,-1.506,-1.4199,-1.2839,-1.1244,-1.1028,-1.082,-1.0788,-1.0747,-1.0747,-1.0743,-1.0714,-1.0681,-1.0632,-1.0596,-1.0592,-1.034,-1.026,-0.9551,-0.9107,-0.8392,-0.7887,-0.703,-0.6392,-0.5754,-0.5115,-0.4261,-0.3607,-0.3352,-0.3315,-0.3288,-0.3269,-0.3261,-0.3264,-0.3272,-0.3266,-0.325,-0.324,-0.3245,-0.325,-4.8407,-4.8209,-4.8484,-4.8083,-4.7408,-4.8484,-4.8501,-4.78,-4.8142,-4.7943,-4.6954,-4.5265,-4.476,-4.469,-4.3868,-4.3532,-4.4153,-4.4308,-4.4371,-4.4139,-4.396,-4.3735,-4.3523,-4.3496,-4.3437,-4.3507,-4.2902,-4.2421,-4.1956,-4.0647,-3.9531,-3.872,-3.8052,-3.7434,-3.7233,-3.6495,-3.5577,-3.4066,-3.31,-3.1958,-3.1101,-3.0942,-3.1076,-3.1343,-3.1583,-3.165,-3.1704,-3.1837,-3.1732,-3.1256,-3.1171,-3.0977,-3.0489,-2.9888,-2.894,-2.7994,-2.6787,-2.5659,-2.5018,-2.4362,-2.4075,-2.3249,-2.2883,-2.1587,-2.0285,-1.9625,-1.8935,-1.8081,-1.7982,-1.8097,-1.8104,-1.8118,-1.8152,-1.7934,-1.7028,-1.5878,-1.4724,-1.3834,-1.2433,-1.1053,-1.1053,-1.0808,-1.0792,-1.0751,-1.0751,-1.0751,-1.0739,-1.0722,-1.071,-1.0686,-1.0681,-1.0416,-0.9913,-0.9207,-0.8511,-0.7997,-0.7708,-0.703,-0.6392,-0.5754,-0.4902,-0.405,-0.3399,-0.336,-0.3326,-0.3296,-0.3275,-0.3258,-0.3245,-0.3235,-0.3239,-0.3251,-0.3273,-0.328,-0.328,-4.8259,-4.8736,-4.843,-4.8532,-4.8609,-4.9314,-4.9177,-4.8371,-4.8075,-4.7504,-4.6727,-4.5528,-4.4968,-4.4928,-4.4012,-4.3925,-4.4246,-4.4324,-4.4478,-4.4341,-4.4119,-4.387,-4.3699,-4.3652,-4.3613,-4.3507,-4.2921,-4.2069,-4.1537,-3.9858,-3.9021,-3.8462,-3.776,-3.7328,-3.6996,-3.6544,-3.5234,-3.3686,-3.3044,-3.2129,-3.1437,-3.1249,-3.1383,-3.161,-3.165,-3.1677,-3.1704,-3.1864,-3.1772,-3.1503,-3.1381,-3.1227,-3.1154,-3.0624,-2.9941,-2.913,-2.8048,-2.6966,-2.5963,-2.5098,-2.4242,-2.3311,-2.2909,-2.1823,-2.0285,-1.9412,-1.9192,-1.8095,-1.8023,-1.8104,-1.8152,-1.8226,-1.828,-1.7628,-1.6714,-1.5549,-1.4381,-1.3028,-1.186,-1.1095,-1.1024,-1.0759,-1.0759,-1.0751,-1.0751,-1.0751,-1.0751,-1.0751,-1.0751,-1.0743,-1.0508,-1.0024,-0.9525,-0.9041,-0.8107,-0.8029,-0.753,-0.6845,-0.6395,-0.5754,-0.5115,-0.4476,-0.4027,-0.3575,-0.3336,-0.3305,-0.3277,-0.3253,-0.3253,-0.3255,-0.3261,-0.3275,-0.3299,-0.3313,-0.3309,-4.9138,-4.9314,-4.8953,-4.8928,-4.8953,-4.8868,-4.8837,-4.8387,-4.7345,-4.6704,-4.6575,-4.5143,-4.4589,-4.4613,-4.4474,-4.4319,-4.4618,-4.4755,-4.4724,-4.4764,-4.4295,-4.4047,-4.3837,-4.3691,-4.3691,-4.338,-4.2754,-4.1956,-4.1421,-3.9583,-3.8788,-3.8399,-3.7901,-3.7296,-3.6944,-3.6328,-3.5338,-3.3959,-3.3211,-3.2716,-3.1934,-3.165,-3.1664,-3.1944,-3.1797,-3.173,-3.1757,-3.1998,-3.2124,-3.1842,-3.1522,-3.1744,-3.1569,-3.1267,-3.0641,-2.9802,-2.8534,-2.688,-2.5749,-2.4655,-2.4363,-2.3547,-2.269,-2.1814,-1.9845,-1.9625,-1.8971,-1.8371,-1.8097,-1.8186,-1.8274,-1.8382,-1.8215,-1.7085,-1.5922,-1.4722,-1.3558,-1.2452,-1.1291,-1.1162,-1.0845,-1.0808,-1.0792,-1.0767,-1.0759,-1.0771,-1.0779,-1.0759,-1.0755,-1.0751,-1.052,-0.9605,-0.9118,-0.8417,-0.7926,-0.7628,-0.7353,-0.688,-0.6415,-0.5756,-0.5328,-0.4687,-0.4032,-0.3585,-0.3343,-0.3311,-0.3284,-0.3265,-0.3279,-0.3284,-0.3291,-0.33,-0.3322,-0.333,-0.3328,-4.959,-4.959,-4.9072,-4.9097,-4.9202,-4.8942,-4.8805,-4.8415,-4.7279,-4.6859,-4.6645,-4.5581,-4.4913,-4.5082,-4.4957,-4.4638,-4.5092,-4.5065,-4.4825,-4.4698,-4.437,-4.4021,-4.3691,-4.3691,-4.3691,-4.3399,-4.2572,-4.1785,-4.116,-3.9426,-3.8374,-3.8005,-3.7975,-3.7427,-3.6916,-3.6371,-3.542,-3.4305,-3.3429,-3.3023,-3.253,-3.2118,-3.2078,-3.2158,-3.2118,-3.2011,-3.2091,-3.2305,-3.2403,-3.2274,-3.2106,-3.2072,-3.1925,-3.1561,-3.1126,-3.0245,-2.8765,-2.6917,-2.5341,-2.4769,-2.421,-2.3128,-2.2699,-2.1603,-2.0065,-1.9625,-1.8964,-1.8392,-1.8165,-1.8267,-1.8342,-1.847,-1.8126,-1.698,-1.5809,-1.437,-1.3443,-1.2557,-1.1357,-1.1004,-1.0926,-1.0882,-1.0841,-1.0788,-1.0767,-1.0788,-1.0804,-1.0779,-1.0759,-1.054,-1.0312,-0.9616,-0.893,-0.823,-0.7733,-0.7443,-0.7171,-0.6916,-0.6441,-0.5971,-0.5328,-0.4687,-0.4034,-0.3594,-0.3348,-0.3317,-0.329,-0.328,-0.3294,-0.331,-0.3324,-0.3335,-0.3348,-0.3352,-0.3354,-4.9615,-4.9486,-4.8837,-4.8992,-4.9511,-4.9221,-4.8969,-4.8791,-4.8263,-4.7574,-4.6992,-4.6485,-4.5858,-4.5418,-4.5419,-4.5366,-4.4963,-4.4947,-4.4782,-4.435,-4.4041,-4.3876,-4.3711,-4.3691,-4.3604,-4.3222,-4.2406,-4.1378,-4.0613,-3.9041,-3.8006,-3.7654,-3.7845,-3.7523,-3.7038,-3.6564,-3.5602,-3.4297,-3.3877,-3.3436,-3.2713,-3.2532,-3.2505,-3.2519,-3.2452,-3.2398,-3.2452,-3.2572,-3.2759,-3.2617,-3.2358,-3.2392,-3.2156,-3.1893,-3.1741,-3.0834,-2.9156,-2.7207,-2.5269,-2.4873,-2.4219,-2.3355,-2.2909,-2.1603,-2.0505,-1.9632,-1.8985,-1.842,-1.8165,-1.826,-1.8362,-1.8545,-1.849,-1.733,-1.593,-1.4977,-1.4042,-1.2854,-1.1639,-1.1098,-1.1037,-1.0988,-1.0951,-1.0898,-1.08,-1.0816,-1.0824,-1.0784,-1.0771,-1.0344,-1.0108,-0.9634,-0.8947,-0.8262,-0.7759,-0.7252,-0.6987,-0.6946,-0.6652,-0.5969,-0.5328,-0.4689,-0.4255,-0.3811,-0.3352,-0.3324,-0.33,-0.3299,-0.3311,-0.3329,-0.335,-0.3366,-0.338,-0.3388,-0.339,-4.9816,-5.0012,-4.901,-4.9059,-4.9669,-4.9242,-4.8836,-4.8529,-4.8052,-4.7341,-4.6778,-4.6138,-4.5745,-4.5128,-4.5429,-4.536,-4.5167,-4.4947,-4.4638,-4.437,-4.3856,-4.3691,-4.3711,-4.3604,-4.3555,-4.293,-4.1989,-4.115,-4.0471,-3.8958,-3.8229,-3.8127,-3.81,-3.7742,-3.7408,-3.7272,-3.5853,-3.4682,-3.4283,-3.3794,-3.3246,-3.2853,-3.2866,-3.2839,-3.2692,-3.2652,-3.2679,-3.2826,-3.3026,-3.3107,-3.2786,-3.262,-3.2926,-3.2164,-3.1332,-2.9393,-2.8328,-2.7249,-2.5535,-2.4882,-2.4446,-2.3355,-2.2699,-2.1603,-2.0285,-1.9419,-1.9014,-1.8482,-1.8179,-1.8301,-1.8437,-1.8613,-1.8039,-1.689,-1.5726,-1.4782,-1.3606,-1.2402,-1.1192,-1.1163,-1.1102,-1.1045,-1.1012,-1.0935,-1.0849,-1.0857,-1.0849,-1.0812,-1.056,-1.0127,-0.9671,-0.9422,-0.8737,-0.7831,-0.7567,-0.7066,-0.7019,-0.697,-0.6456,-0.5971,-0.5328,-0.4689,-0.4263,-0.3819,-0.3573,-0.3339,-0.3315,-0.3322,-0.3335,-0.3356,-0.3378,-0.3395,-0.3408,-0.3411,-0.3412,-4.9791,-4.9912,-4.8985,-4.8895,-4.9461,-4.9825,-4.9451,-4.8707,-4.8302,-4.7829,-4.7131,-4.6616,-4.5905,-4.5408,-4.554,-4.5448,-4.5008,-4.4722,-4.4534,-4.4041,-4.3896,-4.3867,-4.3906,-4.3651,-4.34,-4.2782,-4.1687,-4.0632,-4.0018,-3.8927,-3.7999,-3.7925,-3.8179,-3.793,-3.7417,-3.7176,-3.6383,-3.5166,-3.4422,-3.411,-3.353,-3.3146,-3.3146,-3.3106,-3.2919,-3.2933,-3.304,-3.3253,-3.3454,-3.3559,-3.3253,-3.2887,-3.2919,-3.2287,-3.0714,-2.8985,-2.8328,-2.7033,-2.5317,-2.4664,-2.401,-2.3137,-2.2261,-2.1164,-2.0073,-1.9199,-1.8843,-1.8287,-1.8219,-1.8375,-1.8518,-1.8423,-1.7311,-1.6192,-1.5026,-1.4088,-1.2896,-1.1707,-1.1449,-1.12,-1.1147,-1.1082,-1.1016,-1.0943,-1.0894,-1.0894,-1.0898,-1.089,-1.0387,-0.9903,-0.9443,-0.9195,-0.8296,-0.7619,-0.7353,-0.7087,-0.7033,-0.697,-0.6456,-0.5981,-0.5334,-0.4685,-0.4256,-0.3817,-0.3375,-0.3355,-0.334,-0.335,-0.3363,-0.3385,-0.3403,-0.3415,-0.3419,-0.3411,-0.3412,-4.964,-4.9715,-4.9066,-4.8959,-4.9145,-5.0531,-5.0218,-4.9015,-4.9083,-4.8588,-4.7782,-4.7444,-4.6706,-4.5844,-4.567,-4.5351,-4.5027,-4.4678,-4.4205,-4.373,-4.3848,-4.4023,-4.4071,-4.3572,-4.3462,-4.279,-4.1495,-4.0238,-3.9385,-3.8661,-3.82,-3.7766,-3.8417,-3.8212,-3.7379,-3.7447,-3.6451,-3.5267,-3.4686,-3.4331,-3.356,-3.3387,-3.3414,-3.3387,-3.34,-3.3467,-3.3734,-3.3908,-3.4028,-3.391,-3.3512,-3.3065,-3.2598,-3.2299,-3.0477,-2.92,-2.8328,-2.7033,-2.5535,-2.4446,-2.3792,-2.2909,-2.2042,-2.0945,-1.9853,-1.9192,-1.8614,-1.8342,-1.828,-1.8437,-1.8586,-1.8218,-1.711,-1.5959,-1.4793,-1.3626,-1.2447,-1.1495,-1.1257,-1.1233,-1.1196,-1.1143,-1.1131,-1.1069,-1.1,-1.0963,-1.0914,-1.0918,-1.0656,-0.9918,-0.945,-0.8981,-0.8076,-0.7396,-0.7365,-0.7096,-0.7038,-0.675,-0.6461,-0.5786,-0.5353,-0.4695,-0.4037,-0.3605,-0.3388,-0.3381,-0.3371,-0.338,-0.339,-0.3412,-0.3427,-0.3437,-0.3435,-0.343,-0.3425,-4.9841,-5.0268,-5.0141,-5.01,-5.0093,-5.0871,-5.0698,-4.9857,-5.0123,-4.8951,-4.74,-4.7018,-4.668,-4.6239,-4.5797,-4.5434,-4.4985,-4.4614,-4.4205,-4.4052,-4.4043,-4.4336,-4.4492,-4.4087,-4.388,-4.2757,-4.1586,-4.0027,-3.8827,-3.8401,-3.8441,-3.8147,-3.8672,-3.84,-3.7547,-3.7433,-3.6597,-3.5011,-3.4413,-3.4214,-3.3614,-3.3414,-3.3414,-3.3414,-3.344,-3.3601,-3.3801,-3.3921,-3.401,-3.394,-3.3433,-3.2772,-3.2136,-3.1984,-3.0714,-2.877,-2.8328,-2.7033,-2.5525,-2.4228,-2.3574,-2.269,-2.1814,-2.0505,-1.9632,-1.8971,-1.8628,-1.8383,-1.8335,-1.8484,-1.8389,-1.7775,-1.6896,-1.5726,-1.456,-1.3158,-1.1993,-1.1758,-1.1286,-1.1265,-1.1237,-1.122,-1.1212,-1.118,-1.1122,-1.1041,-1.0939,-1.0898,-1.0644,-1.015,-0.9479,-0.9008,-0.7858,-0.7396,-0.7147,-0.7109,-0.7052,-0.6776,-0.6492,-0.582,-0.5158,-0.449,-0.3618,-0.362,-0.3403,-0.3401,-0.3401,-0.3403,-0.3418,-0.3435,-0.3457,-0.3468,-0.3479,-0.3478,-0.3464,-4.9766,-5.0012,-5.0389,-5.0332,-5.0277,-5.0912,-5.0528,-4.9909,-4.9966,-4.8985,-4.7437,-4.7333,-4.706,-4.6326,-4.584,-4.5372,-4.4758,-4.4462,-4.4375,-4.416,-4.4433,-4.4785,-4.483,-4.4491,-4.3777,-4.2846,-4.1151,-3.9774,-3.8449,-3.8222,-3.8382,-3.8306,-3.8767,-3.8541,-3.7715,-3.7207,-3.64,-3.5011,-3.4413,-3.3814,-3.3414,-3.3414,-3.3414,-3.3414,-3.3467,-3.3654,-3.3948,-3.4108,-3.4016,-3.3732,-3.3269,-3.2698,-3.1972,-3.1795,-3.094,-2.963,-2.8544,-2.7465,-2.5742,-2.4219,-2.3346,-2.2253,-2.1164,-1.9853,-1.9192,-1.8551,-1.8455,-1.8192,-1.8287,-1.843,-1.8409,-1.782,-1.6657,-1.526,-1.4093,-1.2929,-1.1993,-1.152,-1.1286,-1.1282,-1.1241,-1.1192,-1.1184,-1.118,-1.1114,-1.1,-1.0918,-1.0914,-1.0656,-1.0371,-0.9708,-0.9029,-0.8094,-0.7404,-0.7164,-0.7123,-0.685,-0.6574,-0.6308,-0.5607,-0.4933,-0.4063,-0.3412,-0.3422,-0.3429,-0.3433,-0.3433,-0.3435,-0.3437,-0.345,-0.3475,-0.3499,-0.351,-0.3521,-0.3514,-4.969,-4.9812,-5.0122,-5.0181,-5.0143,-5.0693,-5.0359,-4.9354,-4.9471,-4.896,-4.7869,-4.8216,-4.7592,-4.6629,-4.582,-4.5169,-4.4653,-4.4454,-4.4297,-4.4492,-4.4883,-4.5176,-4.4933,-4.414,-4.3486,-4.2335,-4.0823,-3.9857,-3.8861,-3.8633,-3.8354,-3.8354,-3.8435,-3.84,-3.7715,-3.7011,-3.6202,-3.521,-3.4214,-3.3614,-3.3414,-3.3414,-3.3414,-3.3414,-3.3507,-3.3774,-3.4135,-3.4236,-3.428,-3.3664,-3.3035,-3.241,-3.1996,-3.1807,-3.094,-2.9845,-2.8759,-2.7249,-2.5732,-2.4001,-2.2909,-2.1603,-2.0293,-1.9419,-1.8757,-1.8378,-1.828,-1.8199,-1.8287,-1.8195,-1.7941,-1.7129,-1.5959,-1.4793,-1.3626,-1.2695,-1.1993,-1.1286,-1.1286,-1.1286,-1.1249,-1.1192,-1.1184,-1.118,-1.1114,-1.0996,-1.0935,-1.0939,-1.0914,-1.0387,-0.9899,-0.9454,-0.8543,-0.8079,-0.7398,-0.7134,-0.6861,-0.6625,-0.6357,-0.5409,-0.4717,-0.3869,-0.3445,-0.3446,-0.3453,-0.346,-0.3468,-0.3474,-0.3474,-0.3474,-0.3495,-0.3523,-0.3539,-0.355,-0.3561,-4.9987,-5.0439,-5.0728,-5.0856,-5.093,-5.1005,-5.0546,-4.9766,-4.9782,-4.9428,-4.8776,-4.8482,-4.7933,-4.6306,-4.582,-4.5229,-4.4548,-4.4444,-4.4394,-4.4492,-4.5234,-4.5547,-4.5223,-4.421,-4.3334,-4.1792,-4.041,-3.9637,-3.9039,-3.8858,-3.8608,-3.8624,-3.9244,-3.8838,-3.7908,-3.7192,-3.6414,-3.5408,-3.4413,-3.3814,-3.3414,-3.3414,-3.3414,-3.3494,-3.3681,-3.3975,-3.4077,-3.4135,-3.3797,-3.3396,-3.2648,-3.202,-3.1807,-3.1807,-3.094,-3.0059,-2.8974,-2.7249,-2.5515,-2.4028,-2.2742,-2.1172,-2.0081,-1.9441,-1.8779,-1.8115,-1.8057,-1.8048,-1.7921,-1.7798,-1.7261,-1.5709,-1.4565,-1.3859,-1.2695,-1.2227,-1.152,-1.1286,-1.1286,-1.1286,-1.1278,-1.1253,-1.1249,-1.1241,-1.1225,-1.111,-1.0776,-1.1,-1.0951,-1.0636,-1.0097,-0.9425,-0.8757,-0.8079,-0.7396,-0.7139,-0.7101,-0.6871,-0.6404,-0.5451,-0.4551,-0.3914,-0.3701,-0.348,-0.3484,-0.3493,-0.3499,-0.3508,-0.3512,-0.3513,-0.3525,-0.3544,-0.3562,-0.3572,-0.3577]}]]